GFSCGP_700_spd_000.txt.gz
Wind_Speed
36 38 38 39 37 38 39 42 47 46 42 48 51 56 53 48 44 44 43 42 38 34 32 32 32 29 30 31 35 38 38 38 40 41 41 39 38 39 39 40 40 40 39 38
40 42 39 36 35 34 37 42 47 51 42 45 52 60 51 45 44 37 34 32 31 29 17 17 15 18 22 30 35 39 39 39 42 43 39 38 38 40 39 38 39 41 40 39
42 41 39 38 38 40 43 42 49 50 44 42 48 54 31 27 38 34 20 18 12 9 25 18 18 13 17 20 24 31 38 43 44 41 39 38 39 42 42 41 40 40 41 39
36 34 30 24 24 22 36 28 35 39 38 26 25 25 32 31 21 26 8 7 6 22 35 29 31 28 24 27 29 28 28 27 26 30 33 36 39 40 37 37 35 36 38 38
31 29 29 31 31 24 32 24 27 30 32 36 17 13 30 28 25 5 5 5 16 33 24 46 35 32 30 30 31 30 25 23 23 26 28 32 38 39 38 38 37 37 37 37
32 28 27 29 33 35 33 30 26 27 27 12 21 18 60 11 5 9 5 30 21 36 41 36 29 35 28 30 30 27 18 16 22 27 31 33 35 36 37 38 38 36 36 37
32 35 41 43 38 35 33 29 6 4 3 10 6 13 41 28 32 33 25 39 46 32 25 25 27 32 32 34 27 22 17 15 20 27 31 30 31 31 31 32 32 32 35 38
25 39 26 21 25 24 26 21 15 7 5 14 28 15 51 46 53 53 38 35 24 16 19 23 27 22 21 17 12 12 13 16 21 25 28 28 25 23 24 27 29 32 35 39
20 38 33 20 20 25 27 26 32 36 34 16 34 39 48 57 43 36 21 10 24 29 28 22 21 25 27 19 14 13 13 16 20 22 23 22 19 17 19 23 32 37 40 42
32 34 42 31 24 31 31 32 16 11 4 8 12 32 31 53 61 55 40 35 39 36 31 30 33 30 23 17 11 3 6 8 11 13 16 17 20 23 26 27 31 38 43 44
29 28 35 26 31 32 30 26 31 30 26 12 18 23 46 53 49 45 40 33 33 32 36 41 48 45 35 31 34 28 26 23 22 20 22 25 27 28 30 31 34 36 42 48
33 34 31 47 34 36 37 40 37 28 18 34 28 24 42 38 40 49 54 47 44 37 45 48 42 38 34 38 41 43 37 40 42 44 42 42 44 37 40 35 36 41 44 52
22 17 12 17 26 27 24 27 26 28 30 26 18 15 36 36 40 49 55 54 52 41 37 39 39 41 43 44 49 50 52 54 51 50 50 47 46 44 42 40 41 43 48 49
34 36 31 28 31 40 35 36 40 32 28 32 34 40 39 39 39 40 46 49 56 62 57 49 49 51 51 51 53 59 57 53 52 57 55 55 52 46 46 43 44 44 44 45
43 40 40 44 43 39 37 38 42 48 43 31 42 43 39 52 58 59 62 64 67 63 57 55 54 52 53 54 51 54 56 55 54 53 53 51 51 51 46 49 46 44 43 43
26 23 24 36 39 43 45 49 52 50 53 44 40 36 37 40 45 45 40 43 49 54 58 51 45 37 36 46 50 52 55 54 50 48 51 53 53 56 59 58 54 49 50 49
41 36 34 38 40 30 30 48 42 42 44 42 40 41 38 29 31 30 29 32 33 36 39 42 40 38 36 38 44 46 46 51 51 53 53 55 58 56 57 56 58 62 65 60
43 44 39 37 37 19 37 32 26 24 23 27 26 26 23 25 28 27 31 33 37 40 45 48 50 52 51 48 43 42 42 44 50 52 58 60 58 56 54 57 58 58 61 64
48 47 27 19 24 30 35 31 30 28 25 26 25 24 26 30 35 36 36 39 42 47 52 55 57 57 56 57 58 55 49 46 45 45 48 49 54 54 56 56 59 61 63 65
17 17 26 17 7 6 17 25 22 30 24 19 20 32 38 40 44 47 45 45 48 51 50 50 52 54 52 49 54 57 54 52 54 52 49 48 42 40 42 51 56 59 57 60
24 23 27 35 16 18 23 29 33 12 13 27 34 37 38 38 39 44 47 48 48 49 50 51 51 51 51 52 50 51 53 50 51 51 55 54 53 48 42 43 45 45 48 52
17 14 18 10 8 11 19 18 19 29 40 40 38 41 39 39 44 46 48 51 51 51 51 49 49 51 51 51 52 52 51 53 53 51 54 55 56 57 58 49 43 34 36 51
22 29 20 17 24 35 40 43 37 35 40 40 43 40 42 45 48 49 52 52 52 51 49 49 53 56 57 57 60 63 60 58 57 55 51 53 53 51 47 55 53 46 38 33
40 37 40 41 45 37 36 36 39 35 37 38 40 43 45 47 49 51 51 52 54 54 54 55 59 63 66 66 68 70 71 69 66 62 58 54 53 52 52 45 52 57 52 47
40 38 39 41 46 42 43 35 33 37 37 40 44 45 47 49 49 50 53 55 56 57 57 60 65 69 74 76 79 77 75 74 73 70 65 62 57 55 53 51 48 51 56 52
47 48 41 44 40 43 40 38 39 41 44 45 43 44 44 47 51 54 55 55 57 60 63 68 72 76 80 83 85 83 81 79 77 76 71 66 64 56 55 53 50 47 49 51

GFSCGP_700_spd_003.txt.gz
Wind_Speed
32 31 32 33 32 34 36 39 42 43 40 45 46 49 44 41 37 36 34 29 26 25 24 12 14 15 19 27 35 38 42 43 44 44 43 43 41 39 37 36 36 39 43 42
36 37 33 33 31 31 33 36 41 45 33 39 45 51 46 35 26 31 30 21 15 4 7 11 14 15 18 18 23 29 36 38 41 43 41 41 40 40 38 38 39 41 43 42
40 39 33 33 32 33 35 34 35 38 36 39 42 37 21 23 31 15 17 12 5 13 13 21 24 21 24 24 23 24 26 32 34 38 42 44 44 43 40 40 42 42 42 42
33 24 22 22 19 16 28 22 26 31 31 19 29 20 32 17 11 14 6 8 13 18 19 29 32 42 34 32 27 28 27 26 26 25 27 29 29 31 30 34 38 39 40 41
20 30 34 32 27 15 26 28 29 33 34 33 17 14 23 24 11 10 10 11 20 27 32 36 44 32 32 28 24 21 28 27 25 23 23 27 29 30 29 34 36 39 41 42
34 37 36 33 23 27 30 30 27 23 22 9 17 12 12 4 10 7 12 19 38 43 33 26 21 23 27 29 25 23 24 19 21 19 19 23 28 30 32 35 34 37 41 42
33 32 32 33 35 34 26 23 6 3 2 8 2 10 26 21 22 26 29 36 28 14 20 22 25 25 25 24 25 18 19 22 24 23 23 21 23 25 28 30 32 35 38 41
33 35 27 28 19 20 28 27 17 7 5 10 27 16 42 36 41 45 23 15 15 14 18 21 28 30 23 25 28 22 20 20 20 23 23 23 22 22 23 25 28 31 35 38
22 29 17 22 25 24 22 24 30 32 31 10 28 33 49 56 26 15 28 29 26 25 29 34 34 35 33 30 27 21 18 20 19 17 18 19 20 20 21 22 24 24 28 33
18 24 32 28 34 35 34 35 17 12 3 11 14 30 33 45 41 37 36 34 26 28 28 29 33 39 39 38 34 35 33 31 29 30 25 21 19 19 19 19 18 19 21 27
31 27 40 33 27 24 22 26 31 31 27 11 13 15 33 38 38 42 38 34 36 39 42 37 31 37 46 44 37 30 31 37 40 44 42 38 38 39 33 27 24 25 25 24
28 18 17 34 38 41 41 33 30 14 12 26 27 18 31 34 37 36 45 49 52 49 42 37 32 31 35 44 46 47 45 43 45 49 52 52 51 44 41 37 34 36 38 37
20 19 16 13 24 20 20 25 27 27 31 29 19 17 21 16 23 38 46 48 51 53 55 56 52 49 53 52 52 52 55 56 54 55 55 52 49 48 45 41 38 37 39 43
33 37 32 27 28 29 33 43 40 36 29 33 34 28 33 35 38 38 44 53 55 58 62 59 54 51 47 45 43 45 51 58 56 52 51 51 55 54 49 45 41 42 40 41
35 34 37 38 41 39 38 40 43 42 45 30 40 44 54 54 52 49 48 47 48 49 52 52 51 47 44 40 36 38 42 48 52 54 53 56 59 55 55 54 46 42 45 43
41 34 32 38 41 36 35 41 46 50 55 52 46 46 45 43 43 41 39 42 43 42 42 42 43 43 45 47 48 44 40 42 43 47 51 53 56 52 50 53 52 51 51 50
34 33 32 35 37 33 30 51 47 48 49 48 45 42 38 37 35 32 35 32 32 34 38 42 47 51 53 55 57 57 54 49 46 44 49 49 54 61 57 53 57 59 58 57
35 36 35 30 29 21 44 44 35 33 31 28 22 20 22 23 26 28 32 33 35 38 42 46 51 55 57 57 56 57 57 57 58 58 52 49 49 49 50 52 53 54 54 56
48 48 30 23 30 31 37 34 34 31 33 23 17 18 21 24 31 35 32 35 40 42 44 45 47 51 54 54 55 56 55 52 50 49 51 51 51 54 52 51 51 51 55 55
23 26 29 19 8 7 16 18 17 21 26 19 10 21 28 29 34 37 36 39 41 42 43 46 48 49 51 53 55 57 58 59 56 55 54 51 49 48 50 52 52 52 50 54
23 26 27 30 21 17 26 28 24 12 14 11 31 34 37 36 37 39 40 41 45 47 49 49 50 53 54 56 59 62 64 64 63 61 60 59 55 53 53 52 53 52 53 52
19 14 14 13 13 14 23 20 9 18 32 41 34 35 37 34 36 39 40 43 45 47 49 51 54 57 57 58 59 63 67 69 71 71 71 71 68 66 61 58 56 54 50 54
23 25 26 26 18 22 26 36 40 30 32 36 32 33 35 35 39 42 43 45 48 50 53 55 57 58 58 58 60 65 69 74 79 82 82 80 78 74 68 63 60 59 56 51
34 36 41 42 46 43 37 33 28 27 28 29 32 37 37 40 42 42 45 48 50 52 54 55 57 62 66 69 73 77 79 82 85 87 87 87 85 80 73 67 61 61 59 58
39 42 44 45 43 39 34 28 31 31 30 32 35 37 39 40 40 44 47 49 50 52 54 59 65 71 75 77 79 81 84 86 88 88 87 87 84 81 76 70 65 60 58 58
43 46 42 47 39 35 38 35 37 40 38 36 37 37 36 40 41 44 46 49 50 53 59 65 70 75 77 82 85 87 87 87 86 84 81 78 76 73 70 69 67 62 59 57

GFSCGP_700_spd_006.txt.gz
Wind_Speed
29 29 30 30 29 30 34 34 34 37 33 38 37 39 38 36 32 20 19 23 18 7 11 6 8 9 7 9 18 23 24 30 39 41 43 48 49 47 46 45 40 38 37 38
31 33 31 29 29 30 30 32 37 33 27 34 35 38 29 12 24 15 7 11 4 7 8 10 12 12 18 18 19 21 24 24 26 30 35 39 44 48 45 45 43 41 41 42
37 32 30 31 28 26 30 30 28 27 30 34 31 28 18 22 6 15 14 4 6 4 8 14 20 25 27 34 27 28 23 25 26 24 26 32 35 43 44 45 45 45 45 45
28 25 16 15 18 19 26 25 23 27 27 20 28 17 22 7 11 2 7 5 4 12 24 30 34 34 39 36 25 23 21 22 26 27 26 25 30 36 41 43 45 47 49 49
17 18 24 25 25 31 29 22 26 32 29 29 18 14 10 13 5 16 5 10 17 31 43 37 31 33 34 31 31 29 22 21 25 29 30 29 31 33 38 40 42 44 47 49
24 31 34 34 31 29 27 29 30 24 18 11 16 10 8 5 12 14 17 19 28 40 45 30 27 28 35 30 26 24 21 21 26 30 31 33 32 32 33 36 38 42 44 45
29 32 31 27 29 31 29 31 12 8 7 13 15 17 20 13 24 30 29 34 44 47 27 24 27 28 28 28 27 26 23 21 22 25 23 24 27 28 30 34 37 39 40 42
19 28 21 24 24 22 20 17 12 8 15 20 23 16 23 17 22 26 33 40 28 20 21 26 29 28 29 31 33 31 25 21 20 18 16 16 18 19 23 28 32 36 37 39
22 27 21 21 18 14 18 21 25 25 31 15 34 40 42 34 34 32 25 19 24 27 27 28 34 34 32 35 36 36 34 30 30 31 28 23 25 21 20 21 26 32 35 38
22 18 26 20 25 28 26 23 19 18 8 20 24 32 28 24 30 35 37 31 30 28 24 26 30 37 40 39 36 36 37 34 33 33 36 37 40 37 34 32 34 29 27 33
21 24 36 23 27 33 29 27 23 23 23 7 10 21 33 37 36 34 33 32 35 34 35 41 43 40 41 42 43 43 42 45 46 45 44 44 43 47 46 44 42 36 32 30
28 24 28 39 32 27 22 28 30 24 17 29 31 34 33 28 34 41 47 44 28 34 37 39 42 46 45 47 49 48 48 47 47 46 52 52 49 47 49 49 45 39 36 35
20 12 12 20 29 28 26 27 33 30 28 29 15 6 18 29 35 36 45 44 42 50 58 53 51 48 47 43 41 42 40 41 42 44 45 50 52 51 50 48 44 40 40 42
27 35 33 32 34 25 23 24 22 24 22 28 35 42 41 38 35 37 38 47 56 59 56 55 50 42 38 36 34 33 33 34 35 36 39 40 43 48 47 45 47 50 49 45
26 35 37 37 39 39 40 40 42 37 41 34 43 41 52 52 48 51 54 55 55 51 50 49 46 44 42 41 40 40 39 41 42 43 43 43 46 48 51 49 48 45 46 48
32 36 36 48 49 40 37 42 49 43 45 41 43 44 41 41 44 46 45 45 43 43 41 41 42 44 44 45 49 50 51 52 54 55 53 54 54 50 50 53 53 52 50 54
33 33 29 36 29 28 24 40 40 42 44 48 45 45 38 38 37 36 35 33 34 35 35 38 41 44 49 50 50 51 51 52 53 54 53 53 51 53 58 56 54 52 51 49
38 35 33 35 29 21 39 35 36 42 46 44 38 34 26 23 24 25 23 28 32 35 39 42 44 47 48 51 51 51 51 51 52 55 56 56 56 55 52 54 56 58 58 56
35 40 31 27 32 38 39 40 41 38 37 30 24 18 14 18 25 29 27 32 34 36 39 41 43 45 46 47 50 53 55 57 58 58 60 62 61 61 58 55 54 56 57 56
19 22 27 19 11 13 25 27 27 23 20 19 16 13 19 31 32 33 33 34 35 36 38 41 42 43 43 48 53 59 61 60 61 62 63 64 64 64 64 62 59 56 57 59
17 20 24 28 25 22 24 26 24 13 18 8 21 30 34 29 32 37 34 33 34 35 38 42 45 47 50 54 59 60 59 61 64 68 69 70 72 74 74 73 71 68 65 62
14 12 18 15 14 14 19 21 19 18 18 36 37 32 33 32 34 31 34 36 37 39 40 43 48 51 53 54 56 59 61 65 70 74 78 79 80 80 81 80 77 75 73 72
20 29 19 21 17 25 27 28 35 40 43 35 30 29 29 31 32 35 36 37 38 40 43 47 51 53 53 55 60 66 69 74 78 80 81 83 86 87 88 87 85 84 79 76
37 34 37 30 35 37 37 37 32 26 25 26 26 30 31 33 34 37 37 38 40 42 45 49 51 53 57 61 67 73 76 79 83 85 84 86 88 88 86 85 83 81 77 73
38 29 32 37 42 39 34 27 25 27 29 32 34 34 34 34 35 36 37 39 41 43 45 48 52 58 64 69 72 75 78 79 83 89 93 89 84 81 81 80 80 79 75 69
39 39 39 41 34 35 39 34 31 36 37 34 34 37 34 33 33 36 39 40 41 44 46 49 56 62 67 67 73 72 78 85 87 77 69 65 62 61 62 64 66 64 66 65

GFSCGP_700_spd_009.txt.gz
Wind_Speed
28 26 22 23 21 25 27 27 28 29 25 26 30 24 30 19 18 21 22 17 15 18 19 13 10 11 11 13 12 14 20 22 24 23 28 37 38 44 48 48 48 46 45 44
28 30 26 22 27 28 30 24 26 23 16 24 27 31 29 13 20 19 14 13 17 14 12 10 11 14 16 20 20 24 21 19 22 26 24 26 34 38 42 47 51 50 48 47
32 23 21 29 31 30 26 23 24 23 22 25 19 22 22 16 14 18 16 22 18 13 8 13 16 20 25 27 26 20 18 19 21 23 25 26 28 32 39 44 49 54 52 51
23 25 21 20 14 14 21 18 22 24 20 17 17 17 20 10 10 9 12 19 18 14 13 15 22 31 30 25 22 21 18 18 22 23 27 28 28 31 35 39 43 49 52 53
12 14 15 14 17 17 20 24 24 27 28 23 17 13 11 17 13 17 22 19 15 16 20 23 34 37 24 22 21 20 19 17 19 23 28 31 31 33 35 37 40 43 50 54
13 21 19 21 26 24 27 29 28 29 22 14 21 18 13 7 9 24 26 19 19 23 27 36 40 31 23 21 21 20 20 20 19 20 23 26 28 29 30 32 35 39 43 47
16 22 31 30 26 25 24 23 14 12 11 14 17 12 21 12 17 23 21 27 33 35 35 43 42 24 24 28 27 27 27 24 21 20 20 18 18 17 17 18 21 25 31 37
20 26 19 16 16 16 17 14 15 11 13 16 20 12 18 19 23 24 29 32 31 35 41 30 27 29 28 31 35 37 37 33 30 29 28 28 29 29 28 27 25 22 21 23
16 19 11 20 20 18 11 12 15 13 26 15 27 31 30 34 34 36 36 35 35 27 25 27 30 33 37 38 39 41 43 37 35 34 32 32 33 35 35 35 34 34 32 29
13 17 22 16 18 23 22 22 17 11 4 7 17 31 31 30 30 30 24 28 31 29 31 30 31 30 33 34 35 39 41 43 44 42 40 40 41 43 42 43 43 43 43 40
23 16 35 24 24 23 20 21 21 23 25 13 17 24 33 26 29 33 34 30 30 32 38 40 38 35 34 39 41 42 44 45 46 47 43 42 42 42 43 43 42 39 39 41
17 19 25 37 33 30 33 31 27 29 12 23 25 26 37 41 42 44 39 34 38 42 40 42 42 46 53 53 49 44 44 45 42 41 42 44 44 43 42 43 43 41 40 40
11 8 11 19 22 19 22 23 25 33 40 43 26 30 38 38 39 30 36 44 48 48 46 49 53 57 57 51 45 37 35 37 40 41 40 39 40 38 38 39 40 39 38 38
26 27 27 26 29 32 33 30 31 29 27 30 32 35 32 31 30 34 37 41 43 58 61 61 56 45 41 42 40 35 35 36 38 39 40 41 43 44 46 47 47 45 45 43
23 27 28 30 32 34 36 35 37 41 49 43 49 43 49 49 50 46 47 51 50 50 52 53 51 50 46 42 40 41 41 40 43 45 46 48 50 51 51 51 51 51 51 50
19 23 23 34 36 37 40 46 50 43 45 46 43 45 42 39 40 41 39 41 45 47 46 42 41 42 43 43 45 46 46 49 49 48 48 49 51 52 53 55 57 57 57 57
27 27 26 35 30 30 28 46 38 41 41 40 41 40 39 39 42 45 45 44 37 34 34 33 35 37 41 44 47 51 50 47 47 48 50 51 53 56 58 58 58 58 58 59
38 32 25 33 28 20 39 28 27 32 37 39 42 44 42 36 33 38 35 29 29 29 31 35 38 40 43 46 49 51 51 50 50 52 55 58 60 61 61 62 62 60 59 60
25 26 23 21 30 33 40 35 37 33 39 33 34 33 28 23 25 28 19 23 32 33 35 37 42 45 47 47 47 49 52 54 57 60 62 61 62 64 67 69 68 66 66 65
16 20 25 25 19 17 30 23 24 28 29 28 27 22 18 23 30 30 24 31 36 38 38 39 43 44 46 46 48 51 53 57 61 64 68 69 69 71 72 75 78 79 79 78
17 19 27 31 31 29 28 28 25 15 26 21 17 18 27 37 37 38 39 36 34 34 38 38 42 43 45 49 52 53 56 59 64 68 72 75 79 81 82 82 84 86 86 85
17 15 19 15 15 16 21 21 17 18 21 25 25 34 44 40 40 35 32 32 34 36 38 40 42 44 45 48 51 54 57 61 67 72 76 78 81 84 85 85 85 87 90 90
18 30 23 21 20 22 27 29 37 38 39 41 44 40 36 35 32 32 32 34 35 38 40 42 43 43 43 48 51 56 60 67 72 74 77 79 80 83 88 91 90 88 87 89
31 34 29 33 36 37 31 32 32 31 29 29 26 28 29 32 36 37 36 35 37 39 40 41 42 44 47 50 54 60 67 70 72 74 73 80 81 86 79 71 68 68 69 69
34 24 33 30 39 38 34 29 26 30 31 31 33 34 34 34 36 37 35 35 37 38 39 40 41 47 50 54 60 65 64 68 68 71 75 79 81 68 61 58 56 56 55 56
41 44 40 42 39 37 35 29 31 35 36 37 35 35 36 36 33 35 34 35 37 37 38 39 44 49 54 60 62 59 62 61 65 71 75 77 61 52 48 47 47 43 42 43

GFSCGP_700_spd_015.txt.gz
Wind_Speed
17 21 21 17 20 21 16 18 22 24 22 28 26 24 21 24 10 20 23 26 25 27 29 26 11 11 12 13 12 12 14 13 13 14 14 17 19 21 22 26 32 39 43 45
26 27 22 18 18 19 20 26 29 28 23 18 20 25 28 21 22 19 24 28 30 27 22 16 12 9 6 8 9 12 14 16 15 15 16 17 18 20 23 24 25 27 31 35
30 24 19 18 17 20 24 25 27 24 15 19 25 28 22 21 27 25 27 27 31 30 20 18 15 10 10 12 15 16 17 17 18 18 18 17 17 19 22 23 24 24 25 28
21 18 16 16 26 25 28 24 15 13 16 16 12 12 23 15 17 24 27 27 28 29 21 19 15 14 15 17 19 21 20 19 19 19 16 17 17 15 16 19 22 23 24 25
14 7 9 11 9 5 8 9 12 16 20 22 20 13 15 22 20 21 24 24 25 25 22 21 17 17 20 21 21 14 14 15 16 18 20 20 19 19 18 17 17 18 18 19
14 16 12 11 8 10 12 14 14 18 19 5 14 15 16 10 13 17 20 25 28 23 21 22 21 22 22 22 21 19 19 19 22 25 27 29 29 27 26 27 26 24 23 22
3 7 11 13 13 15 15 12 4 1 4 7 12 7 20 17 15 16 19 19 21 24 24 25 26 25 21 18 17 19 22 25 28 28 29 29 27 27 29 30 31 33 33 32
13 12 12 13 15 12 12 13 7 5 3 4 16 11 16 20 18 13 15 19 21 22 24 25 25 25 22 20 21 24 28 31 31 33 36 39 40 40 37 35 33 32 34 37
12 12 15 21 16 14 10 16 16 14 16 7 13 17 25 26 26 21 15 19 21 22 23 22 20 21 24 30 31 32 34 34 34 38 40 41 44 48 48 46 41 37 33 34
15 13 18 23 23 15 14 13 8 7 2 4 9 16 18 9 15 14 12 15 18 24 29 30 29 28 28 29 32 33 32 36 40 42 45 47 44 44 46 45 43 40 38 36
20 19 15 17 14 14 13 17 18 17 18 4 2 10 14 13 14 21 25 28 30 28 21 21 23 27 28 30 34 39 44 48 46 41 41 41 42 42 44 44 41 39 40 39
23 15 22 29 22 14 18 21 20 15 9 16 19 24 34 27 27 23 25 30 29 23 25 31 39 48 52 48 41 40 43 40 43 43 43 42 42 41 40 40 40 41 40 40
24 15 15 17 18 15 21 22 17 15 19 26 16 23 29 29 32 31 40 41 44 45 51 51 46 44 43 41 38 39 40 38 36 34 34 34 33 36 39 41 41 41 42 43
23 25 23 22 13 7 11 16 18 27 18 22 30 37 42 42 46 48 50 51 46 40 39 38 39 39 40 40 42 37 33 32 31 29 30 32 34 36 38 40 43 46 49 50
22 28 27 30 31 32 34 37 42 38 39 30 47 41 49 49 49 47 43 40 36 36 41 43 42 42 39 34 30 29 29 30 30 33 35 36 37 37 39 41 43 45 47 50
28 28 25 31 32 32 34 39 39 40 44 47 49 49 37 35 34 35 36 36 39 41 40 42 44 44 39 36 32 31 34 35 37 39 39 39 39 41 43 45 47 49 52 55
24 21 17 27 27 22 22 43 40 38 34 33 34 31 26 30 33 36 36 39 42 43 39 37 37 34 33 34 35 37 38 39 41 42 40 41 43 45 46 49 52 56 60 63
34 33 25 21 18 3 34 29 24 24 22 22 23 28 34 38 40 40 38 36 36 37 31 27 27 30 36 39 39 37 37 38 40 41 44 44 45 47 50 55 59 62 65 67
35 33 19 12 20 20 29 26 22 26 33 37 37 38 36 37 36 36 34 32 30 29 28 30 33 36 38 37 37 37 39 40 41 43 44 44 46 51 57 64 66 66 67 67
24 30 30 20 9 10 22 20 16 18 34 39 33 28 27 28 29 29 26 28 32 34 37 39 42 42 37 35 37 39 41 42 44 45 44 46 52 57 64 67 66 66 64 65
21 23 35 37 20 16 27 25 22 15 33 26 23 25 29 26 27 30 34 37 39 42 45 47 38 30 32 35 38 41 42 43 44 44 45 50 56 62 65 66 62 64 66 68
21 18 26 30 17 14 18 16 21 27 29 28 29 30 32 36 40 44 43 41 39 37 35 33 34 35 37 39 41 42 42 43 44 45 49 54 59 62 62 59 60 62 68 72
24 37 21 21 14 20 20 26 32 30 33 35 34 35 36 36 37 39 37 35 37 36 37 37 37 38 40 41 40 40 41 41 42 46 50 56 60 60 55 57 59 62 69 60
34 34 36 36 39 37 30 32 27 29 31 28 32 34 34 35 36 35 36 36 36 38 38 39 38 39 38 38 38 39 39 39 43 46 52 56 59 52 52 54 58 62 63 51
37 34 36 32 38 40 35 28 28 26 26 27 28 31 34 36 39 39 39 38 38 39 40 39 39 37 36 37 37 37 38 39 42 47 52 57 52 49 50 51 56 60 58 47
37 42 41 46 43 35 33 32 29 31 31 31 33 34 35 39 42 39 37 39 37 35 36 36 37 37 37 37 34 36 37 40 44 49 53 53 47 47 48 50 54 52 54 42

GFSCGP_700_spd_018.txt.gz
Wind_Speed
18 21 23 19 15 15 19 22 22 25 19 24 27 32 26 16 21 17 22 24 28 29 25 22 23 15 11 11 13 11 9 7 9 10 12 13 14 15 17 19 23 26 27 30
25 25 22 19 22 24 24 23 25 24 19 26 26 21 17 19 19 22 24 24 28 29 25 21 20 14 12 11 10 9 9 9 10 11 11 13 16 18 20 20 20 21 23 24
31 26 19 18 17 20 22 24 26 26 24 24 23 27 21 21 25 19 22 25 23 26 25 22 18 17 15 12 11 12 12 12 11 10 11 12 12 15 17 20 21 21 21 22
20 19 21 24 27 26 30 27 28 30 18 12 12 9 15 23 15 21 23 23 21 22 25 24 20 19 16 13 13 14 15 16 14 13 13 11 12 13 15 17 19 22 25 24
13 9 8 15 13 15 13 6 7 10 15 20 20 16 13 11 19 20 22 22 22 24 25 23 21 20 17 15 13 14 14 13 12 13 14 16 17 19 20 21 22 26 27 27
13 17 13 12 13 10 8 10 12 15 17 6 20 19 7 7 6 11 15 21 23 26 24 21 21 20 18 18 17 14 13 13 13 13 13 14 16 18 19 22 24 26 29 31
7 9 8 11 16 15 15 12 4 4 2 6 11 14 26 11 13 7 10 18 25 25 22 20 20 20 20 20 17 17 16 16 19 20 19 22 25 26 27 29 32 34 34 34
10 10 18 20 22 21 20 20 13 7 4 5 12 10 8 10 13 14 13 20 22 20 17 19 18 20 22 21 21 21 23 26 27 29 32 33 36 37 39 39 39 41 41 38
11 16 22 22 20 25 18 25 25 17 18 7 11 18 22 23 22 24 13 13 15 17 17 15 17 24 29 30 28 30 33 34 37 37 38 40 41 43 45 47 48 47 42 40
19 18 19 18 19 19 20 14 10 10 2 4 8 12 18 10 9 10 9 11 12 14 18 24 26 27 28 31 34 36 38 39 42 47 49 50 51 51 53 53 51 47 43 41
26 26 17 19 25 26 26 27 20 17 19 5 2 11 11 12 13 12 13 17 21 21 24 25 28 31 35 34 35 42 47 45 40 40 43 45 46 45 43 43 42 43 44 42
25 17 24 29 20 19 22 24 25 24 10 21 19 25 22 19 20 23 21 23 28 31 37 43 46 45 42 44 39 37 35 35 40 44 45 44 41 38 37 38 38 40 42 43
29 19 16 16 21 25 24 31 30 30 26 26 10 17 19 20 24 28 29 32 40 42 44 45 43 38 37 35 34 34 36 39 39 37 36 35 35 35 35 35 36 39 42 45
30 31 30 27 18 12 16 33 25 17 12 17 29 27 30 30 32 38 42 43 45 45 39 36 34 31 33 34 36 35 35 33 31 29 29 29 31 33 35 38 41 43 43 45
29 34 35 35 36 29 29 31 30 31 35 26 43 39 46 45 44 44 46 45 40 39 37 35 34 35 36 37 34 30 27 28 27 28 30 33 35 38 38 37 38 40 42 45
28 27 25 30 28 30 37 43 41 42 44 49 47 49 42 41 39 38 35 39 39 38 38 38 36 35 33 32 29 25 25 29 32 35 36 38 38 36 36 38 41 43 46 49
31 31 29 30 32 27 27 45 43 43 42 40 37 37 28 30 31 31 30 33 35 38 39 32 32 32 30 27 26 29 33 34 35 36 37 38 37 38 40 41 42 45 49 54
31 28 25 17 17 3 36 38 36 36 34 32 29 27 25 26 29 34 36 34 34 34 33 30 28 27 27 30 32 34 33 32 34 36 37 38 40 41 42 42 45 50 56 61
33 32 19 12 23 29 32 32 28 21 32 30 26 26 27 34 35 34 31 30 30 28 27 27 29 32 34 36 35 32 30 33 35 37 40 42 44 44 44 46 51 57 62 66
43 42 35 26 8 10 31 25 21 26 31 32 29 32 29 30 28 29 26 26 26 26 29 34 40 40 39 37 31 29 33 36 40 42 41 42 43 43 45 49 54 60 65 62
22 27 37 40 19 20 30 28 26 18 31 26 27 32 26 27 29 29 30 31 35 38 41 40 34 32 30 30 33 35 37 40 42 41 41 42 41 42 45 51 56 61 58 54
30 20 27 23 12 16 36 28 32 33 25 30 33 29 28 31 31 33 36 38 36 34 35 33 33 32 33 36 37 38 40 42 41 41 41 39 40 43 48 52 58 56 51 53
29 38 28 23 17 22 15 14 17 28 33 31 31 29 31 32 35 36 37 36 35 34 34 35 34 35 36 36 39 40 41 40 40 41 40 39 41 46 49 53 55 50 49 52
35 35 32 32 36 33 29 34 38 35 32 27 26 29 32 33 34 34 33 33 36 37 37 37 37 36 36 38 39 40 39 38 40 41 40 40 44 47 49 53 51 49 49 52
34 35 39 34 35 34 34 34 33 25 24 26 28 30 31 31 33 32 35 36 40 42 41 39 37 36 37 38 38 39 40 40 41 39 39 41 45 48 50 53 49 47 48 50
41 45 40 36 26 30 31 29 22 24 28 30 30 32 33 32 34 36 38 39 40 40 39 39 37 36 38 39 39 38 39 41 39 38 40 43 46 47 51 53 48 42 47 46

GFSCGP_700_spd_021.txt.gz
Wind_Speed
21 23 24 19 16 16 17 20 20 23 22 27 28 27 24 24 24 21 19 19 23 26 26 23 21 20 16 10 10 12 11 9 8 7 7 7 7 8 8 9 11 13 16 18
25 27 21 19 20 21 22 24 29 27 21 26 25 29 29 19 19 19 20 25 25 26 27 23 19 16 15 14 12 10 9 8 8 8 7 8 10 10 11 12 12 12 12 13
31 26 17 19 20 24 26 26 25 25 25 26 30 35 26 20 20 20 26 23 24 23 22 20 18 17 16 16 15 12 10 10 9 8 9 8 8 8 9 10 12 14 15 16
24 26 26 27 28 25 26 26 26 27 26 23 14 8 9 18 21 21 22 23 21 18 17 18 20 19 18 18 17 15 14 14 14 10 10 10 9 10 12 14 15 16 17 19
14 13 12 16 16 21 25 19 13 11 13 16 17 14 10 9 17 24 21 20 19 18 17 19 20 20 20 19 18 17 17 18 17 13 12 13 12 13 14 16 17 18 19 21
18 18 17 15 12 14 12 12 11 13 16 6 24 22 7 8 13 17 14 14 17 19 20 22 22 21 21 18 18 18 17 17 16 16 15 16 17 18 19 20 22 24 26 27
12 15 14 16 15 17 19 13 3 3 2 6 9 14 24 13 14 13 11 13 16 20 22 23 21 19 18 17 18 18 19 20 21 21 23 24 26 28 30 30 30 31 31 32
10 8 16 16 20 18 25 25 11 7 3 4 7 10 10 11 21 18 16 21 19 22 22 19 18 16 15 14 18 22 25 25 27 31 35 41 44 42 41 40 38 38 41 39
8 12 14 18 18 24 21 31 28 19 15 8 13 20 23 16 20 19 20 25 20 15 13 12 10 13 16 20 23 26 30 32 34 38 42 44 44 43 42 43 45 46 48 47
16 18 22 20 22 23 29 21 12 13 2 4 8 13 19 16 14 17 16 12 13 11 10 12 15 19 22 25 28 30 34 38 41 43 44 46 45 45 46 48 47 48 45 43
19 21 18 18 24 28 27 29 21 18 21 5 2 13 14 14 17 15 15 13 13 15 16 19 24 28 33 37 38 37 38 40 44 46 46 44 44 46 46 45 44 43 42 41
20 14 20 30 23 24 30 32 31 27 14 14 15 32 21 20 16 16 15 19 18 20 24 29 35 41 40 38 36 36 37 36 37 38 40 41 44 44 41 39 38 37 38 39
22 17 15 14 21 25 29 35 36 37 33 29 14 20 22 24 15 20 23 26 29 31 36 41 43 39 35 33 33 33 34 34 35 36 36 35 35 33 32 34 35 37 38 41
29 31 27 28 19 9 24 34 37 35 28 31 38 37 30 31 33 31 31 35 41 42 41 38 34 33 34 32 31 34 35 34 32 32 33 32 31 32 33 34 36 39 40 40
30 36 35 37 40 40 38 37 36 35 38 30 33 33 36 35 37 42 44 42 43 40 32 33 37 36 36 37 35 35 34 33 31 31 30 31 33 35 36 37 37 36 37 39
37 37 34 39 42 43 43 44 38 40 37 38 40 49 47 47 47 45 43 39 34 33 39 38 39 37 38 35 33 33 32 30 29 31 33 34 36 37 37 35 35 37 39 41
30 34 35 33 32 30 32 51 47 45 46 46 44 46 41 38 36 34 32 36 37 38 41 43 41 37 33 33 32 30 28 29 31 34 36 37 36 35 36 38 40 40 40 42
35 34 30 17 16 9 34 36 37 37 37 37 39 34 30 30 32 35 35 35 37 43 41 39 36 32 27 24 26 30 33 34 36 35 35 34 35 38 40 40 40 40 41 44
39 38 28 15 20 29 31 28 29 28 41 39 32 29 29 31 34 36 33 39 39 37 34 33 30 28 27 30 35 38 36 36 35 32 33 36 39 40 40 40 40 40 43 46
38 35 33 27 8 10 36 31 31 28 34 32 29 25 26 29 33 37 35 35 32 32 31 30 30 33 36 40 38 34 32 30 31 33 36 39 41 40 40 39 39 41 45 48
33 39 38 38 22 32 39 35 31 16 29 27 25 27 28 31 36 40 36 32 30 31 32 35 38 36 34 34 32 31 32 33 34 35 37 39 38 39 40 39 39 43 47 50
31 23 31 27 15 18 38 27 30 31 27 26 27 31 34 41 40 35 34 33 33 35 35 36 35 32 31 32 33 33 33 34 36 38 39 38 37 39 38 38 41 45 49 52
35 41 32 31 25 24 13 12 14 21 27 29 30 36 38 38 36 34 35 35 36 35 33 32 33 34 33 33 34 34 34 35 37 38 38 37 38 39 38 38 42 46 49 52
36 38 40 40 42 35 26 21 26 29 31 32 34 34 35 35 34 35 36 36 36 32 32 33 36 37 36 34 35 34 35 36 38 38 39 40 40 40 38 40 43 47 51 52
33 35 40 40 37 32 29 25 20 22 28 33 36 33 32 34 37 38 36 35 33 35 37 38 38 37 36 35 36 36 37 38 39 39 40 40 41 39 39 40 44 48 51 54
42 45 45 39 34 30 23 20 23 28 30 30 31 32 33 34 37 39 40 38 35 39 40 40 39 39 37 38 38 39 40 39 38 40 40 40 38 39 40 42 46 49 52 52

GFSCGP_700_spd_024.txt.gz
Wind_Speed
22 24 26 20 15 14 18 20 20 20 19 24 25 27 27 25 28 28 30 24 20 20 23 24 21 18 15 13 11 10 11 11 11 11 10 9 8 7 8 8 8 6 7 7
26 28 21 19 19 21 22 22 26 24 24 27 26 29 28 29 30 28 24 20 21 24 27 23 21 16 14 14 13 12 11 11 11 11 11 10 9 11 10 9 9 9 9 9
30 24 19 20 22 25 26 27 27 26 24 26 30 36 31 28 25 22 23 22 23 26 24 22 19 15 13 13 14 14 13 12 11 11 13 14 13 11 11 11 12 13 14 14
27 29 31 32 34 30 30 28 24 22 21 20 14 7 7 9 13 18 22 23 25 24 20 17 16 15 15 15 16 15 14 14 13 13 12 14 14 13 13 12 13 15 16 18
27 20 18 22 24 25 23 23 19 20 19 18 18 12 10 9 11 15 18 24 25 21 18 16 16 17 16 18 18 17 16 16 17 18 16 15 14 15 15 17 19 20 22 23
29 24 18 16 14 16 17 15 14 11 12 7 25 22 9 15 11 13 20 22 19 18 17 18 19 20 19 19 19 16 16 16 17 17 18 18 18 23 25 28 31 33 34 34
20 21 22 18 14 15 16 12 2 3 3 6 9 15 26 13 12 11 15 16 16 18 19 20 23 20 19 17 17 16 16 17 18 20 23 24 27 30 35 36 35 34 34 34
15 8 18 19 22 14 18 22 9 6 3 4 3 9 6 8 14 14 16 18 21 20 22 23 21 18 16 16 16 15 18 19 20 26 30 34 37 37 38 38 38 38 38 36
13 12 15 17 15 20 15 24 25 15 16 8 10 15 16 18 20 16 16 20 24 24 22 18 16 15 14 14 15 17 23 28 33 36 38 39 40 40 41 40 41 41 40 39
16 8 14 16 20 22 29 17 12 15 2 5 7 11 14 10 14 16 17 18 23 24 18 16 16 15 14 16 22 27 32 35 36 37 37 38 39 40 42 43 44 45 44 41
28 21 10 18 22 27 25 27 20 18 17 5 3 9 5 10 12 8 11 19 19 17 17 16 17 19 22 28 32 36 37 36 36 37 38 40 42 43 44 44 45 44 41 38
33 15 19 28 25 21 24 28 28 28 13 12 9 33 24 27 27 20 17 19 19 18 20 22 24 28 34 38 39 38 35 35 38 39 39 40 42 42 40 39 37 37 36 38
27 20 12 8 18 24 31 34 35 37 34 31 13 22 19 20 22 19 20 22 23 24 27 30 34 39 40 38 31 31 33 35 35 36 38 39 37 35 34 34 33 34 36 38
26 29 24 22 13 9 26 33 39 39 30 29 40 42 41 33 27 30 32 33 31 32 35 40 42 39 34 30 31 32 33 34 36 37 37 36 34 33 32 32 34 37 38 40
30 33 33 35 35 33 34 38 34 35 36 34 41 41 40 39 37 35 34 34 38 42 43 40 34 29 31 32 34 34 33 34 36 36 35 33 31 33 35 36 38 40 40 38
33 28 26 30 32 35 39 46 45 44 39 42 45 51 46 43 39 40 45 43 41 40 34 28 28 32 34 39 38 35 34 34 35 34 32 32 34 36 39 39 39 37 38 39
33 29 23 27 30 31 34 47 50 49 48 47 46 51 44 41 41 37 37 35 32 30 29 31 33 37 40 38 35 34 32 32 31 30 35 38 39 40 39 36 37 39 40 39
26 22 24 17 19 9 29 36 32 22 25 32 38 37 34 30 31 32 30 32 34 34 33 34 38 41 38 35 32 28 29 29 33 37 38 38 39 37 35 38 40 41 40 38
27 28 23 16 25 28 37 31 28 28 31 28 27 38 36 35 32 31 31 33 32 33 34 38 40 37 35 31 28 28 32 36 39 36 36 37 35 34 37 40 42 41 39 39
38 36 33 19 6 7 34 32 25 29 35 41 35 31 24 22 28 29 27 31 33 35 39 36 33 32 31 29 32 36 36 33 32 32 31 33 34 36 40 41 41 38 39 39
32 32 35 34 22 24 36 37 33 18 31 30 23 18 21 25 25 28 32 35 37 41 35 32 31 30 31 33 33 32 29 29 29 31 33 33 35 38 39 41 37 38 39 39
27 20 27 28 16 18 30 27 32 32 23 20 20 21 25 30 32 36 38 41 41 39 34 31 32 33 33 32 30 29 30 30 32 33 33 35 37 40 41 39 38 39 38 38
26 38 28 26 22 27 21 13 11 10 16 25 28 30 33 34 36 39 40 40 40 36 32 32 33 33 32 32 31 31 31 32 33 33 35 36 37 40 39 40 40 40 38 39
33 35 40 40 43 40 34 25 28 29 24 28 30 31 31 33 35 37 40 37 35 34 34 32 33 35 35 34 33 34 35 33 33 35 37 38 39 39 40 39 38 39 37 39
31 35 39 40 38 35 30 27 24 25 28 26 25 29 30 33 33 35 36 37 37 38 37 35 36 38 38 35 35 37 36 34 35 37 39 41 41 40 41 39 39 36 37 41
40 44 42 31 26 23 25 24 22 24 24 25 28 28 30 33 33 33 35 39 42 41 40 39 39 40 38 36 38 39 37 36 37 39 40 41 39 40 40 38 37 38 40 44

GFSCGP_700_spd_027.txt.gz
Wind_Speed
21 23 25 19 16 16 18 19 21 20 18 20 22 23 24 26 29 29 27 24 24 20 18 19 21 17 14 10 8 8 9 10 9 10 12 12 10 9 8 8 7 5 4 4
25 29 20 19 20 21 22 21 25 22 23 25 26 30 29 28 32 30 29 26 23 17 18 20 20 17 13 11 9 9 10 9 10 10 10 9 8 9 10 8 8 7 7 7
30 23 19 20 22 24 26 27 27 24 24 27 30 36 32 27 26 27 28 27 22 19 20 21 19 16 13 10 9 10 11 11 11 11 10 11 11 11 12 12 10 10 9 9
25 30 31 31 31 29 31 27 23 22 21 18 13 9 12 15 9 12 14 16 18 20 21 23 19 16 13 12 12 13 13 15 12 11 11 12 13 12 12 11 11 11 12 15
30 26 22 25 28 28 29 26 22 18 16 21 24 13 6 10 13 14 15 16 18 20 23 21 20 18 15 15 16 16 15 17 15 13 13 12 11 12 12 14 18 21 25 28
37 35 30 26 23 17 16 16 13 13 14 6 22 21 5 8 7 12 12 15 19 20 20 19 19 18 17 17 17 18 18 16 16 15 14 15 16 20 23 27 31 34 34 33
30 33 32 29 22 19 20 17 4 2 3 6 11 14 25 12 11 11 13 16 18 18 19 19 21 18 18 17 18 20 19 18 16 17 17 18 23 26 31 33 34 35 35 35
17 10 28 26 30 21 26 26 8 7 4 3 9 11 7 13 16 16 15 16 15 17 19 22 19 19 19 19 20 21 19 18 18 18 23 27 31 34 36 35 35 35 35 36
15 16 15 21 25 27 23 30 25 5 5 3 9 11 14 15 15 14 16 17 17 19 20 25 26 27 22 21 22 20 20 20 23 27 30 33 35 34 34 36 37 38 39 38
20 8 17 27 21 30 25 15 13 13 1 4 6 14 14 15 14 12 11 13 17 21 23 26 28 24 22 23 22 20 21 26 30 33 34 33 33 34 35 37 38 39 39 40
36 21 12 24 28 30 32 28 16 11 10 5 2 5 6 15 9 6 10 14 20 22 25 26 25 24 24 23 23 27 31 35 37 36 37 37 36 35 36 38 39 39 39 38
40 20 24 27 24 31 32 33 34 24 10 14 9 15 16 13 14 15 16 15 20 22 23 23 22 22 22 25 31 35 37 38 39 37 37 36 36 37 37 38 38 37 37 37
34 23 17 11 22 27 33 37 34 34 32 31 11 9 16 13 17 22 28 17 16 19 22 23 26 26 32 36 39 41 39 34 34 35 36 36 36 36 37 36 35 35 35 35
32 37 34 31 20 24 38 37 35 35 31 28 39 38 31 32 33 34 23 23 25 27 27 28 30 33 37 41 41 35 30 31 34 35 35 35 35 36 35 34 33 34 35 36
43 40 43 43 31 27 24 23 28 36 37 33 40 38 39 38 37 34 33 33 33 29 29 33 38 39 39 37 30 28 31 34 35 35 35 34 34 33 31 32 34 36 39 40
50 38 46 39 37 37 37 41 39 34 36 38 40 47 41 41 42 43 38 34 32 35 40 40 36 35 31 27 28 32 34 33 34 34 33 33 29 29 32 35 37 39 40 39
53 48 31 24 35 37 31 52 45 44 42 41 45 46 41 38 34 30 32 36 39 39 34 31 29 27 27 29 33 36 33 31 33 32 31 31 30 33 35 37 39 39 38 40
49 44 38 17 19 8 25 33 22 24 27 30 30 25 22 23 26 30 32 34 33 35 29 28 28 30 32 35 37 36 33 28 28 30 30 32 36 37 36 38 39 39 41 42
37 39 19 13 25 23 23 25 21 19 26 20 20 26 26 25 29 32 32 34 28 27 28 30 32 33 36 38 35 32 29 26 27 30 35 38 38 37 38 39 40 40 43 43
32 34 33 17 7 10 23 16 16 22 32 26 22 22 22 23 29 26 26 24 25 27 27 29 34 36 39 33 30 28 27 29 32 33 33 33 33 33 34 37 39 41 42 43
32 28 33 25 14 13 28 28 20 15 24 21 18 19 21 21 17 19 22 23 26 30 30 33 36 33 30 28 27 28 29 29 27 28 29 30 31 33 35 37 39 41 43 43
24 19 21 22 13 14 28 28 26 22 19 19 17 15 17 18 25 27 27 28 29 30 33 33 32 30 26 27 29 28 27 27 28 28 29 30 31 33 35 38 39 40 43 43
20 28 20 21 18 22 16 12 13 15 16 19 21 22 28 29 28 28 28 26 28 31 31 30 29 27 28 29 29 28 27 29 29 29 30 31 33 34 37 38 40 41 41 42
25 28 31 32 34 32 23 19 22 21 21 23 22 25 27 28 28 26 25 26 29 30 30 28 29 30 30 30 31 31 31 31 30 31 33 33 33 36 38 40 41 43 42 43
26 27 33 36 35 29 28 23 20 20 22 23 24 25 26 25 25 25 26 27 29 28 27 29 31 31 31 31 31 33 34 33 33 35 35 33 34 36 39 41 42 42 41 40
35 40 35 26 20 18 18 18 18 20 24 25 23 23 26 28 28 26 24 27 29 27 28 30 33 34 32 30 31 33 33 34 35 35 32 32 35 38 40 42 41 40 40 39

GFSCGP_700_spd_030.txt.gz
Wind_Speed
23 23 26 20 17 20 19 21 22 22 18 19 20 22 21 24 25 26 28 29 28 25 22 20 18 16 15 12 13 12 10 11 11 11 12 12 13 14 13 10 9 8 7 7
23 27 20 19 22 22 24 23 25 24 23 23 25 29 27 30 31 32 31 30 28 26 23 18 17 16 15 13 13 11 10 11 11 12 12 12 13 12 11 11 10 9 8 8
27 23 20 21 25 25 27 26 26 24 25 27 28 33 31 30 30 29 30 31 29 26 22 18 18 17 15 14 12 11 10 11 11 10 11 12 12 11 11 11 11 10 10 10
25 30 30 30 30 26 28 29 27 26 23 16 13 10 16 20 19 18 13 14 16 18 18 19 18 16 15 14 13 12 11 12 13 13 13 14 13 12 12 12 12 12 14 15
26 26 27 28 31 27 29 27 25 23 23 23 20 12 16 17 17 15 16 15 15 16 18 19 19 18 16 16 15 13 13 14 15 17 17 16 15 15 15 16 17 20 23 26
37 36 33 31 28 25 26 20 19 14 14 12 25 21 10 18 16 17 18 18 17 16 18 19 20 19 18 18 18 17 17 18 19 19 20 17 16 18 20 22 25 28 31 34
38 38 35 34 30 26 23 16 5 5 6 6 11 15 19 13 15 16 18 18 17 18 18 19 19 18 19 19 19 20 20 21 21 21 21 20 21 22 24 28 32 35 36 37
18 13 24 30 35 27 29 23 9 7 6 2 11 10 11 24 21 18 17 18 19 18 17 18 17 17 18 20 22 22 23 24 22 24 25 25 25 28 31 34 37 37 37 37
14 18 19 23 26 31 25 31 27 7 7 3 10 14 13 17 22 20 20 22 22 18 19 20 20 20 23 23 25 25 26 26 25 26 26 26 29 32 37 39 39 37 38 38
23 16 17 24 24 30 26 23 16 14 5 6 7 10 15 24 24 24 25 22 21 21 21 20 20 23 24 28 29 28 29 26 25 25 28 32 36 37 37 37 36 38 39 39
34 25 17 24 33 36 33 27 21 16 18 4 4 7 6 19 19 23 21 21 19 18 18 21 22 23 25 28 29 30 28 26 27 32 37 39 39 37 36 36 37 38 38 38
34 21 26 31 28 38 39 33 42 22 11 18 15 15 12 16 25 24 20 19 19 19 18 20 22 23 25 27 28 27 28 30 36 41 41 38 36 34 36 36 36 37 38 38
31 25 21 17 27 32 42 44 43 44 26 30 13 11 18 22 25 22 20 21 18 18 19 20 22 23 24 26 27 30 34 38 41 42 38 34 33 36 36 37 37 37 37 36
36 38 36 37 25 29 45 48 50 48 34 34 46 28 23 27 26 24 29 27 28 22 21 23 24 26 29 30 32 36 40 42 41 35 33 34 36 35 37 37 36 36 35 35
46 47 47 52 44 36 33 38 52 57 60 33 41 44 41 36 34 31 30 32 30 29 27 28 27 29 30 33 39 40 40 38 32 32 35 35 36 37 37 35 35 33 34 36
53 50 45 52 52 47 44 42 40 44 56 59 42 47 35 34 33 36 36 35 34 33 28 27 28 32 37 37 34 36 37 31 33 35 35 35 37 36 34 33 31 33 35 38
56 55 40 39 47 43 36 63 49 47 47 48 48 51 45 41 37 35 36 36 34 30 28 31 35 34 33 32 33 33 32 34 36 35 34 35 35 34 33 32 33 36 38 39
59 62 46 31 29 12 44 35 43 58 53 51 53 54 46 39 33 33 30 29 30 30 33 33 31 30 30 29 29 32 35 37 36 34 31 30 32 32 33 36 38 39 40 41
54 59 36 22 28 16 30 34 32 36 39 37 29 28 27 27 29 29 29 29 28 30 31 33 32 27 27 29 32 34 37 37 34 30 27 28 30 34 38 40 39 39 40 41
44 50 48 17 11 11 28 25 19 19 25 23 23 22 23 26 29 29 26 28 29 30 28 25 26 28 29 33 37 38 36 32 29 26 27 31 34 35 35 35 37 38 39 41
37 38 42 32 15 12 17 12 19 17 12 10 12 16 20 22 22 22 25 25 25 24 25 26 29 31 33 35 35 32 29 26 25 27 28 29 30 31 32 34 36 38 40 42
38 28 26 22 14 14 20 22 22 16 11 15 14 12 12 16 18 18 19 23 25 25 26 28 30 31 31 32 30 25 24 23 26 27 28 29 29 30 31 33 36 38 39 41
20 27 18 17 18 16 7 12 16 17 10 9 14 19 19 21 21 23 23 23 24 26 27 29 29 29 29 26 22 22 22 24 25 27 28 29 30 30 33 36 37 38 40 41
20 21 20 19 22 23 19 16 12 13 15 17 22 23 24 22 21 23 24 25 24 24 25 26 27 28 25 21 22 23 24 26 27 27 28 29 31 33 35 36 36 36 38 41
24 23 26 29 27 15 13 11 10 16 20 21 23 23 22 24 25 25 25 24 22 22 22 23 25 27 25 24 26 27 28 28 29 30 32 32 34 35 35 34 34 36 39 41
28 30 28 21 11 8 9 13 18 21 22 22 23 25 26 26 25 25 25 24 23 23 25 27 28 28 27 29 31 31 30 29 29 31 34 35 36 35 33 34 37 37 39 41

GFSCGP_700_spd_033.txt.gz
Wind_Speed
27 26 30 24 22 20 18 15 17 14 20 20 22 24 20 25 25 27 28 30 30 29 27 25 23 21 19 16 15 13 12 12 12 12 12 13 14 15 16 17 15 14 15 13
27 30 23 20 21 21 22 21 23 18 24 24 25 29 30 28 35 31 33 36 34 31 30 26 22 20 19 18 17 15 15 14 12 11 12 13 14 15 16 14 15 15 13 13
27 19 20 24 25 25 26 23 22 19 21 24 27 35 36 32 35 41 37 37 36 34 32 28 24 22 21 18 17 15 15 15 13 12 12 14 15 16 16 15 15 16 15 15
25 26 30 27 26 24 22 21 24 25 17 19 13 15 18 15 25 27 27 30 30 32 31 28 25 22 20 18 17 16 17 16 13 11 12 15 17 18 18 18 17 17 17 18
23 27 27 31 32 27 22 23 25 24 21 20 24 16 23 21 31 31 29 26 24 22 22 22 23 22 20 19 17 16 17 16 15 13 13 16 17 18 20 21 20 21 22 24
34 29 29 27 28 25 26 23 22 21 13 13 26 26 18 22 21 21 23 24 22 19 16 17 18 19 19 18 17 17 17 17 16 16 17 19 20 22 23 24 25 27 28 30
32 43 42 38 35 29 25 15 6 6 7 8 12 20 27 14 21 21 23 23 21 19 17 17 17 18 18 17 17 17 18 19 20 20 22 23 24 24 25 27 29 30 32 34
22 15 31 34 36 23 23 25 11 6 6 4 11 12 13 22 31 23 19 22 21 21 20 19 19 18 18 18 18 19 20 22 23 24 25 26 27 28 29 30 32 34 36 39
20 16 18 16 17 26 15 27 26 17 17 5 12 15 18 18 22 30 26 25 21 20 19 19 18 18 18 18 20 22 24 24 26 29 29 30 29 30 32 34 36 38 40 41
17 10 16 20 21 25 26 15 14 15 5 8 13 21 21 18 29 31 30 29 24 23 22 22 21 21 20 22 24 26 27 30 31 32 32 31 32 32 34 38 38 39 39 39
31 24 18 21 27 31 33 26 19 17 20 5 6 14 17 25 19 29 31 29 27 25 24 23 24 24 26 28 28 29 31 33 33 33 33 32 33 36 39 40 39 39 38 38
38 20 24 28 29 28 30 27 34 20 9 19 19 30 16 12 23 26 32 32 32 29 26 27 26 27 26 26 27 28 32 34 34 34 34 35 38 40 39 38 37 38 38 38
34 27 18 22 23 26 37 44 37 42 24 39 15 16 19 26 22 27 34 36 33 31 26 30 27 26 27 26 27 29 32 34 35 35 36 40 41 41 37 36 37 38 38 40
35 36 36 36 23 18 31 45 51 45 36 44 56 38 30 25 24 31 35 36 34 27 28 26 26 28 29 29 30 30 33 36 37 38 42 44 44 37 35 36 38 39 39 40
46 46 45 55 50 37 27 34 40 58 72 36 59 46 40 39 31 30 33 36 35 32 31 29 27 28 32 32 30 31 35 37 39 44 46 43 37 35 37 38 40 40 39 37
47 49 43 58 57 51 46 46 49 50 49 63 67 59 30 35 38 35 37 37 34 33 33 30 29 30 32 32 30 32 35 40 46 45 43 41 37 37 39 40 40 39 36 36
48 49 40 42 46 47 29 78 56 63 60 58 58 67 49 39 36 39 39 39 37 36 35 32 31 30 31 32 30 37 41 43 42 42 43 38 39 40 40 40 38 37 36 37
53 57 48 37 30 14 65 46 45 48 63 56 61 57 45 47 42 36 36 37 35 38 37 34 31 31 31 34 36 39 40 41 39 38 38 40 40 38 37 36 36 37 38 40
58 51 35 22 33 32 33 44 40 39 53 50 52 53 51 38 40 46 40 33 35 33 29 30 30 31 35 36 35 37 36 35 36 37 39 38 36 34 34 35 36 38 40 41
57 59 51 24 12 11 39 37 39 23 43 39 42 47 44 44 43 39 32 31 30 30 30 29 31 33 34 34 31 31 34 35 37 39 38 37 34 32 33 34 36 38 38 38
45 49 49 48 24 21 31 19 22 23 14 19 26 26 33 32 29 30 28 30 30 31 31 32 33 31 29 30 31 33 37 39 38 37 35 33 31 31 32 33 34 35 35 37
35 29 28 32 20 17 24 20 27 22 16 17 20 22 24 21 22 26 28 27 27 27 26 27 27 28 31 32 34 36 37 34 33 32 31 31 31 31 31 32 33 34 35 37
22 29 28 23 21 28 24 28 32 24 19 15 11 12 18 21 21 21 22 22 24 25 27 28 28 30 32 32 32 32 31 30 30 30 29 29 30 31 32 33 34 34 37 38
31 27 27 23 15 14 13 14 14 14 12 11 18 18 16 15 17 19 21 24 25 25 26 28 29 29 28 28 27 27 27 27 27 29 30 31 32 33 34 34 35 37 39 38
21 19 21 22 17 16 10 15 12 10 12 15 14 14 16 19 21 22 23 24 25 25 26 26 25 25 23 25 26 26 27 29 31 32 33 34 35 36 36 37 38 39 40 39
21 22 22 20 21 16 13 8 9 10 11 14 16 20 21 23 23 24 25 25 25 24 23 24 25 26 26 27 28 30 32 32 33 34 35 36 37 38 40 41 41 40 41 41

GFSCGP_700_spd_036.txt.gz
Wind_Speed
25 26 30 24 23 21 20 20 15 14 14 21 26 28 25 25 26 26 28 30 28 29 28 29 27 26 24 21 20 18 17 16 15 13 10 9 8 9 11 13 15 15 14 16
25 32 25 24 18 21 21 22 25 24 22 26 29 33 30 29 36 35 32 34 35 35 33 33 31 28 25 22 19 18 17 16 15 14 12 10 9 11 12 13 15 15 15 16
29 22 16 19 26 25 26 25 23 21 21 25 29 40 38 34 33 38 39 38 42 42 37 35 33 30 26 23 21 19 17 16 16 16 14 13 12 11 13 14 16 17 17 19
26 28 26 24 22 21 24 22 20 22 22 14 11 12 24 21 25 26 31 33 37 37 34 33 33 31 28 24 22 19 17 18 18 19 17 14 13 12 13 17 19 20 20 21
27 29 29 33 33 25 25 24 20 23 25 23 29 20 35 22 21 31 34 35 34 29 27 27 31 31 29 24 21 18 18 19 20 19 17 15 13 14 17 19 20 21 23 24
37 32 25 27 27 26 29 24 20 22 22 11 29 29 18 30 28 28 28 28 31 32 27 26 26 27 26 23 22 19 18 17 19 19 18 16 16 17 20 22 23 25 26 26
39 42 38 33 29 25 23 20 3 3 4 8 9 20 35 9 17 20 22 22 25 26 27 25 23 22 22 21 18 17 16 17 18 18 18 18 21 22 24 25 26 28 29 30
30 16 37 41 46 35 26 29 12 6 4 4 11 14 19 18 28 28 24 23 26 28 27 23 23 21 19 16 15 15 16 17 18 19 21 23 24 26 27 28 30 32 32 33
20 19 15 20 16 35 20 28 28 16 18 8 15 26 30 24 23 27 26 28 26 26 25 24 22 19 17 15 15 17 18 20 21 23 24 25 27 29 29 31 33 34 34 36
26 11 19 25 23 30 26 15 16 19 2 6 9 25 25 11 15 27 28 27 28 27 27 25 23 21 19 17 17 19 21 23 25 26 27 29 30 30 32 34 35 36 37 39
39 24 13 24 29 32 37 26 14 13 15 4 4 12 15 21 20 21 25 27 29 28 27 25 24 22 20 18 20 23 27 28 29 30 30 31 32 33 35 36 36 38 40 42
40 29 19 30 24 26 31 30 38 24 11 26 22 45 28 18 14 19 21 27 32 32 29 29 27 26 23 24 26 29 29 29 30 32 33 34 35 36 37 37 39 42 42 41
39 29 17 13 19 21 32 38 39 36 28 43 12 32 12 16 23 20 22 26 33 36 37 37 34 29 26 28 28 29 29 29 32 34 35 36 36 38 38 40 43 44 39 36
33 36 40 38 29 23 34 43 45 45 40 32 55 49 39 29 24 22 23 28 35 40 42 40 35 29 28 29 28 29 31 33 33 35 36 37 38 39 41 43 44 39 36 37
40 41 40 48 44 38 33 27 32 52 60 37 62 49 51 49 47 43 34 29 35 38 43 42 40 30 31 30 28 32 35 34 35 36 37 39 39 42 45 44 42 37 38 39
42 47 47 53 53 47 52 54 49 39 42 49 58 67 48 46 38 39 44 40 40 40 41 44 40 37 33 30 30 33 35 36 33 37 39 39 41 45 46 43 43 39 40 40
43 45 38 46 43 43 30 80 64 65 61 63 63 70 54 52 53 46 41 42 42 42 44 43 42 36 30 30 30 31 33 34 35 37 36 40 44 45 45 44 40 40 40 40
50 50 44 40 22 13 68 52 45 47 53 61 67 67 61 48 45 46 49 45 39 44 44 43 38 32 31 34 33 32 35 37 36 36 40 44 45 43 43 40 41 40 39 38
46 45 34 24 32 40 47 34 35 42 49 41 48 53 55 52 49 45 46 45 42 44 44 48 49 32 32 35 34 34 36 36 38 40 42 42 41 40 40 41 39 38 37 36
67 68 53 30 12 14 46 29 33 31 48 42 39 41 40 46 49 50 46 45 46 50 59 47 27 32 29 31 31 33 36 38 38 38 36 37 39 39 40 37 35 34 34 35
50 58 52 49 31 27 48 41 20 22 31 27 24 27 32 43 44 40 40 45 45 34 22 24 27 30 30 28 32 35 36 34 32 34 36 37 38 37 35 34 33 32 33 34
41 30 34 40 28 22 40 32 28 30 34 37 30 21 23 29 32 39 40 29 22 23 23 26 28 30 33 34 33 31 30 30 33 35 36 35 33 32 31 32 32 33 34 34
27 34 32 29 21 35 33 30 30 31 29 27 20 17 17 18 21 21 20 19 22 24 25 27 28 28 28 28 29 31 30 32 33 32 30 29 29 29 30 31 31 33 33 34
26 25 26 24 21 25 25 29 31 30 31 25 24 20 17 15 15 18 22 22 23 24 24 25 27 28 28 29 30 30 30 28 28 28 27 27 27 28 30 31 33 34 35 37
21 18 25 23 14 12 12 11 11 13 12 12 11 14 20 23 21 20 22 22 22 23 25 27 28 28 28 28 26 26 25 26 26 27 28 29 29 31 32 34 37 39 40 41
14 15 13 10 12 12 12 10 9 9 6 12 17 19 18 16 16 19 22 22 23 24 25 26 26 25 23 24 25 26 27 27 28 30 32 33 34 35 37 38 41 43 43 43

GFSCGP_700_spd_039.txt.gz
Wind_Speed
22 25 29 23 20 19 19 20 19 13 10 14 20 27 25 25 27 27 29 28 26 26 28 29 29 28 27 25 24 22 22 21 19 16 14 14 13 11 8 7 7 9 11 12
24 30 23 22 22 22 22 22 26 26 26 26 29 34 32 31 31 29 30 32 31 32 33 33 34 32 30 29 27 23 22 21 19 16 16 16 15 13 10 9 9 10 11 13
29 23 18 18 22 23 24 26 25 23 23 26 31 42 38 36 35 33 32 35 38 40 39 38 37 36 34 31 28 24 22 21 19 18 18 17 16 14 12 10 11 12 14 15
27 27 27 26 23 18 27 26 26 26 23 20 22 19 37 39 39 36 36 37 35 36 36 36 36 37 34 31 28 26 23 22 20 19 19 19 18 16 14 12 13 15 16 18
32 29 28 30 31 25 25 22 22 21 24 29 28 20 36 34 43 36 32 32 36 37 37 33 28 28 32 32 30 26 24 23 22 20 20 20 21 18 16 15 16 18 19 21
39 38 32 28 23 26 28 24 25 23 23 12 33 31 24 32 31 21 20 26 34 35 33 31 31 28 29 31 31 27 26 25 22 21 22 22 21 21 18 18 19 20 22 24
40 42 39 35 28 26 26 24 5 4 3 9 18 23 39 17 26 25 18 24 24 24 29 29 30 28 28 27 27 28 27 25 23 23 22 21 21 21 20 20 22 24 25 28
29 22 42 41 44 39 32 32 16 7 5 5 9 14 20 19 21 33 31 27 30 26 27 27 27 27 27 26 26 26 25 25 23 22 22 22 22 22 22 23 25 26 29 30
15 20 19 21 28 39 28 36 32 21 14 9 16 30 39 37 33 25 24 28 31 31 28 27 27 28 27 26 26 26 25 24 23 22 22 22 23 23 25 26 28 30 31 31
26 10 20 23 22 31 35 24 18 21 3 6 9 23 29 23 27 22 18 21 28 32 29 27 29 28 27 27 27 26 24 22 22 23 23 24 25 27 28 29 30 32 33 32
43 33 14 25 34 35 34 31 21 19 15 5 3 13 16 15 15 12 14 18 21 26 28 27 27 27 27 28 28 25 23 22 23 24 25 27 28 29 30 32 33 33 34 34
36 26 29 31 23 33 35 42 43 23 11 18 18 42 27 28 25 20 19 20 22 26 27 27 28 28 29 30 29 26 23 22 24 25 26 28 30 32 34 34 34 35 35 35
34 27 20 15 25 29 31 39 45 44 31 35 15 37 19 21 14 14 20 23 26 27 30 32 32 32 31 32 30 26 24 25 26 27 28 30 33 35 36 36 36 37 37 36
32 36 41 37 24 28 36 42 44 46 40 37 56 56 46 38 33 29 23 24 25 27 31 34 36 37 35 34 32 28 25 25 28 29 31 33 35 37 38 39 39 38 38 39
44 45 48 53 41 34 37 37 41 55 59 38 60 52 59 49 46 41 38 35 33 33 34 34 38 40 40 38 36 28 25 26 28 33 34 34 37 39 41 41 41 40 41 40
48 50 45 53 51 48 44 41 48 46 49 54 61 70 56 52 50 48 44 40 39 37 38 39 40 41 44 42 31 27 25 22 30 37 35 37 38 41 42 42 42 44 41 40
48 51 42 48 44 46 31 78 61 61 60 61 63 74 61 62 60 56 53 51 44 41 36 39 42 42 44 35 28 23 23 25 33 37 36 38 39 41 42 43 47 42 40 40
48 48 40 40 18 13 66 52 58 60 64 65 68 69 63 61 59 52 54 51 47 44 43 41 39 41 44 40 28 26 30 34 36 37 38 39 40 40 42 46 42 40 40 38
46 52 34 28 33 39 46 43 42 37 55 50 50 51 43 40 41 44 40 40 42 36 39 40 38 40 45 40 33 34 37 33 39 39 41 40 39 41 42 40 40 39 38 39
59 48 54 23 14 14 59 41 33 32 49 50 44 43 36 35 44 42 35 39 39 39 35 37 41 46 50 47 42 41 31 34 38 39 39 38 38 39 41 40 36 37 39 37
57 58 48 46 30 30 46 41 21 23 39 34 28 31 27 30 33 34 36 35 33 32 38 42 47 47 49 47 43 23 28 33 35 36 39 40 39 37 34 35 36 34 33 32
43 33 48 49 36 29 53 36 39 39 41 42 41 38 33 28 30 31 31 31 28 30 36 43 47 47 42 30 24 28 28 31 36 37 36 34 32 33 33 32 30 29 29 30
27 39 35 35 32 46 44 44 40 42 41 39 39 37 31 26 27 24 23 25 33 35 36 32 28 20 19 24 27 29 30 32 31 31 31 31 31 30 29 27 26 27 28 30
23 29 23 25 21 32 36 41 38 37 37 33 29 21 18 20 22 24 26 24 19 14 12 15 18 20 22 23 23 24 27 30 31 30 30 28 27 26 26 27 28 30 31 33
24 24 27 29 29 18 16 19 20 19 23 26 22 17 17 17 16 13 9 10 13 15 17 18 19 21 23 24 25 27 28 29 29 29 27 26 25 26 28 31 33 34 34 35
20 20 19 16 15 15 11 9 9 7 9 12 10 9 10 11 12 13 15 17 19 21 22 22 22 22 24 26 27 28 28 28 28 28 28 28 28 28 30 33 36 36 36 38

GFSCGP_700_spd_042.txt.gz
Wind_Speed
17 21 25 19 18 17 19 19 19 17 15 20 22 25 22 21 26 27 27 27 27 26 25 27 26 27 29 28 27 25 23 23 23 23 22 20 18 16 15 13 12 13 12 11
21 27 19 18 20 21 22 23 27 25 24 28 30 35 32 32 35 33 31 30 29 30 31 32 31 31 31 31 30 28 27 25 25 25 23 22 20 19 19 18 16 15 13 12
25 22 17 17 19 23 24 26 26 25 24 28 30 41 37 35 36 36 35 32 32 33 33 35 36 34 34 33 32 31 29 26 25 24 24 23 22 22 22 19 17 15 15 14
26 27 28 27 27 21 26 23 23 25 26 27 22 17 33 37 39 36 33 32 33 35 35 36 36 37 37 36 37 35 32 28 26 25 25 24 23 22 22 21 19 18 17 16
31 28 27 29 31 24 28 24 22 24 28 28 33 20 34 30 40 37 30 22 23 28 32 34 33 32 32 34 33 35 33 29 27 27 27 26 26 26 26 23 20 19 19 19
40 38 33 31 26 23 27 25 23 23 22 13 38 27 30 35 35 31 19 21 18 19 24 29 31 32 33 32 32 33 33 31 29 29 28 27 26 26 26 23 21 21 21 22
41 43 40 37 31 26 25 21 6 4 4 9 21 23 40 35 36 29 20 24 28 26 26 27 28 29 29 29 30 31 32 32 30 30 28 27 27 27 26 24 23 23 24 25
26 22 40 43 44 36 30 34 16 7 5 5 9 15 18 13 20 31 32 28 26 29 25 26 24 25 25 28 31 33 32 32 32 30 28 28 28 27 26 26 26 26 27 28
16 21 22 22 21 33 30 39 36 30 18 9 20 40 46 43 40 17 24 24 23 27 25 25 24 23 26 30 31 30 31 31 31 30 28 28 28 27 27 27 28 29 30 31
26 19 22 18 24 32 38 23 18 22 2 6 10 21 25 14 17 6 15 11 19 23 23 22 23 24 27 28 30 30 32 31 29 29 29 28 28 28 29 30 30 31 33 33
37 29 16 19 31 36 34 39 24 20 21 5 2 11 16 8 6 12 11 15 18 20 20 19 20 25 27 30 30 31 31 31 31 30 29 29 29 30 31 32 33 34 34 35
29 21 32 34 28 31 39 39 45 20 11 23 26 41 30 26 31 20 15 15 20 27 27 26 22 23 26 29 32 32 33 33 32 30 29 28 30 31 33 34 35 36 36 36
23 23 17 18 26 35 38 43 42 46 29 42 14 34 11 18 20 20 19 17 26 30 28 32 29 25 27 30 33 34 35 35 33 30 28 29 30 32 34 35 37 38 38 37
34 31 33 33 21 22 40 47 49 45 40 43 51 59 42 29 34 45 45 39 31 22 23 28 29 28 28 31 34 36 37 37 35 32 30 31 31 32 34 36 38 39 39 39
39 42 45 55 47 34 31 37 46 56 63 33 72 51 68 58 53 44 41 40 39 35 34 34 32 35 32 31 35 38 40 40 37 33 31 31 32 35 36 38 40 40 40 40
38 49 45 55 54 52 52 49 49 50 53 56 62 68 50 49 48 49 49 48 49 47 41 38 35 34 39 37 36 39 42 42 39 34 32 31 35 38 37 40 41 40 41 42
46 48 44 42 48 44 30 75 55 57 58 55 60 77 63 62 60 55 51 53 53 50 46 42 40 39 35 38 40 38 43 42 38 34 32 34 37 37 37 41 41 41 42 42
46 50 44 36 22 14 64 56 56 61 63 63 68 70 66 62 53 49 48 47 44 43 44 45 45 44 39 37 40 41 44 43 38 35 36 38 39 39 38 41 42 42 42 44
43 47 33 27 35 34 37 55 42 35 50 51 54 54 49 42 45 49 39 35 38 39 40 40 40 37 41 39 40 41 46 43 40 41 42 42 42 37 37 41 43 42 41 45
52 52 50 21 14 12 62 44 40 32 43 52 42 45 39 38 45 39 22 31 33 37 39 38 35 34 37 38 41 41 43 43 45 45 42 44 38 37 38 41 43 40 39 33
47 50 52 49 28 24 51 44 18 27 44 38 30 33 31 34 33 31 34 35 33 37 35 31 31 35 36 39 38 45 45 47 45 45 45 36 33 33 36 37 34 32 29 32
32 30 37 41 27 22 48 31 34 36 38 43 42 38 34 36 37 40 42 38 35 36 33 30 29 32 37 38 45 51 47 44 41 31 27 27 27 30 32 30 27 29 32 33
33 38 29 29 29 38 39 44 43 46 47 46 47 48 45 40 38 38 43 39 36 31 29 28 26 29 35 39 42 43 32 22 21 22 24 28 30 28 27 28 30 31 30 28
33 37 44 44 41 46 43 42 45 46 46 45 46 44 44 43 39 35 27 27 29 26 25 26 29 31 32 25 20 16 16 19 23 26 26 27 28 28 29 29 27 26 26 27
34 31 36 38 43 40 28 27 32 25 34 35 32 28 23 20 19 22 25 25 23 21 14 10 8 10 12 14 17 20 21 21 22 25 26 27 27 26 25 24 24 26 27 30
35 33 29 25 24 24 24 22 21 18 18 18 19 16 15 16 16 15 11 8 7 8 10 11 13 14 15 17 18 20 21 22 24 24 25 25 24 24 25 26 28 30 32 35

GFSCGP_700_spd_045.txt.gz
Wind_Speed
21 21 24 16 14 16 17 20 22 21 17 21 25 29 23 22 26 25 24 23 24 25 22 26 27 27 27 27 28 27 26 24 23 22 23 24 24 23 22 23 23 21 20 18
20 24 15 15 18 20 20 23 26 24 24 28 31 36 33 31 32 31 30 30 29 28 28 28 29 30 30 29 31 31 29 28 26 24 25 26 26 25 24 24 24 22 19 17
24 19 14 15 19 21 22 25 24 24 25 28 31 43 39 34 35 32 33 32 33 32 31 31 34 33 35 34 32 32 33 31 30 28 27 28 28 27 26 25 26 24 21 19
26 29 28 27 29 23 29 24 23 23 24 23 20 15 36 38 37 35 32 34 30 27 30 32 35 36 34 34 35 35 36 35 33 31 29 29 27 26 25 25 28 25 23 21
31 25 25 28 29 24 29 24 22 21 23 26 34 20 30 25 36 39 31 23 23 24 22 22 28 34 32 34 35 36 37 36 36 34 31 30 29 29 29 28 30 28 25 22
40 37 34 30 27 20 23 20 19 22 20 11 35 26 37 35 36 31 24 22 18 20 18 23 25 27 31 34 36 36 35 35 36 36 33 31 31 30 29 29 30 29 26 23
43 45 42 40 33 26 24 20 4 4 3 10 13 18 45 28 34 35 17 12 15 25 25 26 26 25 27 32 34 34 34 33 32 34 33 33 33 32 30 29 30 29 27 25
28 25 42 45 45 32 28 34 17 7 4 5 10 14 18 13 18 29 40 26 19 21 24 27 29 25 24 28 30 30 30 30 31 31 33 34 34 33 32 31 31 31 29 28
15 21 24 23 20 31 29 34 33 29 24 12 21 40 46 42 31 26 14 12 10 16 19 22 23 24 22 22 26 27 29 30 32 33 34 35 35 34 32 31 32 32 32 31
25 19 19 19 22 25 35 19 17 18 2 5 11 21 27 24 21 14 9 3 10 13 17 17 17 19 19 21 22 27 30 32 33 32 34 35 36 34 32 32 33 33 33 32
35 26 17 19 28 33 32 39 22 14 19 5 3 18 24 18 11 12 6 19 11 15 16 25 25 19 18 21 23 25 28 30 32 32 35 36 36 35 34 33 34 34 34 34
31 22 34 38 29 25 34 39 43 20 10 20 26 45 18 14 17 21 20 13 11 17 29 30 31 27 22 20 23 25 28 31 32 34 36 36 37 36 35 35 36 36 36 37
33 27 16 11 23 30 33 38 41 42 31 43 11 44 18 15 27 29 24 18 22 30 36 28 25 22 20 20 22 26 28 31 32 35 37 38 39 37 36 37 38 38 38 39
32 31 35 33 13 13 32 47 45 44 35 54 44 69 50 31 23 23 25 30 41 46 34 29 25 30 30 26 21 22 29 32 34 37 39 40 40 38 37 39 39 40 40 40
38 37 39 49 45 41 38 28 29 45 58 37 70 48 67 57 51 44 45 46 48 42 37 38 34 33 33 34 33 28 25 31 37 40 42 42 42 41 40 42 42 43 43 42
37 42 42 58 59 53 51 52 55 50 50 52 60 64 54 52 49 48 52 50 51 52 51 48 42 39 36 36 35 33 30 28 38 43 43 45 45 44 42 43 45 45 45 43
46 43 42 36 52 41 28 60 64 55 60 57 57 67 55 57 57 56 53 57 57 54 45 42 44 41 37 36 35 35 34 31 32 40 45 47 47 44 44 45 45 46 45 44
45 45 41 33 30 13 54 51 51 53 57 55 61 62 59 58 50 46 51 48 39 37 38 38 38 38 37 37 37 41 40 37 35 38 44 47 48 46 45 45 45 46 47 47
47 50 39 24 35 37 38 55 48 35 47 44 52 49 48 40 39 45 37 35 37 37 34 32 33 35 37 36 38 42 46 44 41 39 40 45 47 46 46 46 46 46 52 47
62 50 47 22 15 14 52 48 45 26 34 47 41 43 41 34 42 39 30 27 26 27 31 30 32 39 40 37 38 40 43 44 44 40 39 45 47 49 48 47 47 50 48 42
46 56 55 45 28 21 44 29 11 21 37 39 29 38 37 30 28 33 37 31 29 34 37 38 39 40 42 37 36 38 38 42 41 38 42 47 50 53 50 49 48 50 43 43
20 19 35 44 29 23 48 39 32 40 38 40 39 33 29 28 29 36 42 40 37 37 40 42 43 40 38 35 34 36 36 37 38 39 45 50 50 48 40 37 38 36 32 23
25 31 30 32 15 39 36 29 43 46 45 46 46 44 39 41 43 42 41 44 45 44 40 42 38 35 32 30 30 31 33 33 34 34 31 29 28 24 21 23 26 27 29 25
35 36 37 37 36 38 45 43 45 47 45 41 43 45 46 47 46 44 44 45 43 43 42 30 26 25 24 23 23 22 23 25 25 25 22 20 18 18 21 24 25 25 24 24
42 42 46 44 39 41 42 41 42 44 36 41 35 36 33 30 28 28 31 30 28 25 23 22 22 22 19 19 18 17 16 15 15 15 15 15 16 16 18 20 22 23 24 25
44 42 42 45 40 37 37 38 38 37 35 29 24 22 19 16 16 16 15 20 21 21 16 12 9 8 8 8 9 9 10 12 14 15 16 17 19 20 22 24 25 25 26 27

GFSCGP_700_spd_048.txt.gz
Wind_Speed
20 20 21 15 13 16 17 18 20 19 19 23 25 29 25 20 26 26 25 25 25 25 17 23 25 26 27 27 26 25 27 28 27 26 25 23 24 25 25 24 24 25 24 25
23 26 16 17 18 19 20 20 21 21 21 25 27 35 31 28 27 28 29 29 27 27 28 28 29 30 29 29 28 29 28 30 30 29 28 26 26 26 28 27 26 26 26 26
21 16 14 15 19 21 21 22 21 21 23 28 32 42 36 30 31 29 27 29 31 30 29 28 31 32 33 33 33 32 31 32 33 33 31 29 28 28 28 29 28 28 28 28
21 25 26 26 26 20 28 23 22 21 20 21 18 14 41 36 35 33 29 25 25 28 28 28 28 33 34 33 34 35 36 36 36 36 35 33 31 29 28 28 30 29 30 29
27 24 23 27 28 24 28 24 21 20 20 28 27 16 32 34 40 38 31 24 19 17 25 29 29 30 34 38 37 35 37 38 39 38 37 36 35 32 32 32 32 30 31 31
38 36 32 28 25 19 22 17 14 17 18 13 25 22 46 38 38 29 32 23 24 22 23 20 20 21 25 27 31 38 40 39 39 38 38 38 36 35 34 33 33 32 32 32
42 44 41 39 34 28 24 16 4 4 2 9 5 15 44 34 30 22 24 22 10 12 20 20 25 29 30 29 29 32 38 39 38 38 37 36 36 37 35 34 34 34 33 34
25 25 40 44 44 31 27 32 16 7 4 6 9 16 26 33 28 35 28 13 17 19 17 21 25 27 28 30 31 31 34 36 36 36 35 35 35 36 36 35 35 35 34 33
11 20 25 23 18 28 29 34 31 26 23 10 18 39 45 37 21 13 13 25 12 9 11 12 14 17 20 23 25 26 27 31 32 33 35 36 35 35 35 34 35 36 36 35
23 22 21 17 22 24 35 19 13 16 3 5 13 20 27 23 19 8 11 14 8 7 7 8 15 21 23 21 22 24 24 29 31 32 35 36 36 35 36 36 36 37 37 37
34 28 18 17 28 31 30 33 19 13 12 5 3 20 22 18 13 6 9 13 7 9 11 9 26 24 24 22 21 20 24 26 31 35 37 37 36 37 38 37 37 38 39 39
24 19 32 39 29 24 32 39 42 20 8 16 19 41 19 17 15 14 14 17 21 16 17 20 33 26 23 18 16 20 20 24 28 32 34 35 36 38 39 39 39 40 41 40
28 23 25 20 26 29 33 39 38 38 32 35 12 42 8 10 19 18 22 24 23 22 26 31 38 31 24 23 23 21 20 22 25 29 32 35 36 39 40 40 41 41 42 42
39 31 32 32 18 14 33 46 42 41 29 54 38 67 56 39 31 28 23 26 31 29 35 43 41 30 30 32 30 27 25 25 25 28 32 34 35 38 40 41 41 43 43 43
41 38 40 51 47 33 29 19 22 43 52 36 59 48 69 55 51 49 44 41 38 42 44 42 42 43 40 40 37 33 30 28 27 29 29 31 34 38 41 43 44 45 46 46
38 42 39 52 52 50 47 42 42 47 46 42 58 60 62 52 52 52 52 47 44 41 43 49 50 45 42 40 36 36 34 32 31 30 30 30 33 39 42 45 46 49 49 47
41 43 39 38 50 46 34 62 65 63 65 63 56 64 57 59 58 54 49 50 52 49 44 42 43 43 39 38 37 38 38 37 34 33 32 33 33 38 43 47 49 51 50 48
43 41 43 34 35 16 49 48 51 45 45 48 54 58 52 52 47 43 42 42 37 36 38 34 35 37 36 36 37 37 39 40 40 39 38 37 37 39 43 47 50 50 50 48
47 45 40 40 42 40 38 53 54 50 51 41 47 47 48 34 34 39 34 32 36 32 27 28 32 33 31 29 29 31 33 37 39 43 44 42 38 39 42 45 48 49 48 47
60 56 50 30 17 20 54 62 54 27 32 59 46 47 44 37 38 29 30 23 23 24 25 29 29 32 32 31 31 34 35 35 38 41 42 40 39 37 39 43 46 47 47 46
42 57 58 55 30 17 29 37 27 28 36 47 36 25 25 29 31 29 31 26 25 29 34 34 35 35 37 39 43 42 39 37 38 41 41 41 40 39 39 42 44 43 45 47
42 32 44 49 35 20 37 37 30 29 31 34 30 31 38 36 29 30 33 36 33 35 42 39 40 38 37 40 42 42 37 34 35 38 38 38 40 39 40 42 43 43 42 46
25 24 9 25 18 36 32 25 22 22 20 33 39 39 37 37 38 32 34 37 45 47 45 41 39 38 37 40 37 30 29 28 28 29 30 28 30 32 34 34 31 29 32 30
49 46 40 34 32 32 34 33 28 34 30 38 41 40 40 39 40 41 42 46 43 42 43 42 38 33 26 22 22 20 20 20 20 21 18 15 12 9 5 7 9 10 13 19
40 39 39 45 42 44 38 39 38 38 40 38 36 40 41 37 34 34 34 32 31 30 30 22 18 20 22 19 17 16 16 16 14 13 13 13 13 12 12 13 14 15 17 20
40 44 45 43 39 38 39 38 40 41 35 36 36 35 37 38 28 23 21 19 18 17 17 16 15 11 8 6 6 6 6 6 6 7 7 9 10 13 14 15 15 17 19 21

GFSCGP_700_spd_051.txt.gz
Wind_Speed
20 21 19 14 12 15 16 16 17 15 17 21 23 27 22 18 24 21 22 23 22 22 19 24 26 26 25 24 25 24 25 26 28 30 30 28 25 25 25 25 26 26 26 27
23 24 16 18 18 18 19 19 17 17 17 20 25 32 28 25 23 23 23 23 22 23 22 25 28 29 29 28 27 29 29 29 29 30 32 32 29 29 28 27 27 28 28 29
24 17 17 22 20 20 20 19 17 18 22 28 32 39 34 27 23 22 20 20 21 23 23 25 30 33 34 33 32 31 31 31 31 32 34 35 34 33 31 28 27 29 31 31
19 23 23 22 20 15 20 18 18 19 18 16 22 12 39 32 30 25 19 19 25 24 26 26 29 33 34 33 34 35 35 36 37 36 37 37 37 35 32 31 31 30 31 32
23 21 23 28 26 22 24 22 20 19 19 25 26 16 33 37 37 32 25 16 19 21 24 27 31 33 36 36 35 36 38 40 41 39 39 39 39 38 36 36 35 33 33 34
35 33 27 23 20 17 19 14 12 14 16 11 22 15 34 31 34 19 21 11 24 23 26 27 25 24 25 27 27 28 31 36 42 44 42 41 40 39 39 38 37 35 34 34
39 40 38 35 29 21 20 14 3 3 2 8 8 17 44 32 25 25 20 26 25 18 17 14 18 24 24 25 30 32 33 33 35 40 43 42 40 40 40 39 39 38 36 34
25 24 40 42 42 32 29 32 15 7 4 4 6 16 26 32 37 33 19 15 8 17 23 25 25 23 23 22 24 26 29 32 33 35 37 41 41 41 39 39 39 39 36 35
12 20 22 19 18 29 31 36 32 23 21 7 17 40 51 41 17 14 21 17 22 19 20 18 9 7 12 17 20 21 22 25 29 33 35 38 39 39 37 37 36 36 36 36
21 20 18 14 20 24 33 17 13 17 3 4 11 19 30 18 22 3 7 12 17 17 16 12 10 6 16 19 20 20 21 21 25 30 34 36 37 38 38 37 37 35 37 38
32 25 14 16 25 30 28 32 18 13 13 5 2 17 22 14 13 10 6 13 12 7 13 16 19 16 20 23 22 19 20 20 21 25 30 35 37 38 38 38 39 38 38 39
23 18 28 33 20 19 29 37 40 19 9 14 19 36 16 20 15 11 6 12 19 11 13 17 25 28 29 27 24 19 19 19 20 21 26 32 37 40 40 41 40 41 40 40
28 21 20 12 21 27 33 36 36 37 32 27 16 39 30 23 13 16 9 20 22 25 22 21 29 36 37 35 31 24 28 24 24 23 23 26 31 35 38 40 40 41 42 43
32 25 27 28 17 6 28 42 43 41 30 52 36 64 59 47 36 33 36 24 28 31 35 40 38 39 36 41 37 40 35 31 30 29 29 26 25 28 32 36 38 40 42 44
37 37 37 47 47 44 40 32 23 36 48 41 56 53 65 57 55 51 42 41 42 40 39 38 34 41 46 44 44 43 38 35 32 31 31 31 30 29 31 34 37 40 43 44
40 46 45 52 55 51 48 47 47 46 45 46 57 60 60 54 50 50 52 51 47 44 43 41 37 37 41 46 47 42 39 37 37 35 34 33 34 33 32 33 36 39 43 45
36 36 37 40 51 42 31 54 58 54 56 57 52 67 57 59 58 57 52 46 43 39 34 34 35 37 40 42 44 42 39 38 39 39 37 36 35 36 35 34 35 38 42 45
47 35 46 33 41 19 47 51 51 52 54 54 62 63 60 54 48 41 39 37 34 32 32 34 33 33 35 36 35 36 35 34 33 34 36 37 38 38 37 37 36 36 40 44
47 49 30 22 34 40 24 49 53 49 58 52 48 51 53 46 47 43 37 33 32 29 30 30 26 23 22 25 25 25 26 26 25 27 30 34 38 41 41 40 38 37 37 41
48 50 44 28 15 14 40 53 54 47 35 59 53 55 54 45 44 52 38 23 23 26 28 24 22 21 24 27 30 28 29 31 32 33 33 35 37 40 41 40 41 42 40 41
35 35 50 53 45 34 43 39 36 22 37 42 43 41 34 33 28 20 25 27 24 25 27 26 27 29 33 35 36 38 36 36 38 41 39 36 36 40 42 43 42 42 42 41
36 35 38 36 39 34 47 46 43 41 37 32 33 27 25 24 23 27 30 32 30 28 30 33 35 37 41 40 38 37 35 37 39 38 33 32 33 34 36 37 40 40 42 39
30 40 31 27 21 36 30 34 31 33 27 31 34 27 29 36 35 37 35 33 34 34 35 37 40 44 43 37 36 35 35 32 28 27 26 26 26 28 29 31 34 33 31 33
34 30 34 30 30 26 38 36 19 21 21 19 20 25 32 31 37 35 34 34 35 39 40 41 38 33 29 25 23 20 20 19 19 20 20 20 20 21 21 17 15 14 14 14
42 47 47 47 57 46 44 34 35 28 29 21 29 32 37 37 37 36 33 33 31 32 31 27 24 20 17 17 18 17 16 14 11 10 11 9 7 7 7 7 7 9 12 11
51 57 53 48 45 39 42 40 35 32 28 29 34 37 36 35 34 33 30 32 30 29 24 19 17 18 14 9 7 5 3 3 2 3 4 5 7 7 8 8 8 8 8 10

GFSCGP_700_spd_054.txt.gz
Wind_Speed
20 21 22 19 17 18 13 13 15 16 16 20 23 27 22 19 25 20 19 21 21 19 18 24 26 29 31 30 29 28 27 27 30 30 30 32 32 30 29 27 27 27 28 28
23 25 20 20 17 19 19 20 19 17 18 20 24 31 28 24 24 23 21 21 20 19 19 23 27 30 33 32 30 30 28 29 30 30 31 33 33 34 34 32 31 29 29 30
26 21 22 24 22 22 24 24 19 16 19 24 30 36 32 27 24 20 19 19 19 18 18 21 26 32 35 36 34 32 31 31 32 34 36 35 36 37 38 36 33 31 31 31
19 24 26 23 17 22 25 20 17 18 17 11 19 14 37 33 30 24 17 18 18 19 24 24 29 33 37 37 38 39 38 37 37 38 38 37 37 38 38 37 35 34 35 33
21 21 25 28 26 20 21 19 18 19 20 25 20 11 26 32 33 25 22 20 15 16 20 26 28 31 38 40 41 42 42 42 42 42 42 42 43 41 39 40 42 41 39 36
33 25 22 24 21 22 25 20 17 16 15 13 18 17 18 22 23 17 9 12 13 19 28 27 24 26 29 31 34 38 39 38 38 39 41 44 45 45 43 42 44 43 41 39
36 37 35 32 26 19 21 15 5 5 5 9 14 18 29 23 23 28 29 16 23 27 28 24 26 28 28 25 23 23 25 28 31 34 35 37 40 45 45 44 44 43 43 41
24 21 37 40 39 29 27 25 13 6 5 6 9 16 25 22 15 27 36 21 15 16 24 27 26 22 22 25 25 23 25 27 30 32 34 37 39 41 44 44 43 43 43 41
18 19 19 22 30 36 30 35 29 18 20 7 19 42 50 44 40 14 7 20 17 22 28 27 29 25 14 11 12 14 17 21 24 27 31 34 36 39 42 43 43 42 42 41
20 16 13 25 25 29 33 20 13 16 6 7 16 21 32 24 23 20 9 11 15 22 26 22 23 21 17 10 10 13 16 20 23 25 27 29 31 35 38 41 42 41 41 40
30 20 13 19 28 30 28 28 19 14 19 5 5 14 22 18 6 8 18 13 17 15 9 14 20 21 20 24 24 27 30 27 26 27 27 28 29 31 35 38 41 42 42 43
20 13 20 25 18 24 32 36 40 18 10 19 19 32 30 23 20 12 9 6 9 12 9 10 11 18 24 28 31 35 36 30 29 29 29 28 28 30 33 36 39 42 43 43
19 14 10 9 20 29 34 39 37 38 24 26 19 29 32 28 28 32 33 25 28 22 16 15 17 22 26 30 35 37 35 35 34 32 32 32 31 30 31 33 37 40 43 43
31 26 25 27 18 14 33 43 42 41 26 44 37 52 56 43 32 30 26 22 16 22 25 29 32 41 42 45 48 44 41 44 43 41 39 34 34 34 32 31 33 37 41 43
34 36 41 47 41 35 28 19 21 38 43 38 52 45 55 48 45 46 47 45 51 51 45 42 45 41 42 41 43 44 47 48 46 44 44 41 37 37 37 35 34 35 39 41
27 31 34 45 47 46 45 46 48 50 47 43 51 53 57 50 52 55 53 50 49 43 47 48 42 43 44 47 47 47 51 52 51 46 40 41 40 38 38 38 38 37 37 39
32 30 29 33 46 40 32 58 59 57 56 57 47 66 56 59 59 58 55 55 51 46 37 36 40 43 43 46 47 51 51 51 48 44 39 38 41 39 38 39 39 39 38 38
43 33 34 28 34 18 37 43 48 52 54 53 54 57 58 58 51 52 52 50 38 37 36 38 39 39 41 42 43 43 41 41 40 38 36 35 36 37 38 40 40 41 40 39
43 45 38 28 35 32 32 36 35 41 52 50 51 48 48 46 45 56 52 47 49 47 45 42 40 37 37 36 34 30 28 27 28 28 29 30 31 33 34 37 39 41 43 43
43 54 45 33 23 21 44 50 50 39 39 47 46 44 47 43 48 53 44 40 40 39 40 35 32 32 28 27 27 27 27 29 30 30 31 34 36 36 36 38 40 43 45 47
25 31 44 48 41 33 37 42 31 18 21 35 33 34 42 48 48 43 36 31 25 25 27 29 28 27 29 31 33 33 34 36 38 40 41 40 41 43 43 41 41 42 44 46
23 14 30 35 30 29 39 41 44 41 43 45 52 50 38 38 33 27 31 29 28 27 28 30 33 34 32 32 35 38 42 44 43 41 40 40 41 41 39 37 36 36 38 41
39 39 39 27 13 17 24 30 32 22 32 41 46 39 32 38 38 36 34 35 38 38 34 32 33 34 37 41 43 44 45 45 43 39 37 34 31 30 29 29 29 29 29 31
43 39 39 40 47 51 45 36 32 22 29 25 25 31 35 19 28 26 26 33 36 37 33 32 33 36 38 38 37 36 32 24 22 22 22 21 21 20 20 20 20 20 18 17
27 36 39 41 43 40 46 46 47 32 29 27 23 23 29 31 34 37 34 37 38 33 31 32 32 33 31 28 23 25 21 19 15 13 13 11 9 8 8 7 6 5 5 5
39 47 48 53 46 44 48 43 35 37 36 34 36 35 34 38 40 37 34 34 30 29 30 30 29 23 20 19 19 15 13 11 9 7 5 4 4 3 1 1 2 2 3 4

GFSCGP_700_spd_060.txt.gz
Wind_Speed
16 18 20 19 20 18 15 12 8 6 14 21 23 28 25 22 24 25 21 19 21 21 19 19 22 21 24 26 27 28 30 29 30 31 31 31 30 29 30 30 30 31 31 30
19 22 16 14 16 16 20 20 20 16 21 25 24 32 30 27 25 25 25 23 21 20 20 22 22 24 23 25 26 29 30 31 31 33 31 32 32 31 31 32 32 33 33 34
20 11 18 22 21 21 20 20 20 16 19 23 28 36 30 21 23 25 26 23 22 21 21 21 24 25 25 25 26 29 31 33 33 33 34 35 35 33 33 31 29 32 35 35
18 23 19 18 22 22 23 21 18 19 22 12 13 13 35 22 20 23 23 24 22 23 25 24 26 29 26 23 26 30 33 37 37 37 38 37 36 35 33 33 33 35 38 38
16 19 23 27 25 18 18 17 20 21 19 18 24 14 36 21 23 24 21 22 21 22 24 24 25 26 29 27 25 29 33 35 36 38 40 40 39 38 38 39 39 39 39 41
23 17 17 21 23 23 22 17 13 14 15 11 26 23 20 26 19 13 14 16 19 15 12 15 17 18 24 26 29 31 30 27 28 31 34 37 38 40 41 41 41 40 41 43
25 29 25 23 18 17 20 11 3 3 3 7 6 16 28 8 12 16 15 17 18 19 24 23 26 29 34 30 29 31 27 24 24 24 26 27 29 31 32 34 36 38 40 42
24 13 29 33 36 25 21 24 13 6 4 3 8 14 16 10 8 15 14 12 24 24 30 34 23 22 19 25 29 28 24 21 23 23 23 23 24 24 26 30 33 35 38 40
17 14 19 18 20 31 22 30 29 21 24 8 12 28 32 32 28 21 18 21 28 18 14 16 18 22 23 26 27 25 23 19 16 15 14 13 16 19 22 26 30 32 33 35
25 22 19 21 22 23 35 14 13 17 2 4 15 25 26 20 24 32 17 20 22 23 19 19 24 26 27 26 22 17 14 12 13 19 21 21 23 26 29 32 35 35 35 34
29 24 13 20 27 29 31 33 16 15 22 5 5 13 22 16 14 13 9 6 7 14 23 21 18 15 19 20 15 17 16 19 23 27 29 30 31 35 39 40 41 39 38 37
28 14 25 25 20 21 30 35 37 23 8 19 20 39 30 20 23 19 16 13 13 15 12 17 23 20 21 16 18 22 23 25 30 34 39 41 43 45 45 45 43 40 40 40
14 15 7 9 17 23 27 34 31 36 29 23 15 35 23 8 2 10 9 15 17 18 17 16 16 21 22 22 25 28 30 36 43 47 50 48 45 49 49 45 44 40 38 37
21 22 24 18 4 8 18 26 27 26 22 41 35 48 55 44 36 32 27 27 33 34 30 26 19 23 29 35 40 41 44 49 55 58 56 54 55 49 52 48 46 43 40 40
21 22 24 30 31 25 24 19 16 17 28 24 44 37 62 51 47 43 45 44 38 38 41 46 42 38 40 43 44 48 54 56 59 61 60 58 59 58 54 51 48 47 43 41
27 22 21 33 33 32 37 42 42 36 41 40 46 49 48 45 47 45 47 44 44 47 52 50 45 42 40 37 39 43 45 48 51 51 47 47 50 52 52 51 49 45 42 40
16 16 17 31 25 16 22 45 38 43 46 44 43 52 46 49 49 52 49 49 58 58 52 43 37 36 37 38 40 43 43 45 46 45 44 41 42 44 46 47 45 42 39 39
26 22 16 18 14 10 28 30 30 26 27 27 37 43 44 44 45 43 35 36 39 39 37 38 34 31 33 35 38 42 45 49 50 49 49 46 43 42 42 42 40 38 35 35
38 34 25 14 18 21 26 25 18 20 31 30 31 36 38 40 41 44 43 42 43 40 38 34 38 45 48 46 42 40 42 44 47 48 47 44 40 37 35 34 34 33 32 32
27 38 38 33 14 7 52 53 41 35 33 40 36 39 39 40 43 39 39 39 41 38 38 44 49 50 52 49 44 41 41 42 41 39 38 37 36 36 35 36 36 36 37 39
18 29 35 36 28 24 45 43 38 28 33 28 29 26 28 35 36 37 36 37 39 46 51 54 56 57 54 46 42 38 37 37 36 36 36 37 38 40 41 42 45 46 46 46
25 17 21 28 23 21 47 43 35 25 29 31 36 39 35 35 38 37 40 42 47 52 51 51 52 52 50 47 46 41 37 37 37 37 37 38 40 43 46 49 50 50 47 45
34 40 29 25 21 20 22 30 23 25 29 30 31 31 33 37 37 38 39 39 43 44 46 46 48 50 50 48 48 49 45 38 38 40 42 44 45 46 47 46 40 36 34 34
26 26 30 37 46 46 43 35 41 45 38 43 43 42 39 41 44 45 44 42 39 40 44 46 46 42 40 41 49 47 40 41 39 37 39 41 38 35 32 29 27 26 24 22
35 30 35 35 43 46 47 48 50 50 43 46 52 48 46 45 49 54 53 50 51 50 47 44 45 47 44 42 34 34 43 42 38 37 34 31 28 24 20 17 15 12 9 7
43 45 42 45 43 36 40 41 38 42 43 34 35 36 37 36 37 44 46 48 44 43 49 51 50 48 47 43 42 40 40 30 30 31 26 20 17 13 9 7 5 4 3 2

GFSCGP_700_spd_063.txt.gz
Wind_Speed
19 21 22 18 16 15 10 7 3 7 6 14 19 24 21 19 23 23 20 18 18 17 15 15 15 16 18 20 21 20 20 19 22 25 27 27 26 25 25 25 26 29 30 29
20 21 14 14 15 16 18 19 14 14 14 18 23 30 26 23 24 23 22 21 18 17 16 18 20 20 19 20 21 21 20 21 23 25 27 30 29 28 28 28 29 28 30 31
21 11 20 17 16 16 15 17 16 17 18 21 27 35 30 22 21 22 22 20 18 17 18 19 21 21 20 19 21 22 23 24 25 26 28 30 31 31 30 28 28 27 28 30
17 22 14 16 21 19 18 18 16 17 16 14 16 13 35 31 26 25 21 21 22 20 22 23 23 24 21 17 18 21 24 26 27 28 30 32 33 33 30 29 29 29 30 33
15 14 22 21 18 15 15 14 15 15 18 20 23 12 32 27 32 29 25 26 23 18 19 21 20 20 21 20 19 20 23 24 26 27 26 28 31 32 31 31 31 32 33 36
23 16 14 18 22 21 19 15 13 13 12 9 21 20 20 24 27 16 10 11 7 10 16 13 13 13 13 16 17 21 24 25 25 21 21 23 24 25 27 29 31 32 34 36
22 22 20 18 16 16 17 12 3 2 2 6 6 14 25 16 10 5 7 13 19 22 20 17 16 20 25 29 28 24 21 22 18 17 17 19 20 20 20 21 23 26 29 31
26 14 26 24 24 19 17 19 9 7 4 5 9 11 5 3 6 17 16 13 17 18 21 26 24 28 16 12 16 19 19 15 17 18 19 19 18 16 15 14 15 16 18 21
15 14 13 18 18 25 22 27 21 18 15 6 10 18 18 21 20 22 15 12 18 17 17 18 17 12 15 18 18 16 14 14 15 13 10 9 11 14 16 18 21 23 26 27
21 8 15 21 20 22 27 21 12 13 1 4 8 14 17 12 9 19 25 28 17 22 24 18 15 16 17 14 13 13 14 15 14 14 14 16 19 21 24 27 29 32 34 38
29 23 13 20 23 27 26 25 16 12 18 5 2 13 17 10 6 3 7 7 6 10 10 15 19 15 13 13 10 12 16 19 17 19 20 23 26 29 32 35 38 43 44 41
26 22 25 22 14 24 28 31 36 20 7 17 25 35 19 14 10 5 10 9 9 13 16 11 13 12 14 12 13 14 19 23 26 28 30 32 33 35 41 45 46 46 44 43
31 18 8 7 16 24 23 27 30 34 22 31 12 36 20 17 15 13 14 8 10 15 18 24 22 18 18 20 23 26 29 32 35 37 40 43 45 48 52 50 45 45 48 44
17 17 20 18 6 11 23 25 26 30 30 39 40 48 35 20 19 19 27 32 35 32 30 35 38 34 31 29 36 40 42 43 43 44 46 49 52 56 58 56 54 51 48 46
23 23 23 24 24 19 16 19 25 30 33 24 41 41 53 49 48 45 41 39 38 37 35 37 38 37 37 43 39 40 43 46 48 50 52 52 55 54 52 48 45 45 45 44
20 17 17 23 23 24 25 26 27 27 26 32 36 44 47 43 41 39 39 39 39 39 42 43 46 48 48 43 40 39 38 38 41 44 46 46 47 47 45 44 43 41 41 42
26 25 18 17 22 15 17 39 35 40 45 40 37 44 44 45 41 36 38 38 40 41 35 34 34 34 34 33 30 31 34 35 38 40 41 43 46 47 47 47 47 45 43 42
25 19 14 7 5 6 27 30 28 26 24 21 20 35 35 30 31 32 33 32 34 35 42 42 40 37 34 31 32 33 34 36 38 40 42 41 41 42 43 43 41 41 41 40
27 25 16 11 15 21 27 19 15 14 21 18 22 24 29 38 42 44 42 45 44 43 42 41 41 40 37 36 40 43 45 46 45 43 42 45 43 42 43 40 38 36 34 34
38 35 31 23 8 8 45 35 35 39 38 46 46 42 40 39 40 42 41 43 42 40 42 43 42 42 43 46 50 52 47 45 42 39 39 40 43 42 42 42 40 38 38 39
27 28 32 34 21 19 44 42 35 26 37 32 34 32 30 32 32 36 38 39 39 44 43 42 44 45 47 48 45 44 44 43 40 40 42 41 42 42 42 41 42 43 44 45
27 23 24 23 14 18 38 33 24 22 23 33 34 34 33 37 41 44 47 47 40 39 38 39 43 43 43 44 47 47 47 46 45 43 44 46 44 42 42 42 44 46 47 49
26 29 27 24 25 26 28 27 25 21 25 32 33 31 33 37 37 39 42 44 47 47 46 50 53 49 48 48 48 49 46 46 46 46 46 47 46 43 43 44 46 47 45 43
31 31 34 37 39 35 32 35 33 33 36 39 43 46 45 49 50 53 52 55 58 58 57 54 55 55 52 49 52 51 47 45 44 47 37 41 43 40 37 37 38 37 34 32
32 31 36 36 41 40 39 43 46 48 45 45 46 46 45 39 46 48 49 47 50 51 49 48 50 51 49 47 48 49 51 48 43 46 50 45 40 36 37 34 30 25 21 17
39 41 41 38 34 30 37 40 42 46 47 47 46 45 43 44 43 41 40 41 43 45 46 47 47 46 48 48 48 48 47 43 40 41 43 40 35 30 22 18 14 10 8 6

GFSCGP_700_spd_066.txt.gz
Wind_Speed
23 24 26 20 17 15 12 12 10 10 11 14 17 22 16 13 19 18 16 14 17 15 11 16 14 14 16 16 16 15 16 15 19 21 22 23 21 22 23 23 22 23 24 23
21 25 17 17 18 18 16 13 11 12 13 17 19 26 23 18 18 18 18 18 18 17 16 17 18 18 17 17 17 17 17 17 18 20 20 24 24 24 24 25 27 27 26 26
22 12 20 20 18 18 18 18 18 16 16 20 25 32 29 23 18 16 14 13 14 14 16 17 20 21 20 19 18 18 19 20 21 20 22 24 26 26 26 25 25 27 27 27
18 22 14 22 18 17 16 15 14 15 14 11 13 11 30 26 23 17 13 12 15 17 19 18 21 24 23 20 19 20 20 19 20 20 21 23 26 28 26 27 26 27 29 30
17 19 23 18 20 20 18 16 15 16 16 17 20 11 19 19 24 21 17 16 17 20 20 18 18 19 18 15 15 17 19 18 18 19 21 22 24 24 25 27 29 29 31 32
22 16 17 23 20 16 15 12 9 11 12 7 18 17 12 12 11 5 3 3 6 5 5 9 12 10 9 9 10 15 15 17 19 19 19 19 20 20 21 23 25 28 30 31
24 24 21 16 21 21 18 13 3 3 2 5 5 11 19 10 6 6 5 4 8 13 20 22 18 17 16 18 20 16 16 14 15 16 16 17 17 19 19 17 18 20 22 23
24 14 27 26 26 22 20 21 10 7 4 4 7 9 3 4 10 11 11 13 13 13 14 19 22 21 17 13 12 11 12 13 14 16 17 18 17 16 15 15 14 13 12 12
22 20 15 26 24 21 22 27 20 9 9 3 8 13 14 11 8 7 10 15 12 17 17 20 12 9 10 11 12 11 12 15 17 17 15 15 14 14 13 14 15 16 19 22
19 10 19 24 24 29 28 21 14 12 2 4 6 8 11 7 0 10 19 12 15 12 7 4 5 10 10 10 12 13 14 15 16 16 17 16 18 20 19 21 22 23 26 30
32 20 11 22 28 29 27 25 18 14 16 5 1 6 5 5 8 14 14 9 3 4 2 4 5 2 3 7 10 12 14 16 18 19 21 21 24 26 27 29 30 31 37 40
39 20 22 26 22 28 30 31 34 20 8 17 18 18 5 11 16 15 13 11 4 2 6 7 6 7 8 11 13 15 19 20 23 26 28 31 34 35 37 39 40 43 45 46
34 20 15 9 21 20 26 32 29 34 25 30 11 11 23 20 20 15 16 12 6 17 24 25 25 25 27 24 25 28 32 33 33 34 37 39 42 41 44 45 48 49 50 49
22 24 24 21 13 21 36 34 33 34 30 35 41 35 16 15 23 25 18 15 23 29 33 31 31 29 31 35 38 39 38 40 42 45 48 48 49 52 53 52 52 53 53 47
23 23 25 15 9 11 15 29 34 37 39 28 37 42 45 40 35 33 38 41 41 39 36 34 34 37 37 38 39 41 42 43 49 46 47 49 52 52 55 56 55 52 51 48
25 20 26 30 24 21 25 26 26 29 34 41 41 50 43 35 34 36 37 40 41 40 39 39 38 37 32 30 31 31 34 36 38 39 39 40 42 44 45 47 49 50 51 52
25 22 21 16 21 16 19 41 36 35 33 34 38 38 35 37 41 38 33 30 29 30 31 30 31 32 34 35 35 34 33 35 38 41 40 39 40 41 41 43 44 46 46 46
25 27 21 13 16 6 21 24 18 22 24 25 31 38 35 34 30 24 24 26 30 33 36 41 43 41 38 37 36 36 36 36 38 40 43 45 46 48 49 48 46 45 44 44
26 26 15 8 13 12 19 16 12 15 20 23 29 33 32 30 27 27 35 42 44 43 42 42 42 41 39 37 37 38 37 40 43 45 48 49 48 48 48 48 49 49 48 45
22 22 25 18 6 7 35 26 21 23 26 27 24 27 31 33 40 43 37 34 34 37 40 42 42 39 37 40 43 44 46 48 48 48 48 44 39 37 40 43 44 48 51 50
34 33 33 28 18 20 41 34 22 16 30 29 30 32 33 34 36 39 39 37 36 37 38 39 42 45 50 51 53 48 44 41 44 43 43 44 46 42 37 41 46 47 49 50
33 28 28 23 14 19 40 34 27 27 26 26 27 26 31 34 37 39 40 41 43 45 48 50 53 53 50 51 54 53 52 51 48 48 46 47 46 44 41 38 46 49 52 52
25 31 26 23 27 29 26 25 20 20 23 28 32 36 39 38 39 40 43 46 47 48 50 51 53 53 53 54 57 58 55 52 50 46 46 44 48 47 43 40 42 49 53 58
34 31 31 32 37 34 34 34 29 24 25 29 33 36 37 40 43 46 47 49 52 55 59 61 61 61 59 52 49 48 46 46 46 45 43 44 43 46 46 46 44 47 50 45
34 33 39 39 41 37 35 37 37 32 32 35 38 42 43 45 50 51 53 54 55 56 55 54 53 53 51 49 48 47 46 47 49 47 47 44 42 43 45 41 41 44 45 39
39 40 40 40 36 36 37 38 39 40 41 41 44 47 48 46 45 46 48 50 53 55 55 55 55 55 54 53 51 50 49 49 46 45 44 45 45 44 42 37 37 37 28 18

GFSCGP_700_spd_069.txt.gz
Wind_Speed
27 27 29 24 20 19 13 14 12 13 14 14 17 19 16 15 17 14 15 14 16 16 11 15 14 14 15 16 15 14 15 14 17 18 18 18 19 19 19 19 20 21 22 22
25 28 21 20 20 19 16 14 12 10 11 13 16 22 19 16 18 16 16 15 16 16 15 17 19 19 17 16 16 18 17 18 18 19 18 20 21 22 22 23 24 25 25 26
24 16 23 22 21 21 20 18 14 12 12 16 21 28 23 20 18 18 15 12 11 13 15 17 20 21 20 20 19 19 18 19 20 20 21 21 23 23 24 24 24 25 27 28
19 22 17 23 20 19 20 16 15 13 12 7 10 10 21 19 18 17 10 12 14 16 16 18 18 19 20 20 20 20 20 19 19 20 20 20 22 23 23 27 27 28 30 30
20 20 22 18 20 18 16 12 12 12 13 15 18 10 11 10 13 15 16 15 17 18 19 19 17 17 18 18 17 19 23 22 21 21 20 20 21 22 24 25 26 29 31 32
22 16 20 22 18 20 16 14 10 9 8 6 15 15 9 5 2 5 5 5 7 9 10 8 6 8 8 8 9 10 12 15 18 20 21 20 22 23 23 22 24 25 28 30
26 21 21 18 24 18 18 13 1 2 1 5 5 10 17 5 8 9 7 4 5 6 8 11 11 9 14 14 15 16 16 18 21 20 19 21 21 20 19 20 20 21 22 21
25 14 26 21 23 27 23 21 9 7 4 3 6 7 2 10 10 14 10 8 10 11 12 11 11 12 12 13 13 13 12 12 14 16 17 18 18 20 22 22 21 18 17 16
25 20 16 27 26 21 24 28 21 4 3 2 6 9 9 8 5 10 14 12 9 11 12 14 12 10 7 11 13 13 12 14 14 15 16 17 17 18 18 17 17 15 16 18
17 10 19 25 24 27 25 22 16 14 2 3 4 7 8 3 14 11 13 12 13 12 9 8 7 9 11 12 11 12 14 15 16 17 17 17 18 20 21 21 22 23 25 26
28 22 13 25 31 34 28 23 17 13 14 5 1 4 5 18 13 17 19 18 13 11 9 8 6 7 9 10 12 13 14 16 17 19 20 21 24 26 27 29 30 31 34 35
37 20 18 24 28 29 32 34 35 20 8 14 14 10 6 15 22 22 20 18 15 12 13 13 9 8 8 10 12 14 16 18 21 22 23 27 31 34 37 38 40 40 42 43
42 24 15 10 20 28 34 33 31 35 22 26 10 7 21 18 17 17 22 20 18 15 13 14 14 14 17 20 23 26 29 31 32 33 35 37 40 41 43 44 45 46 47 49
26 34 31 27 21 29 32 36 35 33 29 32 34 22 19 24 22 19 24 23 23 23 21 23 26 30 32 33 34 34 37 39 40 43 46 47 46 45 46 46 47 49 50 51
24 24 28 28 27 20 28 38 36 42 44 26 41 41 36 29 26 25 29 31 31 31 34 37 38 40 42 41 39 38 40 42 44 46 49 50 51 50 48 47 46 46 47 48
30 17 21 22 17 18 19 21 28 38 41 43 45 43 37 26 30 36 39 41 39 42 45 45 44 41 37 35 34 36 37 37 38 38 39 42 43 44 45 46 46 47 47 48
30 29 19 13 22 22 22 41 34 34 36 36 41 42 37 36 34 35 34 33 37 39 38 36 35 35 34 35 37 37 38 40 42 42 42 43 44 44 46 48 49 50 50 51
21 22 20 8 14 5 18 21 24 27 32 37 36 33 34 34 36 37 36 32 28 28 29 32 38 41 43 45 45 42 39 38 39 39 40 41 44 46 49 51 54 56 57 55
27 26 15 12 19 20 24 25 22 24 26 25 29 29 29 31 31 29 28 28 31 34 39 41 39 38 38 40 41 41 41 40 42 45 47 50 52 52 51 53 53 52 52 53
28 26 27 15 8 9 22 18 15 14 21 25 28 29 30 31 31 30 33 35 37 39 38 38 40 40 39 38 40 41 43 46 50 52 50 51 49 48 47 46 46 47 48 47
28 29 27 23 11 14 22 19 14 13 28 20 20 27 30 32 34 36 36 34 36 38 39 39 40 43 45 48 50 50 50 49 49 50 49 50 50 52 51 52 52 53 53 54
33 23 27 26 17 17 30 23 30 30 30 31 29 28 27 27 29 31 35 37 39 40 42 43 46 48 49 50 52 54 55 56 56 56 56 55 54 52 50 52 52 51 51 50
27 34 31 25 26 33 31 28 22 19 18 21 24 27 32 33 36 37 39 40 43 45 47 49 51 52 53 56 61 62 62 61 58 54 51 49 48 47 45 46 48 49 50 49
33 28 32 29 33 30 30 26 21 22 25 27 32 34 36 41 43 44 44 45 47 49 51 55 59 61 62 58 56 57 58 57 56 54 51 49 49 47 45 43 44 48 48 50
35 31 36 35 36 32 28 30 31 26 25 27 30 34 38 40 44 47 51 53 55 58 60 60 60 61 60 58 58 57 58 57 55 53 51 48 45 44 43 42 44 46 47 46
43 42 40 41 36 34 33 32 35 35 37 41 43 45 47 49 51 52 53 54 56 57 57 57 57 58 57 57 56 55 56 56 53 49 47 46 46 45 44 44 45 45 38 36

GFSCGP_700_spd_072.txt.gz
Wind_Speed
29 29 32 27 21 18 10 14 15 14 15 14 16 17 16 17 19 14 13 13 12 12 12 15 14 15 16 16 14 13 15 14 17 17 16 16 15 16 16 17 18 19 21 22
27 31 24 21 21 20 18 13 13 12 12 14 17 21 18 18 18 16 15 13 13 14 14 17 18 18 17 17 17 17 15 17 17 18 17 19 19 19 19 20 21 21 22 24
29 21 24 24 23 22 20 17 15 11 9 12 17 25 19 18 18 16 17 14 14 14 14 18 19 19 19 19 19 20 19 19 19 21 22 21 22 21 21 21 22 24 26 28
21 26 20 24 23 21 21 18 16 13 11 6 8 8 14 12 11 14 16 17 18 19 18 17 18 18 17 18 18 20 22 24 24 24 24 24 24 24 21 24 24 26 29 31
22 23 23 22 23 19 18 15 14 11 11 11 14 8 4 2 7 13 14 15 17 18 19 18 18 17 18 18 18 19 21 22 23 23 24 24 24 23 23 23 24 26 27 29
21 17 19 20 19 19 15 14 10 8 9 5 11 12 6 4 6 7 9 11 11 11 12 13 11 8 7 8 9 11 13 16 20 22 23 23 22 23 23 24 24 24 25 26
26 19 20 20 21 20 20 14 3 1 1 4 6 10 15 6 6 8 8 9 9 8 8 7 7 9 11 14 14 14 14 16 18 20 21 22 22 23 23 22 23 23 24 24
27 14 28 24 26 27 24 23 8 7 4 2 8 7 4 15 18 18 15 11 10 7 7 6 7 8 10 13 16 18 17 16 16 19 20 19 19 19 19 21 23 22 22 20
28 20 26 22 25 24 25 25 22 4 2 0 5 8 7 9 11 12 18 16 12 8 9 10 11 10 14 10 13 15 15 16 16 16 17 18 21 21 21 21 20 19 20 20
16 12 18 27 25 24 23 26 15 11 3 3 4 7 10 17 18 12 14 15 13 13 14 14 15 14 14 12 13 13 14 14 14 14 15 17 18 19 20 21 22 24 26 27
27 17 15 28 31 35 31 24 17 13 8 5 2 5 15 12 16 19 20 17 17 13 11 10 10 10 11 11 11 12 13 14 15 16 17 19 22 24 26 27 29 32 34 36
36 20 14 30 28 32 33 32 34 19 8 13 5 7 9 16 18 17 18 19 19 16 15 15 14 12 11 11 12 13 14 17 19 20 22 25 26 29 31 34 36 40 43 45
40 22 14 11 22 31 35 35 33 33 17 24 10 8 16 21 20 22 24 23 22 21 21 18 17 17 16 16 17 20 24 27 28 30 33 35 36 37 39 38 42 43 46 46
33 35 31 28 22 29 36 37 36 33 27 28 29 18 22 18 22 24 25 26 25 22 21 21 23 24 26 28 31 34 37 38 39 41 40 39 41 38 39 42 43 43 42 43
31 33 36 34 29 19 32 39 36 38 41 27 36 33 29 24 23 27 29 26 24 25 26 27 30 33 37 39 41 39 38 37 35 35 36 39 39 38 41 41 42 43 44 45
34 19 32 33 31 28 28 26 33 40 42 43 45 38 30 27 28 33 32 29 29 32 36 40 42 45 45 41 36 35 34 34 36 38 40 42 44 45 45 45 45 45 47 48
38 28 23 19 26 24 24 41 37 38 41 42 44 42 39 34 30 31 35 38 40 42 39 37 38 37 33 33 33 35 38 41 43 44 44 44 45 45 45 46 48 48 49 52
41 35 23 16 22 7 24 30 37 37 34 34 36 36 33 30 29 31 33 35 36 36 35 33 33 32 32 36 40 39 38 39 40 41 42 42 44 46 48 49 51 52 52 53
34 37 16 10 15 8 19 21 23 24 30 32 34 32 32 32 32 33 33 31 32 32 32 33 33 35 38 40 41 41 40 40 41 43 45 46 47 47 48 49 50 50 52 52
21 23 26 16 7 8 15 19 22 21 28 25 22 22 23 22 24 27 28 29 30 32 34 36 39 38 39 40 40 41 42 43 45 45 45 47 50 52 53 54 56 57 57 57
27 33 31 24 13 12 19 13 17 19 14 12 16 19 24 26 27 26 28 30 32 34 34 36 39 41 42 44 46 47 48 48 50 53 55 55 53 52 52 53 51 52 52 51
34 19 20 20 11 14 18 21 25 24 22 22 20 20 21 23 26 28 29 29 32 36 39 41 43 44 45 48 50 51 52 55 56 56 55 55 54 53 53 53 53 52 51 50
31 31 29 22 21 24 16 21 23 23 23 21 19 16 16 21 26 30 34 35 38 40 42 44 46 48 49 50 54 56 57 57 57 56 55 55 53 52 51 52 50 48 47 47
30 28 31 26 28 26 27 28 28 25 25 24 26 28 29 31 34 36 38 40 43 45 47 49 52 54 55 56 56 57 58 58 58 58 56 55 54 52 50 49 48 47 45 44
29 29 31 32 31 24 26 29 29 26 25 27 30 33 36 37 37 40 42 43 46 50 53 55 55 56 55 54 53 53 55 57 58 59 59 59 57 54 52 49 47 46 45 46
35 36 35 37 34 33 30 28 30 30 30 32 34 33 35 36 39 42 46 51 53 52 52 51 50 50 51 52 53 54 56 59 60 61 59 58 55 52 50 47 45 45 43 43

GFSCGP_700_spd_075.txt.gz
Wind_Speed
31 30 33 29 24 21 19 18 18 13 19 15 19 18 17 18 18 15 13 13 12 12 14 17 16 16 16 15 13 14 16 15 19 18 18 18 17 18 18 18 19 20 21 22
30 33 28 25 23 21 13 15 15 14 14 14 16 17 17 18 19 17 16 15 15 14 16 19 19 18 17 16 15 16 15 17 18 18 18 20 20 20 20 21 20 21 22 24
31 27 26 26 26 24 21 17 14 11 11 12 15 21 18 18 19 19 19 17 18 17 16 18 18 19 19 18 18 18 18 19 20 21 22 21 23 21 20 21 23 24 26 27
25 23 28 26 25 23 22 17 14 13 10 5 6 6 6 9 13 15 17 17 17 18 17 18 18 17 17 17 17 18 21 23 23 24 24 23 23 23 21 23 24 24 27 28
25 25 19 30 26 23 19 15 15 14 11 10 11 7 6 9 12 14 14 16 19 20 20 20 19 19 17 17 19 19 21 22 24 25 25 25 25 23 23 24 23 24 26 29
22 18 23 22 25 21 17 16 12 10 8 4 12 12 7 10 14 17 14 14 17 18 18 15 15 15 14 13 13 15 18 21 23 24 24 24 24 24 24 25 25 25 27 28
23 19 24 21 21 22 21 19 5 1 2 5 10 12 13 8 12 11 10 10 10 11 12 11 10 9 9 10 11 11 11 12 13 16 19 22 23 24 24 24 25 25 24 24
30 15 27 22 28 26 27 27 9 7 4 3 11 9 7 19 20 13 14 12 12 11 11 10 8 7 7 9 11 13 14 15 15 16 18 20 21 21 21 22 22 23 24 25
28 19 27 20 29 23 31 31 20 5 4 2 6 7 9 15 19 19 18 19 15 13 11 9 9 9 11 11 11 11 11 12 13 14 15 15 15 15 17 18 20 20 21 21
14 17 19 27 29 28 23 28 15 10 3 3 5 8 12 19 16 16 16 17 17 14 12 11 9 11 12 12 10 9 10 12 13 13 14 14 16 17 18 20 23 25 26 28
28 17 18 29 32 36 28 26 17 15 8 5 3 6 15 17 22 19 16 16 15 14 14 13 13 13 12 12 12 12 11 11 12 13 15 16 18 20 22 24 26 29 32 35
36 21 13 34 29 32 34 28 34 18 10 13 4 4 10 18 17 19 19 18 17 17 15 16 15 15 14 13 13 13 13 14 15 17 19 21 23 26 29 32 35 38 40 42
42 22 13 10 22 31 35 38 36 35 18 21 10 8 17 18 20 20 20 20 21 20 19 19 19 18 18 18 19 19 20 21 24 27 29 32 34 35 35 35 37 38 39 40
38 34 34 29 29 35 41 42 38 37 28 23 29 21 17 22 24 23 25 26 25 24 24 24 23 22 21 23 24 26 30 34 37 37 36 37 37 36 36 36 37 37 39 40
32 36 36 37 34 22 33 40 40 40 41 28 43 36 29 26 22 23 29 30 29 29 28 26 25 25 26 28 32 36 40 44 43 41 38 37 38 39 39 40 40 41 42 44
38 24 37 38 33 28 28 24 30 40 41 44 43 32 28 24 28 26 28 31 31 31 30 27 29 31 34 37 40 40 41 39 37 37 39 40 42 44 45 45 46 47 48 50
40 38 27 29 32 27 22 41 36 37 39 42 45 43 34 28 28 29 32 33 34 33 33 34 37 39 40 39 35 33 34 34 36 38 39 41 42 43 44 45 46 48 49 50
37 39 25 17 19 6 32 38 41 41 40 40 42 41 37 32 27 28 31 32 34 37 37 36 34 32 31 31 32 33 35 38 40 40 40 41 43 44 46 46 47 49 50 51
39 37 24 16 24 13 27 34 34 38 43 41 39 39 34 28 24 27 32 33 33 31 31 28 26 27 28 30 33 34 34 36 38 39 41 42 45 46 48 49 51 52 54 54
47 44 41 18 10 14 34 30 23 24 37 34 34 35 34 33 33 32 31 30 28 27 27 27 27 28 30 31 33 36 37 40 41 43 45 46 48 49 51 52 54 55 56 56
28 36 38 24 12 13 17 16 23 24 18 20 25 25 26 28 23 20 21 23 24 26 28 29 30 31 34 37 40 41 42 46 47 48 49 48 48 50 51 53 54 54 55 55
31 22 19 21 13 10 13 20 25 18 16 13 18 20 19 18 21 21 21 22 24 26 27 29 33 36 38 42 44 45 47 49 50 50 50 50 50 52 53 54 55 55 56 57
18 25 18 16 16 11 13 18 20 21 18 19 19 21 21 23 25 24 22 22 26 30 32 35 37 40 41 45 48 50 50 52 53 53 53 53 53 54 56 57 58 58 57 56
32 30 31 27 34 30 26 22 18 19 17 18 19 17 16 19 22 26 29 29 30 32 34 37 41 44 46 49 50 50 51 52 54 55 55 56 57 58 57 58 57 57 58 56
30 31 31 32 31 25 25 25 25 27 25 23 22 21 23 26 27 26 28 31 33 35 38 42 46 49 49 47 46 45 47 51 53 55 57 59 60 61 61 60 58 56 53 52
32 33 32 34 33 31 27 23 22 23 23 25 27 29 28 28 29 30 31 33 35 39 43 46 45 44 42 43 44 46 50 53 56 58 60 61 62 62 61 60 57 50 49 48

GFSCGP_700_spd_078.txt.gz
Wind_Speed
33 32 35 33 31 27 27 26 18 22 21 20 22 21 19 18 15 14 16 16 16 16 18 19 19 18 19 19 20 20 20 19 22 21 21 21 19 20 20 20 21 22 23 23
33 31 32 32 29 26 22 19 24 17 19 19 18 20 19 21 20 19 19 19 18 17 19 20 21 21 20 19 18 19 18 20 21 22 22 23 23 23 23 23 23 23 25 27
29 29 31 31 29 25 17 20 21 18 17 15 14 19 20 21 21 20 19 20 20 19 20 21 22 22 22 22 21 20 21 21 22 23 24 24 24 23 23 23 26 28 29 30
25 26 32 30 29 26 23 18 14 13 11 7 11 5 11 21 23 22 21 21 21 21 21 22 21 20 20 21 23 23 23 23 24 26 25 25 25 24 24 25 27 28 29 30
26 31 24 27 28 25 23 18 16 14 13 9 11 6 11 19 18 18 19 19 20 21 21 22 22 21 19 19 20 21 23 25 27 28 27 27 26 25 26 27 28 29 29 29
24 21 26 30 27 25 19 19 15 11 8 4 12 12 8 13 15 17 18 18 18 20 20 21 21 22 21 19 19 20 22 24 25 26 27 27 27 26 26 26 27 27 28 28
25 22 27 22 27 24 24 20 6 4 5 4 11 14 17 14 16 18 18 18 17 17 17 16 16 15 13 11 11 11 12 12 12 14 18 21 23 24 25 26 27 27 27 28
27 14 28 26 30 31 29 26 11 7 5 5 12 10 10 22 18 18 17 15 14 14 13 12 11 11 10 9 9 10 12 13 15 16 17 19 21 23 23 24 25 24 23 23
25 14 29 24 31 28 33 31 17 6 5 3 7 10 11 20 26 22 20 17 16 13 12 12 12 11 10 10 11 11 11 11 12 13 14 15 16 17 18 18 18 19 19 20
19 17 25 27 30 28 26 29 15 8 5 5 6 9 12 22 24 26 26 22 22 18 15 14 13 12 11 9 9 10 9 9 11 11 12 13 13 14 15 17 19 22 24 26
22 18 19 30 31 35 29 29 22 16 10 5 4 7 13 18 23 22 23 22 21 20 18 17 16 14 12 11 11 11 12 12 12 13 14 15 16 18 19 22 24 27 30 34
32 19 18 34 30 32 35 28 34 16 10 18 4 7 9 22 21 23 22 22 20 20 18 17 16 15 14 13 14 14 14 14 14 15 16 18 20 23 26 29 33 36 39 41
41 20 12 9 19 31 37 38 34 30 18 21 12 11 19 18 25 25 24 22 21 22 20 19 18 18 17 18 19 17 19 19 20 21 24 28 32 36 38 40 41 42 43 43
33 27 32 27 35 36 42 44 42 40 26 25 33 23 16 24 27 26 25 24 23 23 23 23 22 22 22 23 23 23 24 26 27 29 32 36 41 42 40 39 39 41 42 44
37 40 37 36 31 27 39 42 44 46 47 30 42 35 30 25 23 23 25 28 28 28 29 28 27 27 27 26 25 26 28 30 33 36 39 41 46 43 40 40 41 42 44 46
37 24 43 44 40 29 29 29 34 46 47 47 37 30 30 27 26 29 30 31 31 34 33 32 31 30 29 27 28 30 32 36 39 39 39 39 41 41 42 44 45 46 47 49
42 38 29 28 32 27 22 48 40 37 38 43 44 47 37 31 30 31 32 33 34 36 35 35 33 32 30 31 33 35 38 40 37 36 38 40 42 43 43 43 45 46 47 48
41 45 32 23 18 7 40 35 42 43 43 43 42 43 40 37 31 30 35 37 37 39 39 35 33 34 34 32 31 32 33 34 35 36 38 40 40 42 43 45 47 49 51 53
39 44 30 21 23 17 32 42 42 46 51 46 44 43 40 36 29 31 37 41 40 40 39 37 36 33 31 30 30 31 32 34 35 36 38 40 43 45 47 49 51 53 55 56
40 44 41 24 14 14 41 34 26 27 43 40 42 44 41 37 36 39 37 40 41 39 36 33 32 30 28 28 29 30 32 34 37 39 41 44 46 49 51 52 53 54 56 57
42 38 39 31 15 20 34 27 22 28 36 36 35 35 40 42 35 28 30 32 34 35 33 30 28 27 28 29 30 32 36 39 41 44 46 47 48 50 50 52 52 54 57 59
43 34 30 30 25 24 27 26 33 30 30 14 15 23 28 29 29 28 30 30 28 27 26 27 27 27 29 32 35 38 41 44 46 47 47 47 48 48 50 53 55 56 57 59
31 39 38 32 33 27 20 26 22 20 16 16 14 17 26 26 26 23 22 24 25 26 26 25 27 31 34 36 39 41 44 46 46 46 46 48 49 51 52 55 57 58 59 59
26 38 27 27 31 30 19 19 17 21 19 18 18 22 24 22 21 22 24 25 23 23 25 28 31 33 35 38 41 44 44 44 44 46 46 48 51 53 54 57 59 60 61 60
23 22 30 34 30 26 31 23 20 22 23 25 26 25 26 26 25 25 24 24 26 28 30 32 34 35 37 40 41 40 40 41 43 46 48 51 54 56 59 61 62 62 59 57
26 28 28 31 30 30 29 24 25 26 28 26 22 21 21 22 24 26 26 27 28 29 31 32 35 38 38 36 34 35 38 41 44 47 51 55 58 61 63 65 65 59 57 55

GFSCGP_700_spd_081.txt.gz
Wind_Speed
34 29 35 32 28 24 22 25 16 19 26 21 25 24 22 19 14 18 15 18 18 18 20 19 19 19 21 21 21 21 21 21 22 22 22 22 21 21 21 21 23 24 25 25
32 31 26 23 27 26 25 22 19 20 22 25 23 26 23 23 21 20 19 21 20 21 20 20 20 20 20 19 19 20 21 22 22 22 22 23 24 23 23 24 24 25 26 28
28 23 25 29 32 30 20 21 21 16 20 21 21 24 23 23 23 23 23 22 22 23 22 22 22 21 21 22 21 21 21 22 23 24 24 24 25 23 24 24 24 26 29 30
21 23 29 32 31 26 21 22 22 21 14 10 16 5 15 23 25 24 23 23 24 23 23 23 23 22 23 23 23 24 25 25 24 25 27 24 25 25 25 26 27 28 29 30
21 33 29 30 27 27 16 18 16 16 12 9 11 8 14 14 21 27 26 25 25 24 24 23 23 22 21 20 21 21 25 27 27 27 28 27 26 26 27 27 28 29 30 29
25 21 20 25 30 28 16 18 14 12 8 7 13 13 12 14 22 23 22 23 23 23 23 23 24 24 22 21 20 20 20 22 25 26 27 28 28 27 27 27 27 28 27 27
22 23 32 29 30 28 24 21 8 6 6 4 14 14 16 15 18 19 22 23 23 23 23 22 23 22 21 20 18 18 19 19 19 20 21 22 23 24 25 25 24 24 25 27
22 12 28 25 27 27 31 26 10 7 6 7 12 11 12 24 20 19 21 23 21 20 19 17 16 16 15 14 13 13 13 13 14 15 16 17 18 19 20 21 22 23 23 23
24 16 31 27 30 28 27 27 18 4 5 3 9 10 12 19 24 25 23 20 17 16 15 14 14 14 13 13 11 10 11 12 14 14 13 13 14 15 16 17 17 18 19 20
18 16 24 27 29 30 27 29 15 10 6 5 8 8 12 20 24 28 26 22 19 17 16 16 15 15 13 12 11 10 10 11 9 9 10 10 11 13 14 15 17 19 22 24
18 18 19 28 28 29 28 27 20 14 11 4 4 7 14 22 18 22 26 24 23 20 20 18 17 16 15 14 13 11 11 11 12 12 12 13 14 14 14 17 20 23 27 30
24 16 15 27 20 27 29 24 35 18 8 12 4 8 5 12 23 21 23 25 27 24 22 21 20 19 17 15 14 14 14 14 15 14 15 16 18 19 21 24 29 34 39 42
37 14 12 9 19 31 35 35 30 24 15 18 11 10 17 15 18 21 22 23 24 24 23 23 23 22 20 18 18 18 17 17 18 20 20 22 25 27 29 33 38 42 46 45
37 31 29 25 28 24 37 42 41 35 21 25 28 21 19 19 21 22 22 26 26 25 26 26 25 24 22 21 21 21 21 22 24 24 25 28 30 33 37 40 42 40 42 43
33 35 32 32 22 18 26 39 41 42 48 26 45 29 28 29 24 21 25 29 31 31 29 28 26 26 26 25 25 25 25 26 26 27 29 32 35 39 42 43 42 42 44 46
40 26 35 35 32 29 26 28 32 42 44 47 38 28 26 26 20 27 27 31 31 30 28 28 29 31 31 30 29 28 29 30 30 31 34 37 40 42 41 40 43 44 44 45
41 42 30 28 35 32 25 46 44 41 42 45 49 47 37 33 30 29 29 29 30 32 35 34 35 35 35 33 31 31 32 32 34 36 37 37 39 40 41 42 43 44 45 47
40 42 32 21 21 7 43 42 43 49 49 44 42 40 41 41 37 29 30 34 35 35 39 40 40 39 37 35 34 33 34 35 35 35 37 38 39 40 41 42 44 47 50 52
38 41 27 17 22 16 26 38 39 41 52 48 50 48 43 40 31 32 35 36 35 38 42 43 42 40 38 36 34 35 34 35 35 35 36 38 39 40 43 46 49 51 54 54
35 40 37 18 16 11 50 39 25 31 40 48 44 43 46 41 42 46 39 36 37 44 45 45 43 41 38 36 34 31 34 36 35 35 36 38 41 44 47 50 51 52 53 55
37 40 38 38 15 22 39 25 24 26 45 40 35 34 38 42 41 43 40 37 40 46 49 48 46 41 35 31 36 36 34 34 35 36 39 42 45 47 49 51 51 53 54 56
43 32 29 33 22 26 36 28 36 41 38 37 32 29 31 36 38 41 39 34 39 47 51 49 39 37 42 34 31 32 33 35 38 40 43 45 46 47 48 51 52 53 55 56
30 36 40 35 42 37 27 36 29 30 32 29 26 22 24 30 35 35 34 33 34 43 44 44 40 35 32 31 31 33 36 38 41 43 45 45 45 46 47 48 50 54 58 61
38 39 33 37 38 41 41 33 20 22 27 22 20 16 16 21 25 27 29 30 32 36 38 35 32 31 30 31 34 37 39 41 43 43 42 42 43 43 44 49 53 57 60 61
27 36 41 44 42 29 38 28 23 25 25 20 19 16 15 19 23 24 25 25 27 28 28 27 28 30 32 34 37 40 41 41 40 40 40 39 39 44 49 51 55 58 59 59
23 30 36 36 37 28 21 23 23 24 28 23 20 19 23 25 25 23 24 24 24 24 26 28 30 32 34 37 38 40 39 37 37 37 36 39 43 46 49 54 57 59 60 59

GFSCGP_700_spd_084.txt.gz
Wind_Speed
35 34 39 43 35 23 23 26 24 24 21 22 25 23 22 19 13 19 16 17 17 16 19 17 16 17 18 18 18 17 17 17 18 18 18 19 19 20 20 20 21 22 24 24
33 40 34 35 26 30 19 28 21 21 26 22 19 24 24 25 20 17 18 17 20 22 19 18 18 17 17 17 18 19 18 18 17 19 20 20 21 21 21 22 22 24 25 26
33 30 22 29 30 30 20 28 28 21 19 20 23 27 26 26 26 24 22 19 21 19 19 19 19 19 18 18 18 17 17 18 19 18 21 22 22 20 21 23 24 25 27 28
21 21 26 33 31 29 23 23 22 23 16 12 20 5 15 25 24 25 25 24 25 23 23 22 22 21 20 19 20 21 21 22 23 22 22 20 21 22 23 24 24 24 25 26
23 31 31 31 31 30 17 20 21 19 17 11 16 8 9 15 23 27 27 27 26 24 25 23 23 23 22 22 22 22 23 24 26 27 25 24 23 23 24 23 23 23 24 25
22 26 27 30 30 28 19 20 18 16 15 5 12 18 9 21 19 19 28 28 26 26 26 25 25 24 23 22 21 21 21 21 22 25 26 26 23 23 23 23 22 22 22 23
22 26 31 28 29 27 22 26 7 3 4 5 16 15 17 9 16 20 23 23 24 25 24 23 23 22 21 20 20 20 21 20 19 20 20 22 21 22 21 20 21 21 22 22
19 13 33 30 38 32 32 29 9 6 4 4 10 10 15 28 18 19 19 21 24 24 24 22 22 21 20 18 17 16 15 13 12 13 15 16 16 16 15 16 17 18 18 19
26 14 29 25 34 27 31 32 12 8 7 4 8 11 13 19 20 28 25 21 24 23 22 21 20 19 18 16 15 14 12 11 12 13 14 13 12 11 11 11 11 12 12 15
20 15 25 30 31 28 30 33 20 10 5 3 9 7 14 19 27 22 26 26 23 21 20 19 17 16 16 15 13 12 12 11 12 11 9 9 9 10 10 11 12 14 15 17
21 22 22 29 25 34 29 33 16 15 6 5 3 6 8 17 12 23 24 25 21 19 19 18 17 16 16 14 14 13 12 11 11 11 12 12 12 12 13 14 15 18 21 24
24 16 17 30 24 27 35 32 35 20 6 8 3 5 8 11 18 16 19 22 23 22 20 18 18 18 18 18 18 16 13 14 15 14 13 13 15 15 16 19 21 24 28 33
32 13 14 9 19 28 33 34 36 25 17 19 10 7 11 10 8 12 18 19 23 23 24 22 22 22 23 23 19 16 16 17 17 16 16 17 19 20 22 23 27 31 34 38
36 22 23 22 26 34 38 41 38 36 23 25 28 24 30 20 15 16 16 18 20 22 24 25 27 26 25 23 20 20 20 20 19 20 20 21 23 25 26 29 33 36 38 40
37 36 31 26 14 17 30 42 40 36 44 31 44 33 28 21 18 14 14 16 19 24 28 31 30 28 27 25 25 25 24 23 23 24 25 25 27 28 31 34 37 38 40 42
39 25 35 33 27 20 20 19 27 42 44 44 36 28 29 25 25 29 27 25 25 28 31 31 31 29 29 29 29 28 27 26 27 28 27 29 31 33 35 38 39 40 40 41
33 35 21 25 27 27 18 32 29 27 32 36 46 38 41 36 35 33 28 25 23 26 32 34 33 32 32 33 31 30 30 31 30 30 30 32 34 36 38 40 40 40 42 43
39 35 23 10 16 4 34 37 33 37 40 39 39 37 36 37 39 37 33 27 27 30 33 34 35 35 36 36 35 35 34 34 33 33 33 34 35 36 38 38 40 42 44 47
33 45 32 28 22 24 31 37 41 38 48 42 43 44 43 39 35 34 34 33 29 29 34 36 37 38 41 40 38 38 36 34 34 35 34 35 35 38 38 39 41 44 48 50
31 32 34 18 11 12 57 46 28 29 40 43 41 41 39 40 41 49 44 41 37 35 37 40 40 44 45 44 42 40 37 36 36 34 34 38 41 39 39 41 44 47 50 52
34 32 36 34 14 21 34 27 22 26 43 32 32 36 38 42 42 38 39 43 41 36 36 41 47 47 46 45 43 40 38 35 32 35 41 39 39 40 42 44 46 48 48 48
38 27 28 29 22 26 42 32 35 38 38 40 36 31 25 26 26 28 35 38 37 36 38 41 46 47 47 47 43 39 36 33 42 38 36 38 39 41 43 44 45 45 46 49
33 34 37 29 40 23 28 33 30 31 33 34 33 30 32 31 31 31 33 36 35 35 36 40 44 46 47 45 40 35 39 39 33 36 37 38 39 41 41 42 42 43 46 49
41 41 45 39 46 46 50 46 29 20 24 27 28 29 29 29 30 31 32 32 33 33 34 37 43 46 44 40 39 44 32 33 36 37 38 40 39 38 38 38 40 45 46 46
27 43 45 48 47 39 41 44 36 34 32 25 25 26 28 29 30 30 28 27 28 29 31 34 38 39 42 41 30 31 35 36 37 38 39 38 37 36 36 37 39 39 40 44
22 21 27 35 41 36 37 26 20 28 27 24 21 22 22 17 16 17 21 22 23 24 25 27 30 32 29 31 35 36 37 38 39 39 37 35 33 32 35 38 37 39 42 45

GFSCGP_700_spd_087.txt.gz
Wind_Speed
51 49 45 39 33 26 27 25 30 26 28 26 24 23 17 15 14 18 18 19 19 17 17 18 17 15 16 15 15 14 13 15 16 15 15 16 16 17 17 18 19 21 21 21
52 56 46 37 32 26 27 25 31 29 27 25 27 28 24 25 21 15 19 19 17 20 19 18 17 16 14 14 14 14 14 15 16 16 17 17 18 18 18 19 19 20 22 23
58 42 41 34 32 34 29 33 28 29 25 21 20 23 29 29 25 23 22 19 21 19 20 19 19 18 16 16 15 15 15 15 16 18 19 19 18 17 19 19 20 22 22 23
32 16 32 28 33 36 36 22 32 27 27 18 22 7 26 30 28 26 25 24 23 21 20 19 19 19 17 17 17 16 18 19 18 18 18 19 18 18 19 20 21 22 21 22
34 31 33 32 39 33 25 21 25 28 22 18 18 11 20 17 31 30 27 29 28 26 23 21 21 21 21 20 20 20 21 23 22 21 21 22 22 19 20 20 20 20 21 20
22 23 30 32 32 33 20 24 19 19 19 9 19 23 13 24 19 28 29 29 29 27 26 25 24 23 23 23 22 23 23 22 23 19 20 22 23 20 20 21 20 20 19 19
26 26 31 29 34 30 32 30 7 3 5 5 19 19 17 17 21 18 18 23 29 27 28 27 26 24 25 25 25 25 23 22 21 19 20 21 20 20 21 19 17 17 16 16
30 20 38 34 38 33 37 33 12 6 4 4 11 11 11 23 16 22 22 22 24 26 28 29 28 26 25 25 25 24 24 23 22 21 20 19 17 16 14 14 14 13 13 13
29 20 33 30 39 34 37 37 22 9 7 6 11 11 11 24 29 27 16 18 22 25 26 27 26 25 23 21 19 18 17 16 16 15 15 14 14 13 13 12 10 9 10 11
26 17 33 30 34 31 38 39 17 10 5 3 4 7 16 23 23 22 29 28 27 24 23 23 23 22 21 19 17 16 16 16 15 14 14 12 12 11 10 9 9 10 11 12
19 30 24 32 30 38 31 41 22 18 6 5 3 7 14 26 13 19 27 25 25 25 22 21 21 20 19 17 16 16 17 16 14 11 12 13 12 11 11 11 12 13 15 17
22 23 23 36 23 32 37 37 41 22 12 9 4 6 12 13 21 15 18 22 23 23 21 20 20 18 17 17 18 19 18 15 13 14 15 14 12 12 14 14 15 17 20 23
29 14 14 12 24 28 36 37 42 34 26 23 9 5 12 11 10 15 17 18 21 22 22 21 20 20 21 22 23 21 19 17 17 17 16 15 15 16 17 18 20 21 24 27
35 18 26 24 35 36 36 40 35 36 24 23 29 29 21 17 14 13 13 14 19 20 20 20 23 23 24 25 25 23 22 21 20 19 19 19 19 19 20 21 23 26 28 31
34 26 23 23 18 32 42 44 45 44 48 35 43 37 34 31 27 20 14 13 14 16 18 20 25 27 27 28 27 26 25 24 23 22 22 22 22 23 23 25 26 29 31 34
45 28 29 21 21 15 23 33 41 44 44 46 34 33 28 27 19 19 18 19 18 19 18 20 25 29 30 31 29 29 29 28 27 25 26 26 26 26 27 27 29 31 34 36
39 34 22 28 21 17 15 26 28 35 44 45 45 42 37 32 30 28 27 27 25 24 23 20 25 30 33 34 33 32 32 31 30 30 30 29 29 29 30 31 31 33 36 37
35 34 23 10 17 3 32 34 29 31 31 32 32 30 32 30 32 32 32 29 26 23 24 25 28 32 35 35 35 36 36 35 34 33 32 31 31 32 32 33 33 36 38 38
35 31 17 12 16 11 24 31 35 42 44 39 37 32 30 30 30 35 34 32 30 28 27 28 29 31 35 38 39 39 38 38 37 35 34 34 34 33 32 33 38 40 38 41
36 36 34 16 9 9 57 30 25 15 33 38 39 40 38 35 37 42 36 34 36 36 34 33 34 36 39 41 41 41 41 40 39 38 37 36 35 34 33 38 40 40 42 44
31 32 33 27 12 22 38 28 21 28 47 33 29 35 30 33 33 27 29 31 34 38 37 34 36 40 40 42 44 44 43 42 41 40 39 37 35 34 39 41 40 42 43 45
36 27 23 22 25 26 24 19 30 36 20 28 28 25 26 24 21 22 23 22 28 33 34 35 38 40 42 45 46 46 44 44 43 41 39 37 37 40 39 40 42 44 45 43
33 36 38 38 54 22 28 32 30 30 31 33 32 31 31 30 29 28 31 33 31 30 29 32 36 40 42 45 47 47 46 45 43 40 38 38 42 40 39 41 42 41 39 38
35 36 35 36 41 46 45 38 26 23 26 25 23 24 25 29 31 31 29 27 29 32 33 31 33 38 43 44 46 47 47 43 41 39 39 42 36 37 39 41 40 37 35 35
39 40 40 41 40 30 31 32 33 34 37 42 40 33 30 30 31 29 28 30 33 32 30 30 32 35 39 40 42 44 42 42 38 41 35 35 36 38 39 37 35 34 35 37
36 33 35 38 41 43 43 37 28 24 27 32 34 34 34 35 30 32 33 34 33 29 27 27 31 34 34 37 40 42 43 41 36 33 37 37 38 38 35 33 31 33 35 36

GFSCGP_700_spd_090.txt.gz
Wind_Speed
45 52 58 59 49 25 29 26 34 32 30 30 29 27 24 25 25 25 24 22 20 19 19 20 18 18 17 17 16 15 15 15 16 14 15 15 15 16 16 16 17 17 17 18
47 58 60 49 43 29 18 31 29 32 35 32 29 29 23 25 25 23 23 23 21 21 22 21 19 18 16 15 15 15 15 16 16 16 16 17 17 17 17 18 17 18 19 20
51 53 56 52 45 38 26 35 33 36 31 33 31 32 33 30 28 25 23 24 24 21 22 21 20 19 18 17 16 16 16 17 18 18 19 18 18 17 18 17 19 20 20 20
39 13 46 53 44 39 31 33 26 29 33 24 30 12 38 37 35 33 30 27 23 25 23 24 22 20 19 18 17 17 17 17 18 20 19 18 18 18 19 19 19 20 20 21
38 33 34 60 60 43 32 32 24 22 29 30 29 16 26 33 39 37 34 30 29 26 24 23 22 22 21 20 20 20 20 19 19 20 21 21 22 21 22 20 20 20 21 21
20 38 27 51 49 39 25 26 22 25 29 16 28 30 25 33 34 37 35 33 33 30 27 25 24 24 23 23 23 23 24 22 21 22 23 23 24 24 24 22 21 21 21 21
17 22 26 29 38 28 33 29 9 6 8 8 29 23 33 20 30 27 32 35 33 32 30 27 27 26 26 26 26 27 26 23 22 21 22 22 23 21 20 22 21 21 19 18
22 16 29 31 47 43 41 38 17 7 6 5 9 15 21 29 21 28 23 29 32 31 31 29 29 29 28 28 28 28 27 25 23 23 24 24 22 19 19 19 18 17 15 14
30 17 36 33 40 43 39 45 35 8 4 5 16 20 7 28 28 27 30 29 27 28 29 32 32 30 30 29 29 28 25 25 24 24 25 23 21 20 17 17 15 14 12 11
19 19 35 31 37 36 36 42 24 17 5 4 5 9 18 26 32 31 27 26 28 29 29 29 28 28 27 27 26 25 24 24 24 23 23 20 18 18 18 15 13 12 12 11
19 33 24 39 32 36 37 39 36 30 11 6 2 7 18 29 26 26 28 32 30 26 24 25 26 27 26 25 23 22 22 22 22 22 19 18 18 18 16 15 14 13 12 13
38 25 31 35 32 34 40 37 39 25 10 7 3 7 13 22 30 22 23 27 28 29 29 28 27 25 24 23 22 22 22 22 21 20 18 19 18 16 16 15 14 14 15 17
39 16 15 25 33 34 35 40 42 37 27 26 13 8 11 13 17 28 22 23 28 29 29 28 25 23 21 22 23 23 23 22 21 20 20 19 18 18 17 17 17 17 19 21
37 20 29 27 36 32 36 44 43 45 33 27 33 21 18 17 19 20 23 20 21 23 24 22 21 23 25 25 23 23 25 24 23 23 23 21 21 21 20 20 21 22 23 24
34 30 27 35 38 33 41 43 46 44 48 35 43 33 34 22 15 13 11 10 13 18 21 22 25 25 26 26 26 27 27 27 26 26 24 23 22 23 24 23 24 24 25 27
41 27 29 27 29 36 34 45 47 49 44 45 40 36 34 35 37 34 28 24 22 20 19 21 23 23 25 26 26 28 30 30 28 28 27 27 26 26 25 26 26 26 28 29
53 34 28 21 20 20 23 32 39 46 49 49 46 46 41 32 30 29 26 21 19 18 16 17 19 17 19 24 28 30 31 31 31 32 31 29 28 28 29 29 29 30 30 31
40 42 28 13 17 2 27 29 28 29 32 42 47 45 42 40 37 29 27 27 27 24 24 23 24 20 22 26 30 32 35 36 36 34 33 33 33 32 32 32 31 31 31 32
32 33 24 17 19 20 35 41 37 36 36 29 28 25 26 33 31 34 31 29 27 24 21 23 23 25 26 28 31 35 39 40 39 37 37 36 36 35 34 34 33 31 32 35
24 23 25 14 12 13 24 26 36 25 39 38 39 38 33 27 32 33 24 23 25 27 29 29 30 31 32 33 35 38 41 42 41 40 40 39 38 38 37 35 34 33 35 36
42 37 31 30 14 23 16 13 18 16 37 27 34 32 35 40 39 31 28 27 28 32 33 33 31 30 32 34 37 39 42 43 43 44 43 42 41 40 38 36 34 34 35 37
36 29 22 31 20 22 18 22 31 39 21 24 19 16 10 14 17 15 17 19 24 29 32 34 35 36 36 38 40 40 42 45 46 46 45 43 42 40 38 35 35 36 38 37
31 36 37 35 40 6 20 16 16 14 20 19 16 16 21 24 26 26 21 21 26 28 25 27 31 35 39 44 43 42 43 46 47 47 45 44 43 40 38 37 38 38 36 39
34 37 31 32 40 41 38 29 28 24 21 21 22 23 25 26 22 23 28 29 31 32 34 32 32 32 34 38 40 41 43 46 47 46 46 45 44 42 41 39 31 35 39 39
32 30 34 38 40 38 36 40 42 39 36 34 33 29 28 28 36 39 37 31 32 32 29 29 31 31 32 34 37 40 42 45 47 47 46 47 46 43 38 30 33 37 38 38
44 46 43 42 42 41 32 27 22 27 32 33 32 34 37 39 37 34 30 28 26 27 30 31 29 29 31 33 35 37 39 43 46 48 49 48 42 35 30 33 37 39 38 36

GFSCGP_700_spd_093.txt.gz
Wind_Speed
41 42 53 57 58 42 42 36 33 31 31 37 34 32 28 26 28 27 27 27 26 25 20 22 22 22 23 23 22 20 20 19 19 18 17 17 15 16 16 16 16 16 16 16
40 47 49 45 50 46 36 32 30 29 33 36 36 36 32 30 30 29 28 27 26 23 25 25 25 24 24 22 22 22 21 22 21 19 19 19 19 19 18 18 17 17 17 18
44 31 41 42 46 49 41 34 31 31 32 32 35 38 39 36 31 33 31 27 25 26 24 25 27 24 23 23 22 21 21 21 21 20 21 20 20 19 19 18 19 20 21 20
36 30 31 41 51 51 46 44 30 29 31 31 35 15 43 40 36 35 34 32 30 29 27 27 27 26 25 23 21 21 22 22 22 22 22 21 20 21 21 21 22 22 22 22
29 33 25 45 55 55 41 31 22 28 30 29 35 24 35 41 45 41 36 32 28 27 29 26 27 25 25 24 23 22 22 23 22 23 22 22 22 22 22 23 23 23 23 22
31 28 29 38 44 50 24 22 21 18 22 18 41 37 31 44 45 42 40 38 33 31 30 29 29 28 28 27 26 24 23 22 22 23 23 25 25 25 25 25 25 25 24 23
32 33 39 30 37 45 32 20 6 4 5 13 32 28 41 23 37 39 37 38 37 35 35 32 30 29 28 27 27 26 25 24 24 25 26 27 27 27 26 24 26 26 25 23
28 17 43 37 46 53 52 42 13 8 9 15 15 19 32 40 19 29 34 33 39 40 36 34 32 32 31 30 29 29 27 26 26 27 27 28 28 27 26 25 25 25 23 21
31 23 26 34 41 46 50 46 36 5 7 12 16 35 6 38 35 19 29 36 32 38 39 36 35 34 34 33 32 30 30 29 28 28 28 30 28 26 24 23 23 21 19 17
15 12 25 19 23 37 30 51 29 22 4 4 8 27 24 34 33 42 39 25 35 31 39 39 38 37 36 34 33 33 32 31 30 29 29 30 27 25 23 22 20 18 17 16
20 10 24 30 26 51 37 33 30 26 25 5 2 9 22 34 38 27 37 33 31 34 31 32 32 33 34 36 36 34 31 30 29 29 28 28 23 24 23 22 19 19 17 16
22 10 30 34 18 29 43 37 38 28 19 16 5 18 7 17 24 33 35 33 33 29 28 32 31 31 33 33 32 31 29 28 28 27 26 26 25 25 23 22 21 20 18 17
32 13 20 14 21 23 36 39 39 42 29 36 16 11 17 13 23 32 32 32 34 38 37 38 35 33 31 30 28 28 28 27 27 26 26 26 25 24 23 23 22 20 18 19
32 18 25 24 35 39 36 45 44 41 37 35 40 28 17 13 9 11 23 31 32 36 35 33 32 31 31 30 29 28 27 26 25 25 25 25 24 24 24 23 22 21 20 21
41 32 24 24 24 18 38 33 45 42 42 30 37 29 34 35 26 23 25 29 28 20 22 26 28 30 29 29 29 27 25 25 26 26 26 26 26 25 25 24 24 23 23 24
34 33 38 19 23 28 26 39 40 42 44 45 48 49 44 37 33 32 19 13 14 15 16 18 24 27 28 26 26 26 25 26 27 28 28 27 26 27 27 26 26 27 27 27
40 33 23 29 24 24 26 42 41 43 45 48 52 49 49 44 38 41 41 36 33 30 22 21 21 22 23 24 25 26 26 28 29 30 30 30 30 30 29 28 29 29 29 29
43 28 30 21 17 3 32 33 43 44 41 40 47 44 44 43 41 36 29 28 24 20 19 17 17 18 21 22 23 27 30 30 31 33 34 34 33 32 32 32 32 31 31 31
36 36 30 10 14 17 22 27 31 47 44 36 31 32 38 43 43 42 39 36 32 28 27 25 22 21 23 25 24 24 28 32 35 36 37 36 36 35 34 34 34 34 34 33
25 31 35 21 11 12 15 30 31 28 43 39 32 28 25 26 35 35 32 32 30 29 24 26 29 29 29 28 28 30 32 33 35 37 38 39 39 38 38 38 37 36 35 35
28 24 28 26 18 25 22 21 21 27 31 22 38 38 35 35 35 30 20 19 21 25 27 28 30 32 31 31 30 32 35 37 36 38 41 42 42 42 42 40 38 37 37 36
41 23 20 26 25 20 16 16 29 28 26 12 10 17 16 17 25 26 27 27 32 35 35 36 37 38 35 33 33 37 38 36 37 42 44 45 45 44 43 42 40 38 37 37
34 45 45 32 32 3 15 30 27 25 23 21 18 12 17 18 16 10 16 18 20 23 25 27 31 35 37 37 39 40 39 37 40 42 45 47 47 46 44 43 42 40 39 41
31 34 29 34 39 42 37 22 20 22 18 16 15 18 16 15 18 19 20 21 19 20 24 27 32 33 32 31 36 39 36 38 40 41 44 46 47 47 46 45 43 44 45 43
31 32 37 41 37 26 36 36 29 30 33 34 28 24 24 26 28 27 26 27 29 35 36 33 34 36 38 38 37 35 33 37 39 41 43 46 47 48 48 48 48 48 43 30
24 27 34 38 34 34 26 26 34 36 36 33 31 32 35 34 29 28 30 35 38 33 29 30 32 32 30 31 33 34 34 35 37 40 43 45 48 49 51 51 50 42 30 25

GFSCGP_700_spd_096.txt.gz
Wind_Speed
39 43 52 45 50 40 37 36 38 33 42 33 32 34 31 27 28 28 27 29 28 28 22 24 24 24 25 25 23 22 21 20 20 19 18 17 16 17 18 18 19 18 18 18
38 46 43 42 40 43 38 34 40 40 24 32 33 36 37 35 32 29 29 30 31 28 28 28 28 29 29 27 25 25 24 24 22 22 20 21 21 21 21 21 20 19 18 19
37 26 37 41 40 42 40 42 36 33 29 26 31 38 40 41 39 35 33 30 29 28 28 28 28 28 29 29 27 26 25 25 25 24 23 23 24 22 21 19 19 19 21 21
30 36 22 34 41 43 44 39 37 30 16 28 21 21 42 44 44 43 36 34 32 31 30 28 28 28 27 25 26 26 27 27 27 26 26 25 23 22 22 23 22 23 24 23
31 25 42 28 38 34 31 34 32 31 22 18 32 14 42 42 51 48 42 37 36 34 32 31 30 29 27 28 28 26 27 28 28 27 27 25 24 24 25 25 25 26 25 24
26 25 24 32 28 30 31 23 23 18 16 10 43 31 33 47 49 46 42 40 36 34 33 32 31 30 30 31 31 31 30 29 28 27 26 27 26 27 27 27 27 27 27 26
37 25 33 27 28 35 41 32 5 3 5 11 20 28 47 25 40 50 43 41 39 34 33 31 30 31 30 30 30 31 30 30 28 28 28 27 27 28 28 29 29 28 28 27
25 17 37 32 39 38 37 36 13 7 5 2 16 21 39 36 20 24 35 46 39 40 38 36 33 31 29 30 31 33 32 31 30 29 29 29 30 32 32 32 29 28 27 25
27 20 22 37 36 39 34 31 25 5 5 1 10 34 27 22 42 45 21 30 44 41 36 39 37 36 35 35 33 32 32 32 32 31 31 31 32 34 33 32 29 28 25 22
14 13 19 28 30 34 39 42 20 10 5 5 9 27 32 33 21 39 36 44 30 36 40 33 38 39 39 39 38 37 36 35 35 34 32 32 33 36 34 32 29 27 25 23
18 18 13 25 34 41 34 30 23 22 10 4 2 10 24 38 38 31 26 43 33 26 34 39 37 42 45 41 38 38 38 38 37 35 33 34 35 36 34 31 29 27 24 22
28 11 16 30 23 32 38 39 42 19 21 16 2 13 0 9 20 24 38 38 26 47 41 36 39 38 42 42 41 42 41 39 37 36 34 34 35 35 31 29 27 24 23 21
38 13 13 13 22 21 36 43 46 41 20 34 11 14 18 22 14 18 26 37 43 36 42 39 38 37 36 37 38 38 37 36 34 35 35 34 34 32 28 27 26 24 23 22
33 16 28 21 14 23 39 37 34 42 20 29 37 30 29 12 10 6 11 20 35 38 40 38 34 33 33 35 33 33 33 33 34 33 33 32 30 29 27 27 27 25 25 24
39 33 28 24 3 12 24 38 47 40 49 21 52 41 33 32 34 32 35 31 22 29 31 31 35 36 36 36 35 33 33 33 33 31 31 30 29 29 29 28 27 27 26 26
45 19 26 21 22 18 17 24 36 50 49 46 44 45 27 26 40 38 37 31 22 8 11 11 14 22 29 31 31 31 31 31 30 30 30 30 30 29 29 29 28 28 28 29
46 44 23 24 18 12 14 36 33 40 42 52 48 55 37 37 38 38 39 37 31 29 32 24 20 21 21 24 26 27 27 28 29 28 29 29 29 29 29 29 29 30 31 31
42 47 34 20 18 7 33 23 31 42 45 50 55 53 40 35 37 41 39 39 38 38 28 15 15 17 19 22 25 26 27 28 29 29 28 29 30 31 31 31 32 33 32 32
41 40 19 14 21 14 24 32 26 25 41 38 45 44 36 33 42 48 43 35 36 34 29 27 26 21 19 20 20 24 27 27 28 28 29 30 31 32 33 33 34 35 35 35
36 42 34 19 9 10 11 25 27 15 37 25 29 36 35 32 35 26 26 33 36 36 32 27 26 26 27 25 26 27 29 28 28 27 29 32 33 35 36 37 37 38 37 38
32 37 38 31 17 16 21 5 11 21 12 8 12 20 30 36 31 27 26 23 18 24 28 32 33 34 32 31 30 30 29 31 28 29 32 34 37 39 40 41 41 41 41 40
32 31 28 33 22 19 6 14 28 28 23 27 24 16 9 12 17 27 31 28 27 26 24 27 31 32 31 32 31 33 33 30 29 30 33 37 40 41 42 43 43 43 42 41
30 33 34 33 26 6 12 27 22 22 17 10 15 17 10 12 10 9 15 25 26 28 27 28 32 35 36 35 35 40 37 34 32 33 36 38 40 42 44 44 44 44 44 43
34 36 36 32 33 28 29 15 17 19 17 20 14 8 11 12 9 10 10 12 16 19 22 24 21 20 23 25 26 29 32 37 38 38 38 40 41 42 44 46 47 46 46 46
28 29 36 40 35 28 24 28 34 28 25 18 19 21 20 18 20 20 21 22 23 25 27 30 31 31 32 32 33 34 33 32 34 37 39 40 40 42 45 47 47 48 49 49
26 28 29 32 33 34 26 20 22 24 30 28 27 27 28 28 28 30 33 32 28 28 29 33 37 37 33 34 36 36 35 35 36 37 37 37 39 42 45 47 49 50 51 50

GFSCGP_700_spd_102.txt.gz
Wind_Speed
40 45 52 47 41 31 23 23 27 27 24 25 32 35 40 32 32 27 23 21 21 21 18 22 25 27 27 28 28 28 27 26 26 25 25 23 21 21 21 20 21 20 20 20
40 51 42 42 39 37 26 26 24 20 22 28 31 37 35 43 39 37 31 26 22 23 23 25 26 27 30 29 27 29 28 29 29 28 26 25 24 25 24 24 24 23 23 23
41 34 33 37 40 39 37 30 29 21 20 24 28 40 41 37 50 45 40 33 29 25 24 27 29 28 30 31 30 30 29 30 30 29 29 28 29 27 26 26 25 25 26 26
30 27 36 30 40 35 37 37 31 29 25 12 18 15 26 27 39 54 46 41 34 29 26 30 31 32 32 31 31 30 30 31 31 31 32 30 29 29 27 27 28 28 29 27
35 35 28 29 33 36 23 24 28 26 23 23 26 13 32 29 31 35 50 47 41 35 31 31 33 34 33 34 33 32 33 34 34 35 34 33 32 31 30 31 31 31 30 28
26 24 27 27 30 26 25 23 21 18 22 13 30 22 33 28 35 29 35 47 46 43 38 34 33 34 35 35 36 35 36 37 36 36 37 36 34 34 33 33 33 33 31 30
29 26 30 27 27 30 30 22 6 4 6 8 11 20 40 16 22 13 28 33 33 42 45 42 38 36 35 35 35 35 35 37 36 36 37 38 36 35 33 34 35 35 33 31
28 20 36 29 34 32 33 35 13 9 7 6 12 15 14 25 27 29 28 21 29 35 41 47 43 37 36 35 34 34 35 35 36 36 37 37 36 36 34 36 37 37 35 33
32 16 33 29 39 31 32 30 27 4 2 1 10 23 32 31 33 32 30 27 28 27 34 45 45 39 38 37 36 36 36 35 35 35 37 39 39 38 37 37 38 37 37 35
28 17 30 37 28 31 31 36 14 10 5 7 13 12 18 18 31 17 16 16 16 23 28 33 40 42 40 38 36 36 35 34 34 35 37 38 39 39 40 40 39 39 38 38
29 25 26 33 30 37 31 34 22 12 14 5 5 11 13 7 7 14 13 13 14 21 15 24 35 37 39 40 42 41 40 40 40 38 38 39 40 41 42 41 40 40 41 41
33 23 29 26 23 28 36 34 37 16 10 17 14 25 7 4 7 7 8 11 13 13 30 31 31 36 47 48 46 42 41 43 46 45 44 43 41 41 42 42 42 42 43 43
36 22 19 11 22 33 38 40 37 22 10 19 9 22 16 15 31 18 9 9 15 12 15 24 34 42 39 37 40 44 47 49 45 49 49 46 44 44 44 45 45 44 45 45
39 29 30 23 27 33 37 42 41 38 20 40 33 54 37 22 13 18 23 21 14 9 5 14 22 32 35 43 44 41 39 38 40 44 48 49 47 44 45 46 46 47 47 42
39 26 28 18 14 18 29 40 42 43 48 27 46 50 47 46 44 36 23 24 17 9 5 7 9 13 24 29 34 32 38 39 37 38 42 44 45 46 46 47 47 46 46 40
38 25 28 17 14 13 15 18 26 34 37 44 46 44 39 41 38 35 31 38 37 30 26 20 15 11 12 16 21 27 28 32 32 32 35 38 41 41 42 44 43 42 43 40
36 25 29 17 17 10 13 35 32 30 31 33 40 37 27 33 32 29 29 29 36 44 42 35 33 26 25 22 20 19 21 28 34 36 37 40 41 41 40 40 40 39 36 40
46 27 23 14 20 7 18 18 17 32 29 31 37 40 33 29 26 27 25 28 31 35 31 27 29 28 26 25 24 24 23 26 27 31 35 38 38 37 36 35 34 33 36 32
37 35 16 13 23 9 13 19 15 18 24 21 29 30 24 18 24 24 19 21 23 27 36 35 33 30 28 27 26 23 22 27 29 28 30 31 31 31 30 30 31 32 31 34
36 33 22 24 9 9 7 7 11 19 28 17 13 13 14 14 19 13 13 16 19 18 21 26 31 32 31 31 28 27 26 25 22 21 24 27 28 29 28 28 29 29 33 33
34 32 35 24 15 12 17 8 5 9 2 5 7 4 4 5 8 10 10 12 15 17 19 20 21 24 31 31 32 30 29 29 25 25 25 27 28 28 29 29 29 30 32 33
35 26 23 26 19 17 10 18 21 15 10 13 15 18 17 15 13 14 13 16 20 20 24 24 22 20 23 27 31 32 31 30 28 28 30 30 29 30 30 31 32 33 33 35
23 35 26 29 23 7 17 22 15 16 14 14 16 13 9 11 9 9 8 8 10 16 15 15 18 19 20 20 22 25 28 27 27 27 27 29 31 31 30 32 34 35 37 38
30 38 28 26 30 24 16 10 7 9 12 15 12 11 8 5 3 3 6 6 6 5 4 6 10 12 14 15 17 16 15 17 20 23 26 30 32 32 34 34 35 37 38 39
32 29 32 30 18 16 19 17 18 16 14 13 14 15 16 13 15 17 15 12 13 18 20 22 23 23 21 21 23 23 24 26 26 25 24 26 27 29 33 36 37 37 37 39
29 30 32 35 31 26 22 17 15 15 18 18 18 19 20 21 20 18 19 24 22 23 25 27 29 28 27 26 28 29 30 29 28 28 29 28 30 32 33 35 37 39 41 44

GFSCGP_700_spd_105.txt.gz
Wind_Speed
43 42 49 46 47 38 23 23 31 24 27 27 38 39 37 28 37 36 28 27 24 23 20 20 22 25 26 26 27 28 29 29 30 29 27 26 24 23 23 22 22 23 23 22
41 54 41 27 31 37 25 22 25 21 22 31 23 28 29 31 33 40 38 32 29 27 22 23 25 27 29 28 28 28 29 30 29 29 27 27 26 26 26 27 26 26 25 25
45 39 34 29 27 32 33 24 22 21 21 24 26 33 35 37 34 34 46 43 36 31 26 26 26 27 29 30 30 29 29 29 29 29 29 30 30 31 30 27 27 26 28 27
36 25 36 34 31 29 31 28 21 21 15 11 19 14 27 26 30 33 40 47 44 39 32 30 29 31 31 30 31 31 29 30 30 31 31 32 31 31 30 29 29 30 31 30
40 35 31 37 37 28 21 25 29 22 22 21 21 12 23 19 26 32 31 40 46 44 38 33 32 31 31 31 31 31 31 33 33 32 32 33 34 33 33 33 34 33 34 33
30 27 28 28 28 28 28 26 24 22 20 12 26 17 22 22 28 27 22 24 29 45 43 37 34 33 33 33 34 34 35 35 35 35 35 37 36 36 36 36 37 36 36 35
27 27 33 27 28 28 30 26 6 8 6 6 11 19 30 10 15 19 21 22 20 26 44 43 40 39 37 37 36 37 38 38 38 38 40 40 38 39 38 37 39 39 38 35
32 21 36 29 39 33 40 34 13 8 10 9 19 14 9 17 17 19 20 23 23 32 35 42 47 46 43 39 37 36 37 37 39 39 39 38 37 39 39 39 39 39 39 38
29 16 35 35 33 35 33 33 25 3 1 2 11 13 17 22 28 25 25 27 17 18 25 33 38 40 48 47 43 38 37 36 37 37 37 37 38 39 40 40 40 39 39 39
24 18 31 33 30 35 32 35 17 15 5 7 11 15 13 6 10 15 13 10 17 23 26 28 29 31 39 49 48 44 39 39 39 39 39 39 39 39 40 41 42 41 42 39
28 29 25 40 30 33 35 35 20 16 12 4 4 7 6 7 8 6 12 15 17 18 19 27 32 31 36 43 48 44 42 40 41 41 40 39 39 40 41 42 43 43 44 41
33 20 31 34 30 34 36 31 34 16 13 16 10 16 4 10 8 9 10 4 13 16 16 22 24 23 24 34 39 46 42 45 43 41 42 42 42 42 42 41 43 44 43 42
37 22 21 16 20 24 38 39 43 26 18 25 12 16 17 27 28 26 25 12 10 13 17 18 24 30 29 32 38 44 47 46 48 48 49 49 49 50 47 46 45 44 43 44
41 29 32 29 40 38 37 35 37 29 17 30 35 32 19 10 12 7 10 23 20 18 17 24 20 22 27 30 37 38 39 42 46 49 48 48 51 49 48 49 47 45 44 45
39 28 25 16 21 31 41 44 47 44 47 27 43 45 37 32 30 29 29 24 25 25 20 21 23 19 18 23 31 35 38 40 41 42 44 45 43 45 47 48 48 47 47 47
36 21 29 22 20 29 31 38 47 47 50 41 49 43 29 32 29 33 28 27 32 39 31 29 21 19 18 20 23 26 32 36 38 39 42 41 42 40 41 44 46 48 48 48
49 31 28 16 21 17 14 38 42 43 48 45 44 34 26 22 22 21 23 23 25 26 37 44 41 39 31 28 26 24 24 26 28 34 36 38 37 37 39 42 44 46 46 46
44 35 24 15 18 6 23 25 38 39 37 38 38 37 32 29 26 24 18 21 24 26 29 35 44 41 39 38 37 36 36 33 27 27 28 32 34 36 37 41 42 43 42 41
36 32 18 15 26 6 16 22 29 36 39 36 38 31 22 17 21 22 16 20 24 26 29 31 34 38 35 36 35 32 31 34 33 28 27 27 29 30 33 34 34 36 36 35
32 32 26 20 10 11 9 11 16 16 21 17 17 14 11 17 21 10 13 15 20 24 25 23 21 18 22 29 30 30 29 31 30 27 29 28 27 28 30 32 28 29 31 32
40 35 30 22 14 10 15 14 22 15 9 15 14 14 10 9 7 7 9 12 13 13 11 12 15 19 19 20 24 29 31 33 34 32 30 30 28 28 30 31 30 29 29 29
36 33 23 20 14 9 24 24 23 11 16 13 18 13 8 9 11 12 10 12 14 14 16 16 16 17 17 18 16 21 25 28 29 28 29 30 31 28 32 34 33 31 31 31
26 39 30 26 24 12 23 16 10 13 16 20 18 18 13 7 8 11 10 8 7 7 5 5 6 7 10 12 13 15 16 18 20 22 24 26 27 27 27 33 35 36 34 32
27 38 18 29 29 31 8 18 19 16 19 21 17 12 12 8 8 6 4 4 5 3 3 5 9 10 11 12 15 17 17 17 18 17 19 21 24 27 32 36 37 38 38 39
42 32 38 31 17 23 23 18 17 15 15 14 14 14 15 17 12 10 11 13 12 13 13 14 17 17 17 19 20 21 21 22 23 24 24 25 27 27 28 30 31 34 37 38
40 37 38 24 25 20 17 22 20 22 20 17 15 14 15 19 18 19 18 17 17 17 21 26 26 27 28 29 30 29 30 32 34 36 37 36 35 34 34 35 35 35 36 36

GFSCGP_700_spd_108.txt.gz
Wind_Speed
30 36 45 40 40 34 23 18 29 20 22 30 31 32 33 31 27 26 31 30 24 24 24 21 22 20 21 23 24 26 27 27 28 28 25 24 22 22 23 22 22 22 21 22
40 42 44 35 29 36 25 24 24 25 21 25 26 30 33 37 36 31 33 35 36 29 28 25 25 25 24 24 24 26 26 26 26 26 24 24 23 25 25 25 25 25 24 23
45 48 40 38 29 34 43 31 21 23 27 29 31 37 39 36 34 32 32 35 40 36 34 30 30 28 26 27 27 26 25 26 26 25 25 27 28 28 27 27 25 25 27 26
42 35 30 43 36 31 38 37 28 20 20 13 24 11 26 28 29 31 32 33 39 44 42 36 35 32 31 29 27 27 27 27 29 28 28 29 29 29 27 27 27 28 29 31
44 40 32 40 44 33 29 34 31 24 19 17 18 11 28 22 20 32 32 32 37 39 43 44 40 35 31 31 29 27 28 30 31 30 31 31 31 31 30 30 30 31 31 33
39 28 38 33 39 33 29 30 27 28 18 12 30 20 24 27 30 31 24 25 28 31 35 47 41 37 34 33 33 32 32 32 32 33 33 34 33 33 34 32 33 34 33 35
44 34 42 28 37 37 33 26 7 9 8 12 12 21 32 14 13 22 22 22 24 26 26 35 45 43 38 35 33 34 34 34 34 35 35 36 36 36 37 36 37 37 36 35
28 25 47 35 46 39 49 44 13 8 5 7 14 12 13 13 16 23 24 17 19 18 21 23 39 44 41 38 36 36 35 35 37 37 36 38 39 39 39 38 39 38 38 35
33 19 41 36 45 44 40 38 33 3 2 0 12 15 16 17 18 20 16 20 19 19 20 20 28 41 48 46 44 42 39 38 38 38 37 38 38 39 37 36 38 38 38 35
23 18 42 36 39 36 39 40 27 15 5 4 7 21 12 6 8 9 12 15 17 25 25 23 24 30 35 41 44 48 51 48 42 40 40 38 38 37 37 38 38 39 40 38
30 31 35 38 27 45 36 37 29 27 10 4 2 4 9 12 12 11 15 16 16 15 16 23 27 27 31 33 35 39 43 51 49 46 41 40 40 40 40 41 40 40 41 39
27 24 33 44 36 36 41 43 37 22 9 14 4 7 7 11 12 10 6 3 3 11 14 15 17 20 23 27 32 37 39 44 49 47 46 44 42 43 44 42 40 41 41 40
38 25 23 16 27 39 43 41 51 36 19 25 11 9 19 18 12 15 21 18 14 10 10 13 14 12 17 24 27 28 30 32 38 47 47 47 48 46 47 45 44 44 44 44
43 28 36 32 53 42 41 49 46 45 28 26 34 21 25 20 15 23 20 15 14 13 16 19 19 18 17 21 24 27 27 32 37 39 43 46 46 47 47 47 48 49 49 49
33 32 37 23 24 36 52 50 46 46 53 27 43 42 37 21 20 22 23 23 21 19 22 24 24 24 25 25 23 23 25 28 32 35 40 41 43 44 45 44 43 45 48 49
42 24 36 23 27 25 40 45 45 48 43 52 44 37 24 23 34 37 39 36 35 35 35 36 31 29 29 29 27 25 22 23 25 28 31 36 39 42 44 47 47 46 46 46
49 33 35 23 20 29 24 42 50 54 52 46 50 42 25 26 33 33 24 18 24 26 28 34 36 40 38 36 33 31 28 26 24 24 21 23 27 33 39 42 43 44 43 42
49 34 28 16 24 6 19 38 41 43 44 49 51 45 39 38 35 27 27 25 24 25 28 30 34 36 42 46 45 43 39 35 32 32 30 30 26 26 28 29 33 36 38 39
44 39 18 15 23 6 16 28 38 50 47 42 43 40 45 40 26 29 22 24 23 24 25 26 28 30 32 38 39 40 42 41 34 31 29 29 29 27 28 28 28 30 34 36
51 41 33 27 10 11 20 26 24 26 43 41 42 40 34 26 34 28 23 22 20 19 20 22 23 24 24 24 25 27 30 34 33 31 31 31 31 29 29 28 27 26 26 30
42 31 29 31 15 17 16 14 27 31 26 26 27 20 24 31 29 17 15 15 14 13 13 13 13 13 14 15 17 17 18 23 27 28 28 30 30 29 27 26 27 27 25 25
33 29 28 26 19 12 21 26 32 27 22 18 28 28 27 25 19 16 12 12 15 15 13 13 13 13 13 14 15 16 15 14 17 22 24 24 26 27 28 29 29 29 29 26
28 43 35 32 25 5 11 24 23 20 19 19 20 23 22 18 14 12 11 11 13 11 7 5 5 4 5 7 9 11 12 13 15 16 18 20 22 23 26 27 28 28 28 29
26 38 25 24 25 24 20 27 24 22 18 21 25 21 17 15 14 13 12 11 10 8 7 6 5 5 6 7 8 10 12 14 17 19 21 22 22 22 23 24 25 27 27 28
33 33 22 27 17 34 18 25 24 22 21 23 23 19 16 14 14 15 13 10 9 9 10 11 13 15 16 17 19 20 21 23 24 26 29 32 34 34 33 33 35 37 36 34
33 31 38 29 29 27 30 27 28 27 23 23 20 19 19 20 22 17 16 16 13 14 17 18 20 22 22 23 23 24 25 27 29 32 30 29 29 31 33 35 37 37 37 39

GFSCGP_700_spd_111.txt.gz
Wind_Speed
30 34 41 37 36 36 21 18 27 25 16 28 31 32 27 20 22 31 31 28 31 28 25 22 22 21 22 21 21 21 24 24 27 26 25 23 20 21 21 20 20 19 20 20
32 39 37 32 34 36 26 23 22 15 26 23 29 33 33 31 31 34 33 30 27 33 32 30 25 25 26 23 22 24 22 24 25 25 25 24 23 23 23 23 23 22 21 22
41 39 34 33 33 37 40 33 20 22 23 27 25 36 39 37 33 31 32 31 32 34 39 38 32 28 26 28 26 24 23 22 25 25 26 24 25 25 26 24 22 22 22 22
38 40 28 35 37 36 39 38 24 20 20 20 22 14 33 35 39 40 36 35 32 32 35 44 40 34 31 30 27 26 26 25 26 26 27 26 26 26 24 25 25 25 26 26
27 26 42 38 42 37 35 28 36 30 28 23 23 14 31 33 38 35 33 30 27 29 30 35 42 38 36 31 29 28 28 28 29 29 28 28 29 28 28 28 28 29 29 29
40 30 31 42 38 37 30 22 24 28 25 18 27 23 22 31 31 28 28 29 25 28 32 33 37 41 44 38 33 31 30 29 29 31 31 30 30 30 31 30 30 30 30 31
43 50 29 29 35 36 35 27 9 11 9 10 21 23 41 17 23 24 21 24 23 28 29 32 35 37 41 44 38 33 31 30 31 32 32 32 32 32 33 33 32 32 32 33
28 19 49 36 46 46 49 43 13 9 6 10 12 17 20 20 25 23 26 18 20 20 24 27 28 29 34 43 39 36 34 31 31 32 32 33 32 34 34 35 35 35 35 33
18 25 30 45 41 47 48 45 39 1 3 4 16 24 31 24 30 25 23 24 23 24 24 25 24 26 28 37 44 41 39 36 36 34 33 35 34 35 35 35 37 36 34 33
33 12 27 49 39 45 41 51 36 20 3 4 8 22 19 10 10 19 26 28 24 24 24 26 24 24 24 31 42 46 45 43 41 41 41 39 38 37 36 36 36 35 34 34
47 34 19 36 31 45 38 43 34 35 20 4 2 8 14 15 14 16 15 14 19 20 20 18 25 22 21 26 32 39 42 44 45 46 48 50 50 44 40 39 37 37 38 37
47 24 25 47 37 48 49 46 51 28 22 22 2 7 11 21 17 12 12 12 13 13 12 11 12 15 18 22 26 29 31 31 32 36 42 45 48 50 46 42 40 39 41 41
49 23 25 32 30 38 50 43 54 41 35 28 13 7 15 20 18 13 11 8 9 10 9 9 9 12 13 13 17 20 23 26 28 30 30 33 35 42 46 44 43 43 42 41
48 29 16 21 40 44 56 60 57 56 36 39 44 36 22 23 17 15 20 21 18 13 14 16 16 17 17 17 16 17 20 21 23 24 26 29 30 31 36 40 41 41 42 44
49 36 41 45 28 46 45 51 50 51 56 38 49 41 32 37 28 24 24 27 19 17 18 18 19 23 24 26 26 25 23 22 22 21 23 26 29 32 34 36 37 38 40 42
46 40 46 49 44 41 52 52 52 54 52 39 47 45 46 42 29 28 31 28 27 25 27 30 33 35 35 33 34 33 30 27 25 23 22 20 21 24 29 33 36 39 41 43
47 52 39 31 36 34 33 50 55 64 66 64 57 56 47 38 30 39 38 36 33 35 39 41 38 35 33 36 40 37 35 34 32 30 28 26 24 22 22 25 27 29 33 36
45 54 37 24 27 12 24 38 51 54 53 56 60 53 46 42 35 37 42 35 34 33 29 31 33 34 32 31 32 35 37 41 41 40 38 35 33 30 30 29 29 28 28 29
49 47 23 19 32 9 18 35 45 52 55 53 56 55 51 37 39 41 38 35 32 29 29 28 28 28 29 29 30 29 29 28 30 32 34 33 33 34 32 30 30 30 30 29
53 54 37 26 12 12 37 33 28 42 46 44 51 56 61 44 42 45 39 37 34 28 26 25 23 24 25 24 23 22 20 19 19 20 23 25 27 28 26 25 26 26 26 25
37 31 40 31 14 21 25 15 27 29 42 29 50 53 51 50 46 40 32 32 30 26 23 19 18 17 16 16 16 16 16 16 16 16 18 20 22 24 25 25 25 25 27 28
29 27 15 25 16 17 22 28 44 44 40 20 9 31 40 38 36 36 32 24 20 18 17 15 16 16 15 15 16 14 13 13 13 11 11 11 13 16 18 21 23 25 25 26
27 36 36 35 34 9 17 26 28 29 25 26 34 19 27 29 26 23 22 21 18 15 16 15 16 16 16 15 14 14 13 13 13 14 15 16 17 18 20 21 21 21 21 22
34 31 20 26 26 20 14 19 26 32 19 13 13 14 19 19 21 23 22 20 18 18 18 17 16 15 14 13 13 13 14 15 16 17 19 20 23 25 27 28 29 29 30 30
35 31 25 30 22 34 15 22 21 24 14 14 15 16 17 18 18 17 17 19 19 18 18 18 16 15 15 16 18 20 21 22 23 24 25 26 27 27 28 28 30 32 34 35
35 31 31 27 27 31 28 26 28 28 22 16 19 19 18 17 15 16 19 20 20 18 17 17 18 19 21 22 21 21 20 21 24 27 29 30 29 27 25 25 25 26 27 29

GFSCGP_700_spd_114.txt.gz
Wind_Speed
32 34 39 35 32 31 20 29 26 31 25 21 30 33 30 25 26 29 25 33 32 31 23 24 22 23 22 21 19 19 20 20 23 25 24 25 23 21 21 21 20 21 20 20
28 37 35 30 30 31 31 21 23 19 19 24 27 35 31 28 30 29 28 28 35 34 31 32 30 26 26 23 21 22 20 21 22 23 22 24 23 22 23 23 23 24 23 21
37 23 34 29 30 34 35 31 25 19 15 21 30 37 40 37 34 33 35 35 35 37 32 31 32 34 28 29 25 22 22 24 23 23 23 24 26 25 25 23 23 22 21 22
34 38 23 33 34 32 35 35 32 18 14 22 21 14 31 35 39 37 33 34 33 32 32 32 33 34 37 32 28 24 24 25 26 26 25 24 24 24 21 23 23 23 23 23
36 32 38 33 37 31 34 27 30 33 27 26 26 16 33 36 41 36 33 33 34 31 32 34 37 36 34 38 33 28 26 26 28 29 29 27 26 24 24 25 25 26 26 26
26 23 24 34 35 33 27 25 22 29 34 22 34 26 31 39 42 35 30 26 28 28 29 33 34 34 29 32 38 34 32 28 28 30 31 31 29 28 27 27 26 27 28 28
35 44 18 22 26 31 32 28 9 10 11 19 26 25 54 17 28 25 26 19 23 31 33 31 33 36 32 32 35 37 38 33 30 31 31 31 31 31 31 30 30 30 30 30
30 22 42 34 36 35 41 37 9 7 6 11 11 19 27 24 30 30 29 23 26 26 28 31 33 34 34 34 34 33 38 40 34 30 31 32 32 32 32 32 32 32 31 30
23 23 23 36 40 32 33 41 41 7 3 2 18 33 39 27 24 27 27 24 27 25 25 27 28 31 31 31 30 32 34 39 39 35 33 32 31 31 31 31 34 34 33 33
27 7 23 26 31 41 36 39 33 24 5 6 10 23 28 16 17 20 34 34 31 30 30 30 28 27 25 27 28 27 31 38 40 41 38 36 35 34 34 35 36 35 35 35
34 22 12 15 36 40 41 37 32 29 20 5 3 15 24 22 19 21 23 29 30 32 30 26 25 25 27 26 25 24 27 36 42 43 42 42 42 42 43 44 44 43 40 37
44 18 30 34 28 38 46 41 48 28 34 29 13 28 11 14 19 23 26 25 24 21 23 23 24 23 23 26 25 21 20 26 33 38 41 43 43 41 42 44 45 46 45 40
37 27 23 18 34 41 45 46 47 51 35 38 21 26 30 21 21 21 17 18 18 18 17 16 15 14 13 14 16 19 22 23 27 31 32 33 32 33 32 33 36 40 44 43
23 37 31 26 22 25 35 44 48 50 37 48 46 48 45 20 25 19 16 13 12 12 12 13 14 15 13 14 14 16 17 19 22 24 27 29 30 31 30 31 31 32 37 41
31 33 42 48 35 26 38 43 51 50 65 39 56 50 46 43 28 27 21 19 20 19 20 21 20 20 18 17 19 21 22 22 22 23 24 25 25 27 29 31 32 33 35 37
25 36 31 44 49 41 35 33 39 57 55 53 59 49 51 50 35 31 31 29 26 26 29 28 26 25 24 24 25 27 29 29 29 29 28 26 25 25 24 24 23 24 26 29
25 26 34 38 37 44 36 57 50 46 65 68 62 62 52 48 48 54 50 45 44 43 40 34 32 33 34 35 33 31 32 34 37 35 33 32 30 29 28 26 25 24 24 25
40 36 31 28 24 19 57 50 54 58 58 66 68 63 61 61 49 41 40 43 45 45 44 40 36 38 37 31 28 28 28 28 28 30 34 37 37 36 35 34 32 31 30 30
41 39 26 15 25 19 36 50 49 52 59 59 63 56 64 49 45 50 42 41 45 45 42 39 42 35 33 30 28 24 23 22 22 22 23 24 26 27 28 28 29 29 29 28
35 37 38 33 20 9 48 40 35 28 53 49 54 56 52 62 50 57 47 45 45 46 45 39 34 34 32 28 25 22 19 16 15 14 15 17 20 23 25 26 26 27 26 27
24 37 45 41 29 26 31 21 26 34 45 24 42 45 48 58 55 52 51 45 44 42 39 37 36 32 27 25 22 19 16 15 13 13 13 14 16 19 20 21 23 23 23 24
33 21 29 35 24 23 27 27 39 41 27 26 14 14 25 46 46 50 45 43 42 44 44 36 32 28 22 19 16 14 14 13 12 11 11 12 12 13 14 16 18 20 22 24
24 38 32 38 42 10 18 28 36 38 26 24 25 32 34 27 30 45 47 43 42 37 31 29 26 22 21 19 16 15 15 14 13 13 13 14 15 17 19 20 23 25 26 26
39 39 33 30 31 36 12 23 29 29 29 35 32 28 27 24 25 34 37 37 35 31 28 26 24 23 21 19 17 15 14 13 13 14 17 20 23 25 28 30 30 30 31 32
27 31 26 33 23 29 34 23 27 30 26 23 22 19 17 17 20 23 25 27 29 28 26 24 24 23 22 20 17 15 15 18 21 23 24 25 25 26 28 30 31 31 30 30
36 33 28 25 26 29 30 30 30 23 20 14 14 11 14 15 15 18 21 23 24 24 24 25 25 24 21 18 17 18 19 21 22 24 26 28 29 28 29 27 26 26 26 27

GFSCGP_700_spd_117.txt.gz
Wind_Speed
27 30 36 33 32 31 21 24 26 26 23 24 30 36 32 30 33 31 31 30 31 31 25 25 24 22 22 22 20 18 18 17 21 24 26 26 24 23 22 20 19 21 21 21
33 38 32 26 27 28 30 20 20 19 20 27 29 37 40 38 35 36 33 31 33 31 26 31 29 28 28 24 23 22 20 19 20 22 23 25 24 24 24 24 24 24 24 24
33 15 39 32 31 32 32 32 25 18 13 19 22 37 43 42 36 36 36 35 34 33 32 30 31 31 29 30 27 24 22 22 22 22 24 24 25 27 27 26 25 23 23 22
32 35 17 24 29 28 31 32 28 26 17 15 12 14 37 35 39 42 38 35 35 33 34 34 31 31 31 29 30 29 26 25 25 27 25 25 24 25 24 23 23 23 23 23
32 30 36 29 32 32 30 26 25 27 30 30 31 21 36 36 43 39 36 35 36 35 32 32 32 31 30 30 31 32 33 29 28 29 29 27 26 25 25 25 25 25 25 25
36 25 21 37 34 30 25 25 19 21 22 18 45 27 31 39 43 38 32 32 32 29 30 31 33 33 36 36 36 35 37 36 32 30 30 30 29 27 27 26 27 26 27 27
32 37 31 25 26 33 32 22 7 8 8 12 20 26 47 18 20 23 27 31 29 29 28 31 35 37 34 35 30 31 34 40 35 33 32 31 30 30 30 29 29 30 30 30
28 14 37 24 35 21 35 32 13 6 5 8 9 15 31 30 36 40 38 31 27 24 30 29 32 36 36 35 34 34 32 35 40 39 35 31 31 31 30 31 30 30 30 30
21 21 17 16 28 22 18 40 34 13 13 5 13 28 42 41 36 34 36 27 26 29 32 31 28 28 31 37 35 33 33 33 35 39 42 38 33 33 31 29 31 30 30 30
15 7 18 18 16 33 39 26 21 22 5 6 10 22 25 10 14 16 22 25 28 32 30 30 29 28 28 29 31 33 29 30 33 36 41 42 39 36 32 33 33 31 30 32
42 24 7 11 29 31 31 32 22 15 20 4 4 15 29 31 27 24 21 23 29 29 37 36 34 33 32 28 28 29 26 26 28 31 40 42 43 40 36 37 36 37 38 39
40 12 23 30 22 19 33 41 38 23 15 18 19 35 21 2 5 13 16 23 30 31 31 33 34 29 24 25 26 29 27 23 22 25 35 41 41 40 40 41 42 44 45 45
32 26 19 12 32 38 34 38 44 51 34 33 10 44 19 25 38 37 24 29 31 25 25 20 19 20 21 22 23 23 24 25 24 23 27 31 34 37 38 37 36 37 39 40
20 33 34 37 23 16 33 38 42 38 28 54 41 73 52 36 19 15 23 29 26 18 16 14 15 16 17 16 15 16 18 19 20 21 23 25 28 30 31 33 35 35 35 34
29 23 29 41 31 33 28 30 34 45 55 33 62 57 59 58 52 45 33 26 23 19 17 13 12 14 17 19 17 14 14 14 15 17 18 20 22 24 25 26 26 26 28 30
27 29 26 32 31 43 47 41 31 40 43 45 55 62 65 54 50 45 34 35 32 29 21 19 20 22 25 25 23 20 19 21 24 26 27 27 26 27 26 24 23 22 22 22
27 30 23 26 21 29 26 62 57 53 47 46 49 61 51 54 53 50 36 40 43 33 28 29 29 25 26 31 28 28 32 33 31 31 34 36 35 32 30 29 28 27 26 26
25 26 23 28 22 8 43 27 35 48 57 54 57 63 54 52 55 55 50 48 50 50 39 37 35 33 33 36 35 35 34 30 29 30 29 29 30 32 34 35 33 31 29 29
37 36 27 17 23 32 51 42 34 35 54 53 58 59 56 55 52 59 58 49 45 47 51 46 44 43 42 41 35 33 32 29 27 26 26 26 26 27 28 29 28 27 28 29
36 38 36 27 9 10 66 39 36 28 48 50 53 55 47 50 54 49 45 47 44 41 46 47 48 43 40 34 32 31 29 25 22 19 18 17 17 18 20 23 24 25 25 25
27 33 39 45 23 37 66 52 43 26 43 17 26 38 34 38 42 39 36 40 42 43 49 49 43 41 40 35 36 32 25 19 15 14 14 14 15 15 17 18 19 21 22 24
28 19 27 32 17 27 32 34 37 43 41 33 29 22 19 21 33 42 45 46 45 44 43 41 40 38 36 37 39 28 21 15 14 14 14 13 14 14 14 15 16 17 18 20
34 34 30 28 37 41 17 25 37 43 41 34 37 28 25 26 24 23 24 36 41 41 43 41 37 35 36 43 32 25 19 16 16 15 13 13 13 14 15 16 18 21 23 26
33 36 41 42 48 47 39 38 42 48 45 36 34 28 27 32 28 28 30 32 35 38 38 35 39 38 34 30 26 22 19 17 15 14 14 15 17 19 22 24 25 25 25 26
40 40 43 47 50 44 44 45 43 45 50 46 45 41 37 36 35 31 30 31 36 38 38 37 39 33 30 27 24 21 19 17 16 16 20 21 21 21 22 24 24 23 23 23
42 45 37 34 33 40 45 51 48 44 35 42 36 28 23 22 22 22 25 27 33 39 35 35 32 30 28 27 25 22 20 18 18 19 21 23 23 24 25 26 26 25 25 24

GFSCGP_700_spd_120.txt.gz
Wind_Speed
32 34 43 42 37 34 16 22 27 23 18 24 29 36 37 33 34 32 34 37 32 30 25 25 25 26 26 24 21 18 19 16 18 21 26 27 28 26 26 24 22 21 19 20
28 37 33 31 31 29 31 27 19 17 17 23 29 38 39 37 38 39 38 33 34 34 30 25 24 30 30 28 24 23 21 19 19 20 21 26 27 27 26 26 25 24 25 24
31 16 33 30 28 28 29 29 23 19 16 17 22 37 41 40 39 36 41 38 37 37 34 29 27 28 30 29 28 27 24 23 23 22 22 25 27 29 30 29 27 26 26 25
35 34 16 27 32 27 28 27 26 25 20 18 8 14 39 37 39 41 40 39 37 35 34 33 30 30 29 27 28 28 29 29 26 27 27 25 26 27 26 27 27 28 27 26
30 25 34 20 23 31 27 25 19 19 25 29 34 20 43 37 41 41 37 38 38 37 37 34 32 32 31 31 32 30 30 32 32 31 31 29 28 27 26 27 29 30 29 28
34 30 27 34 33 24 22 22 21 17 15 9 42 24 32 43 43 43 36 33 35 35 35 34 33 37 37 34 35 33 33 34 35 37 35 34 29 28 27 26 28 29 29 29
31 33 31 26 21 27 23 18 4 5 6 10 7 16 37 32 27 18 19 28 32 30 34 31 31 33 38 38 37 36 36 34 35 37 41 37 33 31 29 28 28 30 30 31
22 15 33 28 28 25 31 26 11 5 4 8 11 15 34 36 40 37 37 38 32 26 26 26 32 34 34 38 38 38 35 32 33 35 41 40 37 35 31 30 29 28 29 29
26 19 14 36 28 27 18 32 35 11 14 6 8 28 43 42 42 39 34 32 34 30 26 23 28 34 34 32 36 39 36 32 34 33 33 42 42 40 35 32 32 29 27 28
14 10 21 16 21 32 29 17 20 23 4 5 11 22 30 22 29 31 28 24 21 23 28 30 29 34 36 35 28 27 30 32 32 33 35 38 42 44 42 39 36 30 28 28
26 15 9 16 25 27 22 19 18 9 7 2 3 14 21 11 13 20 15 13 18 24 28 30 32 34 35 31 32 30 29 30 29 30 33 36 40 42 44 44 42 36 33 32
36 19 18 18 9 14 24 29 31 18 7 6 12 43 35 27 12 2 1 12 23 29 29 29 33 33 33 38 34 31 27 27 28 31 32 35 38 40 43 46 44 39 39 40
39 20 12 5 19 32 27 28 33 32 29 34 8 46 19 2 9 29 30 19 17 28 32 28 26 23 23 24 28 28 28 28 29 30 30 29 31 33 39 44 43 42 42 43
25 32 27 27 13 15 22 35 38 35 17 35 44 75 53 43 36 34 23 20 27 35 26 19 19 18 16 13 13 16 18 19 21 24 25 25 25 28 32 36 37 37 36 36
23 23 27 32 28 29 28 26 26 31 47 31 63 54 63 50 47 45 46 42 35 34 29 22 17 14 10 9 11 13 14 14 12 12 13 14 17 19 22 24 26 28 29 29
31 17 14 18 17 20 30 38 37 41 42 48 53 59 55 51 47 42 43 42 41 31 29 27 20 18 20 18 16 16 18 21 20 19 22 26 27 26 25 23 23 23 23 23
30 28 23 13 16 16 23 37 37 43 44 41 48 69 56 58 55 50 41 39 44 34 30 32 30 22 23 25 27 24 21 25 28 31 33 32 32 32 34 34 31 30 30 29
21 21 17 10 9 3 34 35 33 32 32 33 46 61 61 62 58 51 48 45 46 40 33 35 37 39 42 38 32 28 31 34 34 33 31 31 31 31 31 32 34 35 35 34
27 26 19 9 16 31 48 42 27 27 41 35 41 51 57 48 46 54 51 49 48 39 36 38 40 45 41 37 35 36 36 37 32 31 30 30 29 28 28 28 28 29 30 29
29 29 29 25 6 7 65 31 26 18 45 42 45 50 52 45 47 56 46 51 43 42 37 39 40 43 42 37 35 35 36 32 31 29 26 26 25 23 22 22 22 22 23 24
28 35 39 41 19 30 57 37 24 26 63 48 49 47 37 27 32 37 38 37 37 28 29 31 34 37 40 40 37 37 38 32 29 26 24 22 21 21 21 20 19 18 19 20
23 20 26 23 15 23 44 34 34 43 42 44 43 40 42 42 40 34 26 29 31 28 28 28 30 35 41 44 45 38 34 32 29 24 22 22 21 21 20 19 19 18 18 18
26 33 29 30 31 41 33 28 31 36 39 34 38 37 42 41 38 36 32 19 18 25 29 33 35 36 36 37 35 35 33 29 24 23 22 21 21 19 17 16 16 17 19 21
26 27 34 37 44 44 44 45 49 45 49 44 45 45 44 48 40 38 30 27 26 28 30 29 33 32 33 34 35 35 30 24 23 23 22 21 19 17 17 18 21 22 22 21
30 28 33 42 46 49 53 52 50 49 51 54 52 50 43 43 35 34 38 39 37 35 33 34 29 32 34 35 32 31 29 27 24 22 20 19 18 18 18 18 19 19 19 20
37 41 43 44 44 44 47 48 55 53 50 48 53 52 52 54 43 36 42 40 36 36 35 31 28 32 35 33 26 25 27 26 25 23 20 19 18 19 19 18 18 19 20 20

GFSCGP_700_spd_123.txt.gz
Wind_Speed
40 39 45 45 39 36 30 21 26 26 18 22 26 29 34 32 35 34 26 33 32 32 27 26 27 27 24 26 24 21 22 17 18 19 21 24 26 28 29 28 26 25 24 22
33 41 40 38 35 32 31 24 18 15 15 21 27 34 36 36 36 36 35 34 35 35 33 30 28 27 30 28 28 26 22 21 20 20 19 22 23 27 27 28 28 28 27 26
39 29 34 34 35 31 31 30 26 23 24 24 28 40 40 37 38 36 36 35 37 36 33 30 32 31 30 31 31 29 26 24 23 23 24 24 24 26 28 29 29 28 28 29
29 21 22 28 25 26 26 28 23 21 17 14 14 14 41 38 35 37 36 35 36 38 38 37 33 31 31 30 32 33 31 30 28 29 29 28 26 25 23 26 28 30 31 31
23 26 20 21 25 22 21 21 15 15 15 22 28 16 42 38 40 35 32 32 33 36 40 39 35 32 31 30 32 33 34 34 31 30 32 32 31 27 25 26 28 32 33 34
31 21 23 33 22 10 11 19 17 9 11 8 29 21 27 40 40 38 31 30 30 31 32 33 33 33 34 34 36 36 38 38 36 35 33 36 34 31 30 27 26 29 31 33
36 30 24 18 24 25 20 12 3 4 5 8 5 13 30 35 35 33 30 21 20 16 20 20 24 26 31 33 35 35 38 40 41 40 38 38 36 36 34 31 28 28 31 32
26 15 30 24 28 24 23 20 7 5 4 4 6 15 25 31 35 36 36 33 26 25 25 25 23 25 28 32 34 36 36 39 39 40 41 40 39 39 39 37 32 29 30 30
21 16 14 23 21 20 18 27 26 16 17 8 11 34 43 42 40 35 21 18 12 11 12 17 23 26 26 29 32 32 33 31 36 38 40 39 40 40 42 40 37 32 30 30
19 11 13 22 22 24 21 19 14 19 4 5 10 22 33 16 25 22 23 16 17 15 15 18 22 27 30 27 30 34 33 32 32 37 38 39 41 39 39 42 42 38 35 33
28 21 14 19 22 30 28 23 17 13 10 4 2 14 19 10 1 13 2 5 7 16 22 22 22 21 25 27 26 30 28 30 29 29 30 35 38 40 39 41 44 42 41 39
33 21 16 19 18 23 25 28 30 8 5 6 5 27 22 14 18 17 8 6 18 19 16 20 20 21 20 22 24 26 31 28 27 30 33 32 33 35 38 40 42 44 46 45
46 16 14 9 13 16 20 25 27 24 24 25 8 24 3 6 5 5 23 24 21 23 23 24 32 25 22 17 16 18 21 25 24 26 28 30 32 32 33 36 40 43 44 46
36 27 21 20 14 22 30 32 28 27 21 25 37 60 47 41 29 28 30 40 46 39 40 32 20 26 22 14 11 9 11 14 16 18 21 24 27 28 29 30 32 33 37 42
30 31 30 22 17 16 15 21 23 38 48 29 58 47 49 42 44 47 47 43 37 30 29 24 26 25 20 16 11 8 8 8 8 8 7 8 11 14 17 20 24 28 31 34
29 12 20 21 25 29 31 32 32 31 29 39 41 57 47 48 41 45 48 48 48 47 40 31 22 22 21 21 18 16 14 16 14 15 17 19 21 24 26 27 27 24 23 23
30 25 16 13 14 14 23 42 42 42 45 46 48 62 45 40 39 40 41 39 42 44 40 31 26 24 27 25 24 22 21 22 23 25 24 26 28 29 30 29 29 31 33 31
31 25 18 9 13 4 22 22 18 21 28 31 42 47 40 39 43 49 41 45 49 44 34 30 29 27 31 36 35 34 35 28 29 30 31 26 24 27 30 29 29 31 32 34
28 31 14 8 19 25 26 21 25 30 40 38 44 46 46 44 45 54 41 41 36 34 33 39 40 36 36 38 38 40 36 31 30 31 28 26 26 27 30 29 28 28 29 30
25 25 23 14 6 8 16 15 12 9 46 31 31 32 35 37 45 51 35 37 40 43 42 38 31 35 39 42 42 41 35 31 30 28 30 28 28 28 28 27 25 24 24 24
32 31 31 27 15 27 28 19 15 15 42 31 35 42 44 44 44 48 39 38 46 37 41 37 29 32 36 40 40 40 33 31 28 29 31 28 28 28 29 26 23 21 20 19
26 22 23 22 13 20 25 20 19 27 31 36 32 34 41 42 42 41 42 41 41 44 41 32 23 21 24 29 30 30 29 28 30 31 30 29 29 28 27 25 19 18 16 15
19 26 20 24 28 31 22 25 25 27 34 40 41 41 44 44 45 46 46 42 38 37 34 26 25 28 25 26 27 30 31 31 32 31 30 28 27 27 25 22 17 16 16 16
23 24 27 27 34 35 36 38 40 40 44 47 52 56 54 52 50 52 51 45 41 34 29 28 26 27 27 28 29 30 31 32 31 29 28 29 29 25 23 21 20 20 21 22
19 20 27 32 34 34 35 34 38 39 43 44 49 55 58 57 56 55 52 53 45 40 36 38 33 35 33 32 33 30 29 29 28 27 28 29 26 23 21 21 21 22 21 21
26 29 32 37 36 38 37 39 42 42 43 47 49 48 51 54 58 50 52 51 45 48 43 41 35 36 35 30 29 30 31 30 26 27 29 27 24 22 22 21 20 21 21 21

GFSCGP_700_spd_129.txt.gz
Wind_Speed
37 35 41 51 32 31 27 24 27 24 21 25 27 27 28 27 27 29 35 35 35 35 34 34 35 38 35 35 31 27 27 26 26 26 26 26 26 25 28 31 33 35 36 35
32 42 51 27 30 31 31 31 31 22 20 24 24 30 28 39 38 37 38 35 35 34 33 33 33 33 34 35 34 33 29 30 31 31 28 28 28 28 28 29 31 33 36 36
39 43 33 31 32 34 34 36 30 27 16 17 20 36 31 43 40 37 41 38 36 34 32 31 31 30 31 33 34 34 34 30 32 34 35 34 31 32 30 27 26 27 32 34
38 36 27 30 37 37 35 31 27 24 17 22 11 21 24 22 23 26 30 33 32 33 34 31 31 32 32 34 35 35 33 35 36 36 39 39 37 34 29 28 28 28 29 33
34 33 38 37 41 35 42 24 30 30 25 23 27 14 34 17 34 26 29 21 20 23 26 27 28 31 32 33 35 36 38 39 38 38 39 38 41 39 33 33 33 33 31 32
34 32 26 41 41 40 32 24 21 16 16 10 36 25 32 28 30 23 16 13 11 13 15 15 21 24 28 31 33 36 38 39 37 38 37 38 40 40 39 39 38 36 34 33
40 35 26 29 36 38 32 27 7 7 7 12 14 17 34 14 11 19 18 14 10 15 19 20 21 24 26 27 30 33 35 35 36 37 39 40 39 38 39 39 38 37 38 37
24 13 33 30 29 26 28 32 12 7 7 14 14 14 16 13 16 17 14 22 22 22 22 22 20 21 24 30 32 34 35 36 35 37 36 38 39 42 42 42 42 42 42 40
19 8 25 18 24 21 21 22 15 2 4 3 12 17 21 22 20 15 11 12 9 11 11 12 14 11 14 20 28 34 37 36 35 35 36 36 37 38 38 40 44 48 46 44
24 5 19 20 25 26 18 22 10 8 4 7 12 16 17 12 11 14 8 10 13 10 11 12 13 14 13 15 17 23 30 34 37 35 35 36 36 37 37 37 42 44 44 44
24 20 18 28 25 32 28 22 19 13 11 6 7 9 7 4 5 7 7 7 6 1 6 11 17 21 22 22 23 26 26 30 32 35 36 37 37 38 39 37 37 41 42 43
30 17 15 28 26 31 30 26 25 18 8 15 10 14 7 5 9 14 10 10 11 17 21 27 33 33 36 37 36 32 28 28 27 29 34 35 34 36 39 37 34 33 34 37
38 19 11 12 15 26 29 31 25 23 14 18 10 11 8 10 17 7 9 9 15 29 35 32 31 28 26 27 28 27 23 23 21 22 28 32 34 33 33 36 37 37 36 34
35 24 25 21 14 21 28 28 31 28 15 27 25 32 15 11 7 19 16 26 39 39 28 29 26 24 25 26 29 25 23 19 10 12 18 22 24 26 28 28 29 30 31 31
37 33 25 23 20 15 24 34 36 35 39 21 42 37 26 25 22 20 31 34 33 31 25 27 26 27 29 30 28 26 26 25 17 10 9 9 9 9 10 11 14 16 19 21
34 20 23 19 20 17 17 19 28 36 37 37 46 37 28 28 28 28 23 24 27 29 29 29 29 29 29 30 26 28 29 29 28 22 17 16 16 15 15 17 18 22 25 26
39 26 25 16 19 16 12 33 30 32 33 37 34 48 27 29 23 22 27 30 32 31 29 30 32 33 31 30 28 27 32 33 34 32 28 23 22 23 26 25 24 23 25 28
37 34 19 12 14 6 23 15 29 35 38 37 41 48 41 31 31 24 29 34 30 25 28 31 35 37 34 34 33 31 31 38 39 39 37 35 33 32 32 31 29 27 28 29
33 34 20 11 13 13 17 22 21 23 30 27 37 37 33 30 29 28 24 21 26 31 32 33 35 38 38 34 34 36 34 36 41 42 42 44 43 38 33 33 33 32 33 33
28 27 26 16 9 7 8 15 13 17 27 25 27 31 33 28 24 18 21 28 32 34 35 36 37 38 39 35 35 37 37 35 36 41 44 45 49 47 41 38 37 34 34 35
32 31 28 18 11 8 14 9 9 16 16 14 18 24 20 20 25 31 32 33 37 40 43 46 45 43 41 40 37 34 34 35 34 38 41 44 48 47 43 39 38 37 36 36
24 24 21 16 10 12 14 17 21 24 24 20 22 27 33 32 37 45 45 42 39 38 39 42 45 46 46 46 42 38 32 31 32 33 36 41 44 42 41 40 40 37 37 36
17 18 17 14 15 16 12 14 17 21 27 26 25 33 41 46 48 46 46 44 42 41 40 41 43 45 46 47 48 43 36 29 32 31 31 35 40 41 40 41 39 37 38 37
25 25 26 19 23 25 25 25 25 25 28 33 41 43 46 49 48 48 50 51 51 47 46 45 45 45 44 47 47 45 44 38 34 32 32 33 35 35 35 37 38 39 39 38
19 20 22 24 24 24 26 29 31 35 39 42 43 45 47 51 53 55 55 56 57 57 54 51 49 48 47 45 47 46 44 45 41 37 35 33 33 36 37 38 38 40 40 37
19 20 20 21 19 20 24 26 31 35 39 43 45 47 50 53 57 59 60 61 61 60 59 56 54 54 50 48 46 48 46 45 45 45 40 37 36 36 38 38 38 40 37 37